<?xml version="1.0" encoding="UTF-8"?>
<gpx xmlns="http://www.topografix.com/GPX/1/1" version="1.1" creator="Nokia Sports Tracker" xmlns:xsi="http://www.w3.org/2001/XMLSchema-instance" xsi:schemaLocation="http://www.topografix.com/GPX/1/1 http://www.topografix.com/GPX/1/1/gpx.xsd">
<metadata>
<name>2011-02-13 11:57</name>
<desc>Running</desc>
<author><name>Stachu</name></author>
<time>2011-02-13T12:02:15.35</time>
</metadata>
<trk>
<name>2011-02-13 11:57</name>
<trkseg>
<trkpt lat="51.769640" lon="19.488397">
<ele>274.5</ele>
<speed>0.0</speed>
<course>251.7</course>
<desc>Speed 0.0 km/h Distance 0.00 km</desc>
<time>2011-02-13T12:10:21.16</time>
<name>1</name>
</trkpt>
<trkpt lat="51.769627" lon="19.488332">
<ele>272.0</ele>
<speed>11.8</speed>
<course>260.3</course>
<desc>Speed 11.8 km/h Distance 0.00 km</desc>
<time>2011-02-13T12:10:23.14</time>
<name>2</name>
</trkpt>
<trkpt lat="51.769623" lon="19.488300">
<ele>270.5</ele>
<speed>11.7</speed>
<course>292.6</course>
<desc>Speed 11.7 km/h Distance 0.01 km</desc>
<time>2011-02-13T12:10:24.14</time>
<name>3</name>
</trkpt>
<trkpt lat="51.769637" lon="19.488248">
<ele>271.0</ele>
<speed>14.6</speed>
<course>267.1</course>
<desc>Speed 14.6 km/h Distance 0.01 km</desc>
<time>2011-02-13T12:10:25.14</time>
<name>4</name>
</trkpt>
<trkpt lat="51.769635" lon="19.488195">
<ele>272.0</ele>
<speed>11.4</speed>
<course>258.0</course>
<desc>Speed 11.4 km/h Distance 0.01 km</desc>
<time>2011-02-13T12:10:26.14</time>
<name>5</name>
</trkpt>
<trkpt lat="51.769627" lon="19.488132">
<ele>272.5</ele>
<speed>13.9</speed>
<course>262.9</course>
<desc>Speed 13.9 km/h Distance 0.02 km</desc>
<time>2011-02-13T12:10:27.14</time>
<name>6</name>
</trkpt>
<trkpt lat="51.769623" lon="19.488088">
<ele>273.0</ele>
<speed>10.1</speed>
<course>262.1</course>
<desc>Speed 10.1 km/h Distance 0.02 km</desc>
<time>2011-02-13T12:10:28.15</time>
<name>7</name>
</trkpt>
<trkpt lat="51.769618" lon="19.488030">
<ele>273.0</ele>
<speed>13.9</speed>
<course>256.0</course>
<desc>Speed 13.9 km/h Distance 0.03 km</desc>
<time>2011-02-13T12:10:29.14</time>
<name>8</name>
</trkpt>
<trkpt lat="51.769612" lon="19.487987">
<ele>272.5</ele>
<speed>11.2</speed>
<course>267.1</course>
<desc>Speed 11.2 km/h Distance 0.03 km</desc>
<time>2011-02-13T12:10:30.14</time>
<name>9</name>
</trkpt>
<trkpt lat="51.769610" lon="19.487933">
<ele>272.0</ele>
<speed>14.2</speed>
<course>262.9</course>
<desc>Speed 14.2 km/h Distance 0.03 km</desc>
<time>2011-02-13T12:10:31.14</time>
<name>10</name>
</trkpt>
<trkpt lat="51.769607" lon="19.487890">
<ele>271.5</ele>
<speed>11.4</speed>
<course>257.8</course>
<desc>Speed 11.4 km/h Distance 0.04 km</desc>
<time>2011-02-13T12:10:32.14</time>
<name>11</name>
</trkpt>
<trkpt lat="51.769600" lon="19.487840">
<ele>270.5</ele>
<speed>13.4</speed>
<course>262.9</course>
<desc>Speed 13.4 km/h Distance 0.04 km</desc>
<time>2011-02-13T12:10:33.14</time>
<name>12</name>
</trkpt>
<trkpt lat="51.769597" lon="19.487797">
<ele>270.5</ele>
<speed>10.7</speed>
<course>267.2</course>
<desc>Speed 10.7 km/h Distance 0.04 km</desc>
<time>2011-02-13T12:10:34.14</time>
<name>13</name>
</trkpt>
<trkpt lat="51.769595" lon="19.487742">
<ele>270.0</ele>
<speed>14.2</speed>
<course>266.6</course>
<desc>Speed 14.2 km/h Distance 0.05 km</desc>
<time>2011-02-13T12:10:35.15</time>
<name>14</name>
</trkpt>
<trkpt lat="51.769593" lon="19.487697">
<ele>269.5</ele>
<speed>12.3</speed>
<course>263.2</course>
<desc>Speed 12.3 km/h Distance 0.05 km</desc>
<time>2011-02-13T12:10:36.14</time>
<name>15</name>
</trkpt>
<trkpt lat="51.769590" lon="19.487652">
<ele>269.5</ele>
<speed>11.3</speed>
<course>266.1</course>
<desc>Speed 11.3 km/h Distance 0.05 km</desc>
<time>2011-02-13T12:10:37.14</time>
<name>16</name>
</trkpt>
<trkpt lat="51.769588" lon="19.487612">
<ele>269.5</ele>
<speed>9.6</speed>
<course>257.0</course>
<desc>Speed 9.6 km/h Distance 0.06 km</desc>
<time>2011-02-13T12:10:38.15</time>
<name>17</name>
</trkpt>
<trkpt lat="51.769582" lon="19.487565">
<ele>269.5</ele>
<speed>12.3</speed>
<course>261.1</course>
<desc>Speed 12.3 km/h Distance 0.06 km</desc>
<time>2011-02-13T12:10:39.14</time>
<name>18</name>
</trkpt>
<trkpt lat="51.769577" lon="19.487513">
<ele>269.0</ele>
<speed>12.6</speed>
<course>261.4</course>
<desc>Speed 12.6 km/h Distance 0.06 km</desc>
<time>2011-02-13T12:10:40.15</time>
<name>19</name>
</trkpt>
<trkpt lat="51.769572" lon="19.487460">
<ele>269.0</ele>
<speed>13.3</speed>
<course>273.0</course>
<desc>Speed 13.3 km/h Distance 0.07 km</desc>
<time>2011-02-13T12:10:41.14</time>
<name>20</name>
</trkpt>
<trkpt lat="51.769573" lon="19.487408">
<ele>269.0</ele>
<speed>13.1</speed>
<course>267.0</course>
<desc>Speed 13.1 km/h Distance 0.07 km</desc>
<time>2011-02-13T12:10:42.14</time>
<name>21</name>
</trkpt>
<trkpt lat="51.769572" lon="19.487357">
<ele>269.0</ele>
<speed>12.7</speed>
<course>259.4</course>
<desc>Speed 12.7 km/h Distance 0.07 km</desc>
<time>2011-02-13T12:10:43.15</time>
<name>22</name>
</trkpt>
<trkpt lat="51.769567" lon="19.487313">
<ele>269.0</ele>
<speed>11.3</speed>
<course>259.8</course>
<desc>Speed 11.3 km/h Distance 0.08 km</desc>
<time>2011-02-13T12:10:44.14</time>
<name>23</name>
</trkpt>
<trkpt lat="51.769562" lon="19.487268">
<ele>269.0</ele>
<speed>11.6</speed>
<course>254.9</course>
<desc>Speed 11.6 km/h Distance 0.08 km</desc>
<time>2011-02-13T12:10:45.14</time>
<name>24</name>
</trkpt>
<trkpt lat="51.769553" lon="19.487218">
<ele>269.5</ele>
<speed>12.2</speed>
<course>260.5</course>
<desc>Speed 12.2 km/h Distance 0.08 km</desc>
<time>2011-02-13T12:10:46.14</time>
<name>25</name>
</trkpt>
<trkpt lat="51.769548" lon="19.487170">
<ele>270.0</ele>
<speed>12.2</speed>
<course>255.4</course>
<desc>Speed 12.2 km/h Distance 0.09 km</desc>
<time>2011-02-13T12:10:47.14</time>
<name>26</name>
</trkpt>
<trkpt lat="51.769540" lon="19.487118">
<ele>270.0</ele>
<speed>12.8</speed>
<course>240.5</course>
<desc>Speed 12.8 km/h Distance 0.09 km</desc>
<time>2011-02-13T12:10:48.14</time>
<name>27</name>
</trkpt>
<trkpt lat="51.769528" lon="19.487085">
<ele>270.5</ele>
<speed>8.7</speed>
<course>255.5</course>
<desc>Speed 8.7 km/h Distance 0.09 km</desc>
<time>2011-02-13T12:10:49.14</time>
<name>28</name>
</trkpt>
<trkpt lat="51.769522" lon="19.487043">
<ele>270.5</ele>
<speed>10.0</speed>
<course>257.4</course>
<desc>Speed 10.0 km/h Distance 0.10 km</desc>
<time>2011-02-13T12:10:50.14</time>
<name>29</name>
</trkpt>
<trkpt lat="51.769515" lon="19.486995">
<ele>270.5</ele>
<speed>11.6</speed>
<course>256.2</course>
<desc>Speed 11.6 km/h Distance 0.10 km</desc>
<time>2011-02-13T12:10:51.14</time>
<name>30</name>
</trkpt>
<trkpt lat="51.769507" lon="19.486940">
<ele>271.0</ele>
<speed>13.2</speed>
<course>257.0</course>
<desc>Speed 13.2 km/h Distance 0.10 km</desc>
<time>2011-02-13T12:10:52.14</time>
<name>31</name>
</trkpt>
<trkpt lat="51.769498" lon="19.486882">
<ele>271.0</ele>
<speed>13.6</speed>
<course>256.2</course>
<desc>Speed 13.6 km/h Distance 0.11 km</desc>
<time>2011-02-13T12:10:53.15</time>
<name>32</name>
</trkpt>
<trkpt lat="51.769490" lon="19.486827">
<ele>271.5</ele>
<speed>13.1</speed>
<course>255.4</course>
<desc>Speed 13.1 km/h Distance 0.11 km</desc>
<time>2011-02-13T12:10:54.14</time>
<name>33</name>
</trkpt>
<trkpt lat="51.769482" lon="19.486775">
<ele>271.5</ele>
<speed>12.6</speed>
<course>254.4</course>
<desc>Speed 12.6 km/h Distance 0.11 km</desc>
<time>2011-02-13T12:10:55.14</time>
<name>34</name>
</trkpt>
<trkpt lat="51.769473" lon="19.486727">
<ele>271.5</ele>
<speed>12.9</speed>
<course>261.1</course>
<desc>Speed 12.9 km/h Distance 0.12 km</desc>
<time>2011-02-13T12:10:56.15</time>
<name>35</name>
</trkpt>
<trkpt lat="51.769468" lon="19.486675">
<ele>271.5</ele>
<speed>13.1</speed>
<course>255.4</course>
<desc>Speed 13.1 km/h Distance 0.12 km</desc>
<time>2011-02-13T12:10:57.14</time>
<name>36</name>
</trkpt>
<trkpt lat="51.769460" lon="19.486623">
<ele>271.5</ele>
<speed>13.3</speed>
<course>261.1</course>
<desc>Speed 13.3 km/h Distance 0.12 km</desc>
<time>2011-02-13T12:10:58.14</time>
<name>37</name>
</trkpt>
<trkpt lat="51.769455" lon="19.486572">
<ele>271.5</ele>
<speed>13.0</speed>
<course>261.4</course>
<desc>Speed 13.0 km/h Distance 0.13 km</desc>
<time>2011-02-13T12:10:59.14</time>
<name>38</name>
</trkpt>
<trkpt lat="51.769450" lon="19.486518">
<ele>271.5</ele>
<speed>13.5</speed>
<course>257.0</course>
<desc>Speed 13.5 km/h Distance 0.13 km</desc>
<time>2011-02-13T12:11:00.14</time>
<name>39</name>
</trkpt>
<trkpt lat="51.769442" lon="19.486460">
<ele>271.5</ele>
<speed>14.3</speed>
<course>258.2</course>
<desc>Speed 14.3 km/h Distance 0.14 km</desc>
<time>2011-02-13T12:11:01.14</time>
<name>40</name>
</trkpt>
<trkpt lat="51.769435" lon="19.486408">
<ele>271.5</ele>
<speed>13.2</speed>
<course>255.4</course>
<desc>Speed 13.2 km/h Distance 0.14 km</desc>
<time>2011-02-13T12:11:02.14</time>
<name>41</name>
</trkpt>
<trkpt lat="51.769427" lon="19.486357">
<ele>271.5</ele>
<speed>12.8</speed>
<course>255.8</course>
<desc>Speed 12.8 km/h Distance 0.14 km</desc>
<time>2011-02-13T12:11:03.14</time>
<name>42</name>
</trkpt>
<trkpt lat="51.769418" lon="19.486303">
<ele>271.0</ele>
<speed>14.0</speed>
<course>262.3</course>
<desc>Speed 14.0 km/h Distance 0.15 km</desc>
<time>2011-02-13T12:11:04.14</time>
<name>43</name>
</trkpt>
<trkpt lat="51.769413" lon="19.486243">
<ele>271.0</ele>
<speed>14.6</speed>
<course>270.0</course>
<desc>Speed 14.6 km/h Distance 0.15 km</desc>
<time>2011-02-13T12:11:05.14</time>
<name>44</name>
</trkpt>
<trkpt lat="51.769413" lon="19.486183">
<ele>271.0</ele>
<speed>14.4</speed>
<course>257.8</course>
<desc>Speed 14.4 km/h Distance 0.16 km</desc>
<time>2011-02-13T12:11:06.14</time>
<name>45</name>
</trkpt>
<trkpt lat="51.769407" lon="19.486133">
<ele>271.0</ele>
<speed>12.5</speed>
<course>257.8</course>
<desc>Speed 12.5 km/h Distance 0.16 km</desc>
<time>2011-02-13T12:11:07.14</time>
<name>46</name>
</trkpt>
<trkpt lat="51.769400" lon="19.486083">
<ele>270.5</ele>
<speed>13.0</speed>
<course>257.0</course>
<desc>Speed 13.0 km/h Distance 0.16 km</desc>
<time>2011-02-13T12:11:08.14</time>
<name>47</name>
</trkpt>
<trkpt lat="51.769393" lon="19.486037">
<ele>270.5</ele>
<speed>11.8</speed>
<course>255.4</course>
<desc>Speed 11.8 km/h Distance 0.17 km</desc>
<time>2011-02-13T12:11:09.14</time>
<name>48</name>
</trkpt>
<trkpt lat="51.769385" lon="19.485985">
<ele>270.5</ele>
<speed>12.9</speed>
<course>258.9</course>
<desc>Speed 12.9 km/h Distance 0.17 km</desc>
<time>2011-02-13T12:11:10.14</time>
<name>49</name>
</trkpt>
<trkpt lat="51.769378" lon="19.485930">
<ele>270.5</ele>
<speed>13.8</speed>
<course>263.6</course>
<desc>Speed 13.8 km/h Distance 0.17 km</desc>
<time>2011-02-13T12:11:11.14</time>
<name>50</name>
</trkpt>
<trkpt lat="51.769375" lon="19.485882">
<ele>270.0</ele>
<speed>12.0</speed>
<course>251.5</course>
<desc>Speed 12.0 km/h Distance 0.18 km</desc>
<time>2011-02-13T12:11:12.14</time>
<name>51</name>
</trkpt>
<trkpt lat="51.769365" lon="19.485833">
<ele>269.5</ele>
<speed>12.5</speed>
<course>255.8</course>
<desc>Speed 12.5 km/h Distance 0.18 km</desc>
<time>2011-02-13T12:11:13.14</time>
<name>52</name>
</trkpt>
<trkpt lat="51.769357" lon="19.485780">
<ele>269.5</ele>
<speed>13.2</speed>
<course>254.9</course>
<desc>Speed 13.2 km/h Distance 0.18 km</desc>
<time>2011-02-13T12:11:14.14</time>
<name>53</name>
</trkpt>
<trkpt lat="51.769348" lon="19.485730">
<ele>269.5</ele>
<speed>12.6</speed>
<course>259.8</course>
<desc>Speed 12.6 km/h Distance 0.19 km</desc>
<time>2011-02-13T12:11:15.14</time>
<name>54</name>
</trkpt>
<trkpt lat="51.769342" lon="19.485670">
<ele>269.0</ele>
<speed>14.7</speed>
<course>273.2</course>
<desc>Speed 14.7 km/h Distance 0.19 km</desc>
<time>2011-02-13T12:11:16.13</time>
<name>55</name>
</trkpt>
<trkpt lat="51.769343" lon="19.485622">
<ele>268.5</ele>
<speed>11.9</speed>
<course>261.4</course>
<desc>Speed 11.9 km/h Distance 0.20 km</desc>
<time>2011-02-13T12:11:17.14</time>
<name>56</name>
</trkpt>
<trkpt lat="51.769338" lon="19.485568">
<ele>268.5</ele>
<speed>13.2</speed>
<course>266.8</course>
<desc>Speed 13.2 km/h Distance 0.20 km</desc>
<time>2011-02-13T12:11:18.13</time>
<name>57</name>
</trkpt>
<trkpt lat="51.769337" lon="19.485520">
<ele>268.5</ele>
<speed>11.6</speed>
<course>259.8</course>
<desc>Speed 11.6 km/h Distance 0.20 km</desc>
<time>2011-02-13T12:11:19.14</time>
<name>58</name>
</trkpt>
<trkpt lat="51.769330" lon="19.485460">
<ele>268.5</ele>
<speed>15.1</speed>
<course>254.9</course>
<desc>Speed 15.1 km/h Distance 0.21 km</desc>
<time>2011-02-13T12:11:20.14</time>
<name>59</name>
</trkpt>
<trkpt lat="51.769322" lon="19.485410">
<ele>268.0</ele>
<speed>11.7</speed>
<course>263.2</course>
<desc>Speed 11.7 km/h Distance 0.21 km</desc>
<time>2011-02-13T12:11:21.14</time>
<name>60</name>
</trkpt>
<trkpt lat="51.769318" lon="19.485365">
<ele>268.0</ele>
<speed>11.0</speed>
<course>260.8</course>
<desc>Speed 11.0 km/h Distance 0.21 km</desc>
<time>2011-02-13T12:11:22.13</time>
<name>61</name>
</trkpt>
<trkpt lat="51.769313" lon="19.485315">
<ele>267.5</ele>
<speed>11.5</speed>
<course>270.0</course>
<desc>Speed 11.5 km/h Distance 0.22 km</desc>
<time>2011-02-13T12:11:23.14</time>
<name>62</name>
</trkpt>
<trkpt lat="51.769313" lon="19.485263">
<ele>267.5</ele>
<speed>12.9</speed>
<course>256.5</course>
<desc>Speed 12.9 km/h Distance 0.22 km</desc>
<time>2011-02-13T12:11:24.14</time>
<name>63</name>
</trkpt>
<trkpt lat="51.769307" lon="19.485218">
<ele>267.5</ele>
<speed>11.0</speed>
<course>254.9</course>
<desc>Speed 11.0 km/h Distance 0.22 km</desc>
<time>2011-02-13T12:11:25.14</time>
<name>64</name>
</trkpt>
<trkpt lat="51.769298" lon="19.485168">
<ele>267.5</ele>
<speed>12.9</speed>
<course>259.8</course>
<desc>Speed 12.9 km/h Distance 0.23 km</desc>
<time>2011-02-13T12:11:26.14</time>
<name>65</name>
</trkpt>
<trkpt lat="51.769293" lon="19.485123">
<ele>267.5</ele>
<speed>10.8</speed>
<course>264.6</course>
<desc>Speed 10.8 km/h Distance 0.23 km</desc>
<time>2011-02-13T12:11:27.15</time>
<name>66</name>
</trkpt>
<trkpt lat="51.769290" lon="19.485067">
<ele>267.5</ele>
<speed>13.1</speed>
<course>264.2</course>
<desc>Speed 13.1 km/h Distance 0.23 km</desc>
<time>2011-02-13T12:11:28.14</time>
<name>67</name>
</trkpt>
<trkpt lat="51.769287" lon="19.485013">
<ele>267.5</ele>
<speed>12.7</speed>
<course>255.7</course>
<desc>Speed 12.7 km/h Distance 0.24 km</desc>
<time>2011-02-13T12:11:29.14</time>
<name>68</name>
</trkpt>
<trkpt lat="51.769277" lon="19.484950">
<ele>267.5</ele>
<speed>15.2</speed>
<course>264.6</course>
<desc>Speed 15.2 km/h Distance 0.24 km</desc>
<time>2011-02-13T12:11:30.14</time>
<name>69</name>
</trkpt>
<trkpt lat="51.769273" lon="19.484893">
<ele>267.5</ele>
<speed>13.0</speed>
<course>258.2</course>
<desc>Speed 13.0 km/h Distance 0.25 km</desc>
<time>2011-02-13T12:11:31.14</time>
<name>70</name>
</trkpt>
<trkpt lat="51.769267" lon="19.484842">
<ele>267.5</ele>
<speed>12.8</speed>
<course>259.2</course>
<desc>Speed 12.8 km/h Distance 0.25 km</desc>
<time>2011-02-13T12:11:32.14</time>
<name>71</name>
</trkpt>
<trkpt lat="51.769260" lon="19.484785">
<ele>267.5</ele>
<speed>13.3</speed>
<course>260.8</course>
<desc>Speed 13.3 km/h Distance 0.25 km</desc>
<time>2011-02-13T12:11:33.14</time>
<name>72</name>
</trkpt>
<trkpt lat="51.769255" lon="19.484735">
<ele>267.0</ele>
<speed>12.7</speed>
<course>260.2</course>
<desc>Speed 12.7 km/h Distance 0.26 km</desc>
<time>2011-02-13T12:11:34.13</time>
<name>73</name>
</trkpt>
<trkpt lat="51.769250" lon="19.484688">
<ele>267.0</ele>
<speed>11.6</speed>
<course>259.8</course>
<desc>Speed 11.6 km/h Distance 0.26 km</desc>
<time>2011-02-13T12:11:35.14</time>
<name>74</name>
</trkpt>
<trkpt lat="51.769245" lon="19.484643">
<ele>267.0</ele>
<speed>11.2</speed>
<course>257.4</course>
<desc>Speed 11.2 km/h Distance 0.26 km</desc>
<time>2011-02-13T12:11:36.13</time>
<name>75</name>
</trkpt>
<trkpt lat="51.769238" lon="19.484595">
<ele>267.0</ele>
<speed>11.9</speed>
<course>261.4</course>
<desc>Speed 11.9 km/h Distance 0.27 km</desc>
<time>2011-02-13T12:11:37.14</time>
<name>76</name>
</trkpt>
<trkpt lat="51.769233" lon="19.484542">
<ele>267.0</ele>
<speed>13.4</speed>
<course>244.4</course>
<desc>Speed 13.4 km/h Distance 0.27 km</desc>
<time>2011-02-13T12:11:38.14</time>
<name>77</name>
</trkpt>
<trkpt lat="51.769220" lon="19.484497">
<ele>266.5</ele>
<speed>12.6</speed>
<course>240.9</course>
<desc>Speed 12.6 km/h Distance 0.27 km</desc>
<time>2011-02-13T12:11:39.13</time>
<name>78</name>
</trkpt>
<trkpt lat="51.769203" lon="19.484448">
<ele>266.5</ele>
<speed>13.0</speed>
<course>245.2</course>
<desc>Speed 13.0 km/h Distance 0.28 km</desc>
<time>2011-02-13T12:11:40.14</time>
<name>79</name>
</trkpt>
<trkpt lat="51.769190" lon="19.484402">
<ele>266.5</ele>
<speed>13.1</speed>
<course>237.7</course>
<desc>Speed 13.1 km/h Distance 0.28 km</desc>
<time>2011-02-13T12:11:41.14</time>
<name>80</name>
</trkpt>
<trkpt lat="51.769175" lon="19.484363">
<ele>266.5</ele>
<speed>11.4</speed>
<course>148.3</course>
<desc>Speed 11.4 km/h Distance 0.28 km</desc>
<time>2011-02-13T12:11:42.14</time>
<name>81</name>
</trkpt>
<trkpt lat="51.769158" lon="19.484380">
<ele>266.5</ele>
<speed>7.7</speed>
<course>176.1</course>
<desc>Speed 7.7 km/h Distance 0.29 km</desc>
<time>2011-02-13T12:11:43.15</time>
<name>82</name>
</trkpt>
<trkpt lat="51.769127" lon="19.484383">
<ele>266.0</ele>
<speed>13.1</speed>
<course>196.3</course>
<desc>Speed 13.1 km/h Distance 0.29 km</desc>
<time>2011-02-13T12:11:44.14</time>
<name>83</name>
</trkpt>
<trkpt lat="51.769095" lon="19.484368">
<ele>266.0</ele>
<speed>13.2</speed>
<course>191.6</course>
<desc>Speed 13.2 km/h Distance 0.29 km</desc>
<time>2011-02-13T12:11:45.14</time>
<name>84</name>
</trkpt>
<trkpt lat="51.769075" lon="19.484362">
<ele>266.0</ele>
<speed>8.3</speed>
<course>185.4</course>
<desc>Speed 8.3 km/h Distance 0.30 km</desc>
<time>2011-02-13T12:11:46.14</time>
<name>85</name>
</trkpt>
<trkpt lat="51.768998" lon="19.484350">
<ele>266.0</ele>
<speed>15.3</speed>
<course>172.4</course>
<desc>Speed 15.3 km/h Distance 0.31 km</desc>
<time>2011-02-13T12:11:48.14</time>
<name>86</name>
</trkpt>
<trkpt lat="51.768967" lon="19.484357">
<ele>266.0</ele>
<speed>13.6</speed>
<course>171.7</course>
<desc>Speed 13.6 km/h Distance 0.31 km</desc>
<time>2011-02-13T12:11:49.14</time>
<name>87</name>
</trkpt>
<trkpt lat="51.768938" lon="19.484363">
<ele>266.0</ele>
<speed>11.9</speed>
<course>172.6</course>
<desc>Speed 11.9 km/h Distance 0.31 km</desc>
<time>2011-02-13T12:11:50.14</time>
<name>88</name>
</trkpt>
<trkpt lat="51.768907" lon="19.484370">
<ele>266.0</ele>
<speed>12.7</speed>
<course>169.0</course>
<desc>Speed 12.7 km/h Distance 0.32 km</desc>
<time>2011-02-13T12:11:51.14</time>
<name>89</name>
</trkpt>
<trkpt lat="51.768875" lon="19.484380">
<ele>266.0</ele>
<speed>12.4</speed>
<course>170.1</course>
<desc>Speed 12.4 km/h Distance 0.32 km</desc>
<time>2011-02-13T12:11:52.14</time>
<name>90</name>
</trkpt>
<trkpt lat="51.768845" lon="19.484388">
<ele>265.5</ele>
<speed>12.1</speed>
<course>173.6</course>
<desc>Speed 12.1 km/h Distance 0.32 km</desc>
<time>2011-02-13T12:11:53.14</time>
<name>91</name>
</trkpt>
<trkpt lat="51.768818" lon="19.484393">
<ele>265.5</ele>
<speed>10.4</speed>
<course>165.7</course>
<desc>Speed 10.4 km/h Distance 0.33 km</desc>
<time>2011-02-13T12:11:54.14</time>
<name>92</name>
</trkpt>
<trkpt lat="51.768790" lon="19.484405">
<ele>265.5</ele>
<speed>12.0</speed>
<course>162.9</course>
<desc>Speed 12.0 km/h Distance 0.33 km</desc>
<time>2011-02-13T12:11:55.14</time>
<name>93</name>
</trkpt>
<trkpt lat="51.768767" lon="19.484417">
<ele>265.5</ele>
<speed>10.3</speed>
<course>163.8</course>
<desc>Speed 10.3 km/h Distance 0.33 km</desc>
<time>2011-02-13T12:11:56.14</time>
<name>94</name>
</trkpt>
<trkpt lat="51.768738" lon="19.484430">
<ele>265.5</ele>
<speed>12.0</speed>
<course>155.1</course>
<desc>Speed 12.0 km/h Distance 0.33 km</desc>
<time>2011-02-13T12:11:57.15</time>
<name>95</name>
</trkpt>
<trkpt lat="51.768712" lon="19.484450">
<ele>265.5</ele>
<speed>12.0</speed>
<course>105.1</course>
<desc>Speed 12.0 km/h Distance 0.34 km</desc>
<time>2011-02-13T12:11:58.14</time>
<name>96</name>
</trkpt>
<trkpt lat="51.768707" lon="19.484480">
<ele>265.5</ele>
<speed>9.1</speed>
<course>113.8</course>
<desc>Speed 9.1 km/h Distance 0.34 km</desc>
<time>2011-02-13T12:11:59.14</time>
<name>97</name>
</trkpt>
<trkpt lat="51.768697" lon="19.484517">
<ele>265.5</ele>
<speed>10.6</speed>
<course>118.3</course>
<desc>Speed 10.6 km/h Distance 0.34 km</desc>
<time>2011-02-13T12:12:00.15</time>
<name>98</name>
</trkpt>
<trkpt lat="51.768682" lon="19.484562">
<ele>265.5</ele>
<speed>13.8</speed>
<course>100.2</course>
<desc>Speed 13.8 km/h Distance 0.35 km</desc>
<time>2011-02-13T12:12:01.14</time>
<name>99</name>
</trkpt>
<trkpt lat="51.768677" lon="19.484607">
<ele>265.5</ele>
<speed>11.6</speed>
<course>90.0</course>
<desc>Speed 11.6 km/h Distance 0.35 km</desc>
<time>2011-02-13T12:12:02.14</time>
<name>100</name>
</trkpt>
<trkpt lat="51.768677" lon="19.484658">
<ele>265.5</ele>
<speed>13.3</speed>
<course>102.2</course>
<desc>Speed 13.3 km/h Distance 0.35 km</desc>
<time>2011-02-13T12:12:03.13</time>
<name>101</name>
</trkpt>
<trkpt lat="51.768670" lon="19.484708">
<ele>265.5</ele>
<speed>13.6</speed>
<course>90.0</course>
<desc>Speed 13.6 km/h Distance 0.36 km</desc>
<time>2011-02-13T12:12:04.14</time>
<name>102</name>
</trkpt>
<trkpt lat="51.768670" lon="19.484755">
<ele>265.5</ele>
<speed>12.3</speed>
<course>102.4</course>
<desc>Speed 12.3 km/h Distance 0.36 km</desc>
<time>2011-02-13T12:12:05.14</time>
<name>103</name>
</trkpt>
<trkpt lat="51.768665" lon="19.484792">
<ele>265.5</ele>
<speed>10.6</speed>
<course>102.4</course>
<desc>Speed 10.6 km/h Distance 0.36 km</desc>
<time>2011-02-13T12:12:06.14</time>
<name>104</name>
</trkpt>
<trkpt lat="51.768660" lon="19.484828">
<ele>265.5</ele>
<speed>9.6</speed>
<course>93.6</course>
<desc>Speed 9.6 km/h Distance 0.37 km</desc>
<time>2011-02-13T12:12:07.14</time>
<name>105</name>
</trkpt>
<trkpt lat="51.768658" lon="19.484872">
<ele>265.5</ele>
<speed>11.0</speed>
<course>93.0</course>
<desc>Speed 11.0 km/h Distance 0.37 km</desc>
<time>2011-02-13T12:12:08.14</time>
<name>106</name>
</trkpt>
<trkpt lat="51.768657" lon="19.484923">
<ele>265.5</ele>
<speed>13.4</speed>
<course>93.1</course>
<desc>Speed 13.4 km/h Distance 0.37 km</desc>
<time>2011-02-13T12:12:09.13</time>
<name>107</name>
</trkpt>
<trkpt lat="51.768655" lon="19.484973">
<ele>265.5</ele>
<speed>13.6</speed>
<course>83.4</course>
<desc>Speed 13.6 km/h Distance 0.38 km</desc>
<time>2011-02-13T12:12:10.13</time>
<name>108</name>
</trkpt>
<trkpt lat="51.768658" lon="19.485020">
<ele>265.5</ele>
<speed>13.1</speed>
<course>57.7</course>
<desc>Speed 13.1 km/h Distance 0.38 km</desc>
<time>2011-02-13T12:12:11.14</time>
<name>109</name>
</trkpt>
<trkpt lat="51.768673" lon="19.485058">
<ele>265.5</ele>
<speed>11.4</speed>
<course>86.4</course>
<desc>Speed 11.4 km/h Distance 0.38 km</desc>
<time>2011-02-13T12:12:12.14</time>
<name>110</name>
</trkpt>
<trkpt lat="51.768675" lon="19.485102">
<ele>265.5</ele>
<speed>11.4</speed>
<course>103.0</course>
<desc>Speed 11.4 km/h Distance 0.38 km</desc>
<time>2011-02-13T12:12:13.14</time>
<name>111</name>
</trkpt>
<trkpt lat="51.768668" lon="19.485148">
<ele>265.5</ele>
<speed>12.4</speed>
<course>96.8</course>
<desc>Speed 12.4 km/h Distance 0.39 km</desc>
<time>2011-02-13T12:12:14.14</time>
<name>112</name>
</trkpt>
<trkpt lat="51.768665" lon="19.485193">
<ele>265.5</ele>
<speed>12.3</speed>
<course>104.0</course>
<desc>Speed 12.3 km/h Distance 0.39 km</desc>
<time>2011-02-13T12:12:15.14</time>
<name>113</name>
</trkpt>
<trkpt lat="51.768658" lon="19.485237">
<ele>265.5</ele>
<speed>12.1</speed>
<course>90.0</course>
<desc>Speed 12.1 km/h Distance 0.39 km</desc>
<time>2011-02-13T12:12:16.14</time>
<name>114</name>
</trkpt>
<trkpt lat="51.768658" lon="19.485278">
<ele>265.5</ele>
<speed>12.0</speed>
<course>82.6</course>
<desc>Speed 12.0 km/h Distance 0.40 km</desc>
<time>2011-02-13T12:12:17.14</time>
<name>115</name>
</trkpt>
<trkpt lat="51.768662" lon="19.485320">
<ele>265.5</ele>
<speed>12.0</speed>
<course>96.1</course>
<desc>Speed 12.0 km/h Distance 0.40 km</desc>
<time>2011-02-13T12:12:18.13</time>
<name>116</name>
</trkpt>
<trkpt lat="51.768658" lon="19.485370">
<ele>265.5</ele>
<speed>13.8</speed>
<course>93.3</course>
<desc>Speed 13.8 km/h Distance 0.40 km</desc>
<time>2011-02-13T12:12:19.14</time>
<name>117</name>
</trkpt>
<trkpt lat="51.768657" lon="19.485417">
<ele>265.5</ele>
<speed>12.9</speed>
<course>90.0</course>
<desc>Speed 12.9 km/h Distance 0.41 km</desc>
<time>2011-02-13T12:12:20.14</time>
<name>118</name>
</trkpt>
<trkpt lat="51.768657" lon="19.485465">
<ele>266.0</ele>
<speed>13.5</speed>
<course>93.7</course>
<desc>Speed 13.5 km/h Distance 0.41 km</desc>
<time>2011-02-13T12:12:21.13</time>
<name>119</name>
</trkpt>
<trkpt lat="51.768655" lon="19.485507">
<ele>266.0</ele>
<speed>11.7</speed>
<course>96.6</course>
<desc>Speed 11.7 km/h Distance 0.41 km</desc>
<time>2011-02-13T12:12:22.13</time>
<name>120</name>
</trkpt>
<trkpt lat="51.768652" lon="19.485553">
<ele>266.0</ele>
<speed>13.1</speed>
<course>104.0</course>
<desc>Speed 13.1 km/h Distance 0.42 km</desc>
<time>2011-02-13T12:12:23.13</time>
<name>121</name>
</trkpt>
<trkpt lat="51.768645" lon="19.485597">
<ele>266.0</ele>
<speed>11.7</speed>
<course>119.1</course>
<desc>Speed 11.7 km/h Distance 0.42 km</desc>
<time>2011-02-13T12:12:24.14</time>
<name>122</name>
</trkpt>
<trkpt lat="51.768628" lon="19.485645">
<ele>266.0</ele>
<speed>14.6</speed>
<course>109.5</course>
<desc>Speed 14.6 km/h Distance 0.42 km</desc>
<time>2011-02-13T12:12:25.14</time>
<name>123</name>
</trkpt>
<trkpt lat="51.768617" lon="19.485698">
<ele>266.0</ele>
<speed>14.6</speed>
<course>109.7</course>
<desc>Speed 14.6 km/h Distance 0.43 km</desc>
<time>2011-02-13T12:12:26.14</time>
<name>124</name>
</trkpt>
<trkpt lat="51.768610" lon="19.485728">
<ele>266.0</ele>
<speed>9.0</speed>
<course>93.2</course>
<desc>Speed 9.0 km/h Distance 0.43 km</desc>
<time>2011-02-13T12:12:27.13</time>
<name>125</name>
</trkpt>
<trkpt lat="51.768608" lon="19.485777">
<ele>266.0</ele>
<speed>12.4</speed>
<course>87.0</course>
<desc>Speed 12.4 km/h Distance 0.43 km</desc>
<time>2011-02-13T12:12:28.13</time>
<name>126</name>
</trkpt>
<trkpt lat="51.768610" lon="19.485828">
<ele>266.0</ele>
<speed>13.0</speed>
<course>87.2</course>
<desc>Speed 13.0 km/h Distance 0.44 km</desc>
<time>2011-02-13T12:12:29.13</time>
<name>127</name>
</trkpt>
<trkpt lat="51.768612" lon="19.485883">
<ele>266.0</ele>
<speed>14.1</speed>
<course>86.7</course>
<desc>Speed 14.1 km/h Distance 0.44 km</desc>
<time>2011-02-13T12:12:30.14</time>
<name>128</name>
</trkpt>
<trkpt lat="51.768613" lon="19.485930">
<ele>266.0</ele>
<speed>12.7</speed>
<course>101.8</course>
<desc>Speed 12.7 km/h Distance 0.44 km</desc>
<time>2011-02-13T12:12:31.13</time>
<name>129</name>
</trkpt>
<trkpt lat="51.768607" lon="19.485982">
<ele>266.0</ele>
<speed>13.6</speed>
<course>101.4</course>
<desc>Speed 13.6 km/h Distance 0.45 km</desc>
<time>2011-02-13T12:12:32.13</time>
<name>130</name>
</trkpt>
<trkpt lat="51.768600" lon="19.486035">
<ele>266.0</ele>
<speed>14.6</speed>
<course>90.0</course>
<desc>Speed 14.6 km/h Distance 0.45 km</desc>
<time>2011-02-13T12:12:33.14</time>
<name>131</name>
</trkpt>
<trkpt lat="51.768600" lon="19.486083">
<ele>266.0</ele>
<speed>12.8</speed>
<course>90.0</course>
<desc>Speed 12.8 km/h Distance 0.45 km</desc>
<time>2011-02-13T12:12:34.13</time>
<name>132</name>
</trkpt>
<trkpt lat="51.768600" lon="19.486125">
<ele>265.5</ele>
<speed>11.5</speed>
<course>96.1</course>
<desc>Speed 11.5 km/h Distance 0.46 km</desc>
<time>2011-02-13T12:12:35.13</time>
<name>133</name>
</trkpt>
<trkpt lat="51.768597" lon="19.486175">
<ele>266.0</ele>
<speed>13.5</speed>
<course>125.1</course>
<desc>Speed 13.5 km/h Distance 0.46 km</desc>
<time>2011-02-13T12:12:36.13</time>
<name>134</name>
</trkpt>
<trkpt lat="51.768580" lon="19.486213">
<ele>266.0</ele>
<speed>12.5</speed>
<course>131.4</course>
<desc>Speed 12.5 km/h Distance 0.46 km</desc>
<time>2011-02-13T12:12:37.13</time>
<name>135</name>
</trkpt>
<trkpt lat="51.768560" lon="19.486250">
<ele>265.5</ele>
<speed>12.5</speed>
<course>103.0</course>
<desc>Speed 12.5 km/h Distance 0.47 km</desc>
<time>2011-02-13T12:12:38.13</time>
<name>136</name>
</trkpt>
<trkpt lat="51.768553" lon="19.486297">
<ele>265.5</ele>
<speed>12.0</speed>
<course>117.5</course>
<desc>Speed 12.0 km/h Distance 0.47 km</desc>
<time>2011-02-13T12:12:39.13</time>
<name>137</name>
</trkpt>
<trkpt lat="51.768537" lon="19.486348">
<ele>265.5</ele>
<speed>14.7</speed>
<course>99.2</course>
<desc>Speed 14.7 km/h Distance 0.47 km</desc>
<time>2011-02-13T12:12:40.13</time>
<name>138</name>
</trkpt>
<trkpt lat="51.768532" lon="19.486398">
<ele>265.5</ele>
<speed>12.9</speed>
<course>93.1</course>
<desc>Speed 12.9 km/h Distance 0.48 km</desc>
<time>2011-02-13T12:12:41.13</time>
<name>139</name>
</trkpt>
<trkpt lat="51.768530" lon="19.486448">
<ele>265.5</ele>
<speed>12.8</speed>
<course>96.6</course>
<desc>Speed 12.8 km/h Distance 0.48 km</desc>
<time>2011-02-13T12:12:42.13</time>
<name>140</name>
</trkpt>
<trkpt lat="51.768527" lon="19.486495">
<ele>265.5</ele>
<speed>12.0</speed>
<course>93.6</course>
<desc>Speed 12.0 km/h Distance 0.48 km</desc>
<time>2011-02-13T12:12:43.14</time>
<name>141</name>
</trkpt>
<trkpt lat="51.768525" lon="19.486538">
<ele>265.5</ele>
<speed>11.2</speed>
<course>105.6</course>
<desc>Speed 11.2 km/h Distance 0.49 km</desc>
<time>2011-02-13T12:12:44.13</time>
<name>142</name>
</trkpt>
<trkpt lat="51.768517" lon="19.486587">
<ele>266.0</ele>
<speed>13.0</speed>
<course>83.8</course>
<desc>Speed 13.0 km/h Distance 0.49 km</desc>
<time>2011-02-13T12:12:45.13</time>
<name>143</name>
</trkpt>
<trkpt lat="51.768520" lon="19.486637">
<ele>266.0</ele>
<speed>12.4</speed>
<course>90.0</course>
<desc>Speed 12.4 km/h Distance 0.49 km</desc>
<time>2011-02-13T12:12:46.13</time>
<name>144</name>
</trkpt>
<trkpt lat="51.768520" lon="19.486673">
<ele>266.0</ele>
<speed>9.6</speed>
<course>79.0</course>
<desc>Speed 9.6 km/h Distance 0.50 km</desc>
<time>2011-02-13T12:12:47.13</time>
<name>145</name>
</trkpt>
<trkpt lat="51.768525" lon="19.486715">
<ele>266.0</ele>
<speed>11.1</speed>
<course>86.4</course>
<desc>Speed 11.1 km/h Distance 0.50 km</desc>
<time>2011-02-13T12:12:48.13</time>
<name>146</name>
</trkpt>
<trkpt lat="51.768527" lon="19.486758">
<ele>266.0</ele>
<speed>11.4</speed>
<course>98.7</course>
<desc>Speed 11.4 km/h Distance 0.50 km</desc>
<time>2011-02-13T12:12:49.13</time>
<name>147</name>
</trkpt>
<trkpt lat="51.768523" lon="19.486793">
<ele>266.0</ele>
<speed>10.1</speed>
<course>86.9</course>
<desc>Speed 10.1 km/h Distance 0.50 km</desc>
<time>2011-02-13T12:12:50.13</time>
<name>148</name>
</trkpt>
<trkpt lat="51.768525" lon="19.486843">
<ele>266.0</ele>
<speed>12.5</speed>
<course>93.7</course>
<desc>Speed 12.5 km/h Distance 0.51 km</desc>
<time>2011-02-13T12:12:51.13</time>
<name>149</name>
</trkpt>
<trkpt lat="51.768523" lon="19.486885">
<ele>266.0</ele>
<speed>10.9</speed>
<course>96.8</course>
<desc>Speed 10.9 km/h Distance 0.51 km</desc>
<time>2011-02-13T12:12:52.13</time>
<name>150</name>
</trkpt>
<trkpt lat="51.768520" lon="19.486930">
<ele>265.5</ele>
<speed>12.0</speed>
<course>73.3</course>
<desc>Speed 12.0 km/h Distance 0.51 km</desc>
<time>2011-02-13T12:12:53.13</time>
<name>151</name>
</trkpt>
<trkpt lat="51.768528" lon="19.486975">
<ele>265.5</ele>
<speed>11.2</speed>
<course>83.4</course>
<desc>Speed 11.2 km/h Distance 0.52 km</desc>
<time>2011-02-13T12:12:54.13</time>
<name>152</name>
</trkpt>
<trkpt lat="51.768532" lon="19.487022">
<ele>265.5</ele>
<speed>11.6</speed>
<course>90.0</course>
<desc>Speed 11.6 km/h Distance 0.52 km</desc>
<time>2011-02-13T12:12:55.13</time>
<name>153</name>
</trkpt>
<trkpt lat="51.768532" lon="19.487063">
<ele>265.5</ele>
<speed>10.5</speed>
<course>95.3</course>
<desc>Speed 10.5 km/h Distance 0.52 km</desc>
<time>2011-02-13T12:12:56.13</time>
<name>154</name>
</trkpt>
<trkpt lat="51.768528" lon="19.487122">
<ele>265.5</ele>
<speed>14.8</speed>
<course>87.0</course>
<desc>Speed 14.8 km/h Distance 0.53 km</desc>
<time>2011-02-13T12:12:57.13</time>
<name>155</name>
</trkpt>
<trkpt lat="51.768530" lon="19.487173">
<ele>265.5</ele>
<speed>12.9</speed>
<course>106.1</course>
<desc>Speed 12.9 km/h Distance 0.53 km</desc>
<time>2011-02-13T12:12:58.13</time>
<name>156</name>
</trkpt>
<trkpt lat="51.768522" lon="19.487220">
<ele>265.5</ele>
<speed>12.1</speed>
<course>94.2</course>
<desc>Speed 12.1 km/h Distance 0.53 km</desc>
<time>2011-02-13T12:12:59.14</time>
<name>157</name>
</trkpt>
<trkpt lat="51.768520" lon="19.487257">
<ele>265.5</ele>
<speed>12.1</speed>
<course>84.4</course>
<desc>Speed 12.1 km/h Distance 0.54 km</desc>
<time>2011-02-13T12:13:00.13</time>
<name>158</name>
</trkpt>
<trkpt lat="51.768523" lon="19.487312">
<ele>265.5</ele>
<speed>13.4</speed>
<course>84.4</course>
<desc>Speed 13.4 km/h Distance 0.54 km</desc>
<time>2011-02-13T12:13:01.13</time>
<name>159</name>
</trkpt>
<trkpt lat="51.768527" lon="19.487367">
<ele>265.5</ele>
<speed>13.5</speed>
<course>90.0</course>
<desc>Speed 13.5 km/h Distance 0.54 km</desc>
<time>2011-02-13T12:13:02.13</time>
<name>160</name>
</trkpt>
<trkpt lat="51.768527" lon="19.487422">
<ele>265.5</ele>
<speed>14.2</speed>
<course>77.0</course>
<desc>Speed 14.2 km/h Distance 0.55 km</desc>
<time>2011-02-13T12:13:03.14</time>
<name>161</name>
</trkpt>
<trkpt lat="51.768533" lon="19.487468">
<ele>265.5</ele>
<speed>11.6</speed>
<course>90.0</course>
<desc>Speed 11.6 km/h Distance 0.55 km</desc>
<time>2011-02-13T12:13:04.13</time>
<name>162</name>
</trkpt>
<trkpt lat="51.768533" lon="19.487503">
<ele>265.5</ele>
<speed>9.1</speed>
<course>65.2</course>
<desc>Speed 9.1 km/h Distance 0.55 km</desc>
<time>2011-02-13T12:13:05.13</time>
<name>163</name>
</trkpt>
<trkpt lat="51.768543" lon="19.487538">
<ele>265.5</ele>
<speed>9.5</speed>
<course>61.7</course>
<desc>Speed 9.5 km/h Distance 0.56 km</desc>
<time>2011-02-13T12:13:06.13</time>
<name>164</name>
</trkpt>
<trkpt lat="51.768555" lon="19.487573">
<ele>265.5</ele>
<speed>9.5</speed>
<course>90.0</course>
<desc>Speed 9.5 km/h Distance 0.56 km</desc>
<time>2011-02-13T12:13:07.13</time>
<name>165</name>
</trkpt>
<trkpt lat="51.768555" lon="19.487625">
<ele>265.5</ele>
<speed>12.9</speed>
<course>107.3</course>
<desc>Speed 12.9 km/h Distance 0.56 km</desc>
<time>2011-02-13T12:13:08.13</time>
<name>166</name>
</trkpt>
<trkpt lat="51.768547" lon="19.487668">
<ele>265.5</ele>
<speed>12.3</speed>
<course>90.0</course>
<desc>Speed 12.3 km/h Distance 0.57 km</desc>
<time>2011-02-13T12:13:09.13</time>
<name>167</name>
</trkpt>
<trkpt lat="51.768547" lon="19.487715">
<ele>265.5</ele>
<speed>11.6</speed>
<course>86.8</course>
<desc>Speed 11.6 km/h Distance 0.57 km</desc>
<time>2011-02-13T12:13:10.13</time>
<name>168</name>
</trkpt>
<trkpt lat="51.768548" lon="19.487763">
<ele>265.5</ele>
<speed>12.3</speed>
<course>100.2</course>
<desc>Speed 12.3 km/h Distance 0.57 km</desc>
<time>2011-02-13T12:13:11.13</time>
<name>169</name>
</trkpt>
<trkpt lat="51.768543" lon="19.487808">
<ele>265.5</ele>
<speed>11.8</speed>
<course>106.7</course>
<desc>Speed 11.8 km/h Distance 0.58 km</desc>
<time>2011-02-13T12:13:12.13</time>
<name>170</name>
</trkpt>
<trkpt lat="51.768535" lon="19.487853">
<ele>265.5</ele>
<speed>12.2</speed>
<course>84.6</course>
<desc>Speed 12.2 km/h Distance 0.58 km</desc>
<time>2011-02-13T12:13:13.13</time>
<name>171</name>
</trkpt>
<trkpt lat="51.768538" lon="19.487910">
<ele>265.5</ele>
<speed>15.2</speed>
<course>76.6</course>
<desc>Speed 15.2 km/h Distance 0.58 km</desc>
<time>2011-02-13T12:13:14.13</time>
<name>172</name>
</trkpt>
<trkpt lat="51.768547" lon="19.487967">
<ele>265.5</ele>
<speed>15.1</speed>
<course>98.6</course>
<desc>Speed 15.1 km/h Distance 0.59 km</desc>
<time>2011-02-13T12:13:15.14</time>
<name>173</name>
</trkpt>
<trkpt lat="51.768542" lon="19.488020">
<ele>265.5</ele>
<speed>14.3</speed>
<course>96.1</course>
<desc>Speed 14.3 km/h Distance 0.59 km</desc>
<time>2011-02-13T12:13:16.13</time>
<name>174</name>
</trkpt>
<trkpt lat="51.768538" lon="19.488070">
<ele>265.5</ele>
<speed>13.4</speed>
<course>95.3</course>
<desc>Speed 13.4 km/h Distance 0.59 km</desc>
<time>2011-02-13T12:13:17.14</time>
<name>175</name>
</trkpt>
<trkpt lat="51.768535" lon="19.488128">
<ele>265.5</ele>
<speed>15.8</speed>
<course>96.0</course>
<desc>Speed 15.8 km/h Distance 0.60 km</desc>
<time>2011-02-13T12:13:18.13</time>
<name>176</name>
</trkpt>
<trkpt lat="51.768532" lon="19.488180">
<ele>266.0</ele>
<speed>14.0</speed>
<course>84.7</course>
<desc>Speed 14.0 km/h Distance 0.60 km</desc>
<time>2011-02-13T12:13:19.12</time>
<name>177</name>
</trkpt>
<trkpt lat="51.768535" lon="19.488238">
<ele>266.0</ele>
<speed>14.9</speed>
<course>86.8</course>
<desc>Speed 14.9 km/h Distance 0.61 km</desc>
<time>2011-02-13T12:13:20.13</time>
<name>178</name>
</trkpt>
<trkpt lat="51.768537" lon="19.488287">
<ele>266.0</ele>
<speed>12.2</speed>
<course>82.5</course>
<desc>Speed 12.2 km/h Distance 0.61 km</desc>
<time>2011-02-13T12:13:21.13</time>
<name>179</name>
</trkpt>
<trkpt lat="51.768542" lon="19.488348">
<ele>266.0</ele>
<speed>15.5</speed>
<course>70.9</course>
<desc>Speed 15.5 km/h Distance 0.61 km</desc>
<time>2011-02-13T12:13:22.14</time>
<name>180</name>
</trkpt>
<trkpt lat="51.768552" lon="19.488395">
<ele>266.0</ele>
<speed>12.2</speed>
<course>86.9</course>
<desc>Speed 12.2 km/h Distance 0.62 km</desc>
<time>2011-02-13T12:13:23.13</time>
<name>181</name>
</trkpt>
<trkpt lat="51.768553" lon="19.488445">
<ele>266.0</ele>
<speed>12.6</speed>
<course>90.0</course>
<desc>Speed 12.6 km/h Distance 0.62 km</desc>
<time>2011-02-13T12:13:24.13</time>
<name>182</name>
</trkpt>
<trkpt lat="51.768553" lon="19.488495">
<ele>266.0</ele>
<speed>12.8</speed>
<course>90.0</course>
<desc>Speed 12.8 km/h Distance 0.62 km</desc>
<time>2011-02-13T12:13:25.13</time>
<name>183</name>
</trkpt>
<trkpt lat="51.768553" lon="19.488545">
<ele>266.0</ele>
<speed>12.6</speed>
<course>82.9</course>
<desc>Speed 12.6 km/h Distance 0.63 km</desc>
<time>2011-02-13T12:13:26.13</time>
<name>184</name>
</trkpt>
<trkpt lat="51.768557" lon="19.488588">
<ele>266.0</ele>
<speed>11.6</speed>
<course>80.2</course>
<desc>Speed 11.6 km/h Distance 0.63 km</desc>
<time>2011-02-13T12:13:27.13</time>
<name>185</name>
</trkpt>
<trkpt lat="51.768562" lon="19.488635">
<ele>266.0</ele>
<speed>12.1</speed>
<course>90.0</course>
<desc>Speed 12.1 km/h Distance 0.63 km</desc>
<time>2011-02-13T12:13:28.13</time>
<name>186</name>
</trkpt>
<trkpt lat="51.768562" lon="19.488685">
<ele>266.0</ele>
<speed>12.6</speed>
<course>84.4</course>
<desc>Speed 12.6 km/h Distance 0.64 km</desc>
<time>2011-02-13T12:13:29.13</time>
<name>187</name>
</trkpt>
<trkpt lat="51.768565" lon="19.488740">
<ele>266.0</ele>
<speed>15.0</speed>
<course>99.2</course>
<desc>Speed 15.0 km/h Distance 0.64 km</desc>
<time>2011-02-13T12:13:30.13</time>
<name>188</name>
</trkpt>
<trkpt lat="51.768560" lon="19.488790">
<ele>266.0</ele>
<speed>13.4</speed>
<course>98.9</course>
<desc>Speed 13.4 km/h Distance 0.64 km</desc>
<time>2011-02-13T12:13:31.13</time>
<name>189</name>
</trkpt>
<trkpt lat="51.768555" lon="19.488842">
<ele>266.0</ele>
<speed>13.5</speed>
<course>86.8</course>
<desc>Speed 13.5 km/h Distance 0.65 km</desc>
<time>2011-02-13T12:13:32.13</time>
<name>190</name>
</trkpt>
<trkpt lat="51.768557" lon="19.488890">
<ele>266.0</ele>
<speed>13.1</speed>
<course>100.6</course>
<desc>Speed 13.1 km/h Distance 0.65 km</desc>
<time>2011-02-13T12:13:33.13</time>
<name>191</name>
</trkpt>
<trkpt lat="51.768552" lon="19.488933">
<ele>266.0</ele>
<speed>11.7</speed>
<course>95.3</course>
<desc>Speed 11.7 km/h Distance 0.65 km</desc>
<time>2011-02-13T12:13:34.13</time>
<name>192</name>
</trkpt>
<trkpt lat="51.768548" lon="19.488992">
<ele>266.0</ele>
<speed>15.0</speed>
<course>102.6</course>
<desc>Speed 15.0 km/h Distance 0.66 km</desc>
<time>2011-02-13T12:13:35.12</time>
<name>193</name>
</trkpt>
<trkpt lat="51.768542" lon="19.489040">
<ele>266.0</ele>
<speed>12.6</speed>
<course>98.6</course>
<desc>Speed 12.6 km/h Distance 0.66 km</desc>
<time>2011-02-13T12:13:36.13</time>
<name>194</name>
</trkpt>
<trkpt lat="51.768537" lon="19.489093">
<ele>266.0</ele>
<speed>14.0</speed>
<course>95.1</course>
<desc>Speed 14.0 km/h Distance 0.67 km</desc>
<time>2011-02-13T12:13:37.12</time>
<name>195</name>
</trkpt>
<trkpt lat="51.768533" lon="19.489153">
<ele>266.0</ele>
<speed>15.2</speed>
<course>104.6</course>
<desc>Speed 15.2 km/h Distance 0.67 km</desc>
<time>2011-02-13T12:13:38.13</time>
<name>196</name>
</trkpt>
<trkpt lat="51.768525" lon="19.489205">
<ele>266.0</ele>
<speed>13.3</speed>
<course>111.3</course>
<desc>Speed 13.3 km/h Distance 0.67 km</desc>
<time>2011-02-13T12:13:39.13</time>
<name>197</name>
</trkpt>
<trkpt lat="51.768513" lon="19.489253">
<ele>266.0</ele>
<speed>12.7</speed>
<course>95.4</course>
<desc>Speed 12.7 km/h Distance 0.68 km</desc>
<time>2011-02-13T12:13:40.13</time>
<name>198</name>
</trkpt>
<trkpt lat="51.768510" lon="19.489310">
<ele>266.0</ele>
<speed>14.5</speed>
<course>103.8</course>
<desc>Speed 14.5 km/h Distance 0.68 km</desc>
<time>2011-02-13T12:13:41.13</time>
<name>199</name>
</trkpt>
<trkpt lat="51.768502" lon="19.489365">
<ele>266.0</ele>
<speed>14.0</speed>
<course>90.0</course>
<desc>Speed 14.0 km/h Distance 0.68 km</desc>
<time>2011-02-13T12:13:42.14</time>
<name>200</name>
</trkpt>
<trkpt lat="51.768502" lon="19.489425">
<ele>266.0</ele>
<speed>15.4</speed>
<course>98.4</course>
<desc>Speed 15.4 km/h Distance 0.69 km</desc>
<time>2011-02-13T12:13:43.13</time>
<name>201</name>
</trkpt>
<trkpt lat="51.768497" lon="19.489480">
<ele>266.0</ele>
<speed>14.4</speed>
<course>96.4</course>
<desc>Speed 14.4 km/h Distance 0.69 km</desc>
<time>2011-02-13T12:13:44.13</time>
<name>202</name>
</trkpt>
<trkpt lat="51.768493" lon="19.489528">
<ele>266.0</ele>
<speed>12.2</speed>
<course>93.1</course>
<desc>Speed 12.2 km/h Distance 0.70 km</desc>
<time>2011-02-13T12:13:45.13</time>
<name>203</name>
</trkpt>
<trkpt lat="51.768492" lon="19.489578">
<ele>266.0</ele>
<speed>13.0</speed>
<course>114.4</course>
<desc>Speed 13.0 km/h Distance 0.70 km</desc>
<time>2011-02-13T12:13:46.12</time>
<name>204</name>
</trkpt>
<trkpt lat="51.768477" lon="19.489632">
<ele>266.0</ele>
<speed>14.5</speed>
<course>77.4</course>
<desc>Speed 14.5 km/h Distance 0.70 km</desc>
<time>2011-02-13T12:13:47.13</time>
<name>205</name>
</trkpt>
<trkpt lat="51.768483" lon="19.489680">
<ele>266.0</ele>
<speed>13.3</speed>
<course>90.0</course>
<desc>Speed 13.3 km/h Distance 0.71 km</desc>
<time>2011-02-13T12:13:48.13</time>
<name>206</name>
</trkpt>
<trkpt lat="51.768483" lon="19.489738">
<ele>266.0</ele>
<speed>14.7</speed>
<course>90.0</course>
<desc>Speed 14.7 km/h Distance 0.71 km</desc>
<time>2011-02-13T12:13:49.13</time>
<name>207</name>
</trkpt>
<trkpt lat="51.768483" lon="19.489790">
<ele>266.0</ele>
<speed>13.3</speed>
<course>95.8</course>
<desc>Speed 13.3 km/h Distance 0.71 km</desc>
<time>2011-02-13T12:13:50.13</time>
<name>208</name>
</trkpt>
<trkpt lat="51.768480" lon="19.489843">
<ele>266.0</ele>
<speed>13.5</speed>
<course>105.6</course>
<desc>Speed 13.5 km/h Distance 0.72 km</desc>
<time>2011-02-13T12:13:51.12</time>
<name>209</name>
</trkpt>
<trkpt lat="51.768472" lon="19.489892">
<ele>266.0</ele>
<speed>12.9</speed>
<course>111.3</course>
<desc>Speed 12.9 km/h Distance 0.72 km</desc>
<time>2011-02-13T12:13:52.13</time>
<name>210</name>
</trkpt>
<trkpt lat="51.768460" lon="19.489940">
<ele>266.0</ele>
<speed>12.9</speed>
<course>100.2</course>
<desc>Speed 12.9 km/h Distance 0.72 km</desc>
<time>2011-02-13T12:13:53.12</time>
<name>211</name>
</trkpt>
<trkpt lat="51.768455" lon="19.489985">
<ele>266.0</ele>
<speed>12.4</speed>
<course>109.5</course>
<desc>Speed 12.4 km/h Distance 0.73 km</desc>
<time>2011-02-13T12:13:54.13</time>
<name>212</name>
</trkpt>
<trkpt lat="51.768443" lon="19.490038">
<ele>266.0</ele>
<speed>14.2</speed>
<course>112.0</course>
<desc>Speed 14.2 km/h Distance 0.73 km</desc>
<time>2011-02-13T12:13:55.13</time>
<name>213</name>
</trkpt>
<trkpt lat="51.768430" lon="19.490092">
<ele>266.0</ele>
<speed>14.8</speed>
<course>105.6</course>
<desc>Speed 14.8 km/h Distance 0.74 km</desc>
<time>2011-02-13T12:13:56.13</time>
<name>214</name>
</trkpt>
<trkpt lat="51.768422" lon="19.490140">
<ele>266.0</ele>
<speed>13.1</speed>
<course>93.1</course>
<desc>Speed 13.1 km/h Distance 0.74 km</desc>
<time>2011-02-13T12:13:57.12</time>
<name>215</name>
</trkpt>
<trkpt lat="51.768420" lon="19.490190">
<ele>266.0</ele>
<speed>13.6</speed>
<course>103.5</course>
<desc>Speed 13.6 km/h Distance 0.74 km</desc>
<time>2011-02-13T12:13:58.13</time>
<name>216</name>
</trkpt>
<trkpt lat="51.768413" lon="19.490235">
<ele>266.0</ele>
<speed>12.3</speed>
<course>108.5</course>
<desc>Speed 12.3 km/h Distance 0.75 km</desc>
<time>2011-02-13T12:13:59.13</time>
<name>217</name>
</trkpt>
<trkpt lat="51.768403" lon="19.490283">
<ele>265.5</ele>
<speed>13.2</speed>
<course>100.6</course>
<desc>Speed 13.2 km/h Distance 0.75 km</desc>
<time>2011-02-13T12:14:00.12</time>
<name>218</name>
</trkpt>
<trkpt lat="51.768398" lon="19.490327">
<ele>265.5</ele>
<speed>11.6</speed>
<course>86.4</course>
<desc>Speed 11.6 km/h Distance 0.75 km</desc>
<time>2011-02-13T12:14:01.12</time>
<name>219</name>
</trkpt>
<trkpt lat="51.768400" lon="19.490370">
<ele>265.5</ele>
<speed>11.7</speed>
<course>101.8</course>
<desc>Speed 11.7 km/h Distance 0.76 km</desc>
<time>2011-02-13T12:14:02.12</time>
<name>220</name>
</trkpt>
<trkpt lat="51.768393" lon="19.490422">
<ele>265.5</ele>
<speed>13.7</speed>
<course>102.6</course>
<desc>Speed 13.7 km/h Distance 0.76 km</desc>
<time>2011-02-13T12:14:03.12</time>
<name>221</name>
</trkpt>
<trkpt lat="51.768387" lon="19.490470">
<ele>265.5</ele>
<speed>13.1</speed>
<course>103.5</course>
<desc>Speed 13.1 km/h Distance 0.76 km</desc>
<time>2011-02-13T12:14:04.12</time>
<name>222</name>
</trkpt>
<trkpt lat="51.768380" lon="19.490515">
<ele>265.5</ele>
<speed>12.0</speed>
<course>101.8</course>
<desc>Speed 12.0 km/h Distance 0.77 km</desc>
<time>2011-02-13T12:14:05.13</time>
<name>223</name>
</trkpt>
<trkpt lat="51.768373" lon="19.490567">
<ele>265.5</ele>
<speed>13.7</speed>
<course>93.2</course>
<desc>Speed 13.7 km/h Distance 0.77 km</desc>
<time>2011-02-13T12:14:06.12</time>
<name>224</name>
</trkpt>
<trkpt lat="51.768372" lon="19.490615">
<ele>265.5</ele>
<speed>12.3</speed>
<course>84.6</course>
<desc>Speed 12.3 km/h Distance 0.77 km</desc>
<time>2011-02-13T12:14:07.13</time>
<name>225</name>
</trkpt>
<trkpt lat="51.768375" lon="19.490672">
<ele>265.5</ele>
<speed>14.4</speed>
<course>102.4</course>
<desc>Speed 14.4 km/h Distance 0.78 km</desc>
<time>2011-02-13T12:14:08.13</time>
<name>226</name>
</trkpt>
<trkpt lat="51.768370" lon="19.490708">
<ele>265.5</ele>
<speed>9.8</speed>
<course>92.7</course>
<desc>Speed 9.8 km/h Distance 0.78 km</desc>
<time>2011-02-13T12:14:09.12</time>
<name>227</name>
</trkpt>
<trkpt lat="51.768368" lon="19.490765">
<ele>265.5</ele>
<speed>14.4</speed>
<course>93.2</course>
<desc>Speed 14.4 km/h Distance 0.78 km</desc>
<time>2011-02-13T12:14:10.13</time>
<name>228</name>
</trkpt>
<trkpt lat="51.768367" lon="19.490813">
<ele>265.5</ele>
<speed>12.2</speed>
<course>84.6</course>
<desc>Speed 12.2 km/h Distance 0.79 km</desc>
<time>2011-02-13T12:14:11.12</time>
<name>229</name>
</trkpt>
<trkpt lat="51.768370" lon="19.490870">
<ele>265.5</ele>
<speed>14.6</speed>
<course>93.6</course>
<desc>Speed 14.6 km/h Distance 0.79 km</desc>
<time>2011-02-13T12:14:12.12</time>
<name>230</name>
</trkpt>
<trkpt lat="51.768368" lon="19.490913">
<ele>265.5</ele>
<speed>11.5</speed>
<course>90.0</course>
<desc>Speed 11.5 km/h Distance 0.79 km</desc>
<time>2011-02-13T12:14:13.12</time>
<name>231</name>
</trkpt>
<trkpt lat="51.768368" lon="19.490960">
<ele>265.5</ele>
<speed>12.4</speed>
<course>93.7</course>
<desc>Speed 12.4 km/h Distance 0.80 km</desc>
<time>2011-02-13T12:14:14.12</time>
<name>232</name>
</trkpt>
<trkpt lat="51.768367" lon="19.491002">
<ele>265.5</ele>
<speed>11.3</speed>
<course>92.7</course>
<desc>Speed 11.3 km/h Distance 0.80 km</desc>
<time>2011-02-13T12:14:15.12</time>
<name>233</name>
</trkpt>
<trkpt lat="51.768365" lon="19.491058">
<ele>265.5</ele>
<speed>14.5</speed>
<course>121.9</course>
<desc>Speed 14.5 km/h Distance 0.80 km</desc>
<time>2011-02-13T12:14:16.12</time>
<name>234</name>
</trkpt>
<trkpt lat="51.768348" lon="19.491102">
<ele>265.5</ele>
<speed>12.8</speed>
<course>93.2</course>
<desc>Speed 12.8 km/h Distance 0.81 km</desc>
<time>2011-02-13T12:14:17.13</time>
<name>235</name>
</trkpt>
<trkpt lat="51.768347" lon="19.491150">
<ele>265.5</ele>
<speed>12.9</speed>
<course>92.8</course>
<desc>Speed 12.9 km/h Distance 0.81 km</desc>
<time>2011-02-13T12:14:18.12</time>
<name>236</name>
</trkpt>
<trkpt lat="51.768345" lon="19.491205">
<ele>265.5</ele>
<speed>13.8</speed>
<course>98.6</course>
<desc>Speed 13.8 km/h Distance 0.81 km</desc>
<time>2011-02-13T12:14:19.12</time>
<name>237</name>
</trkpt>
<trkpt lat="51.768340" lon="19.491258">
<ele>265.5</ele>
<speed>13.9</speed>
<course>97.3</course>
<desc>Speed 13.9 km/h Distance 0.82 km</desc>
<time>2011-02-13T12:14:20.12</time>
<name>238</name>
</trkpt>
<trkpt lat="51.768335" lon="19.491322">
<ele>265.5</ele>
<speed>16.1</speed>
<course>107.9</course>
<desc>Speed 16.1 km/h Distance 0.82 km</desc>
<time>2011-02-13T12:14:21.12</time>
<name>239</name>
</trkpt>
<trkpt lat="51.768323" lon="19.491380">
<ele>265.5</ele>
<speed>15.8</speed>
<course>83.2</course>
<desc>Speed 15.8 km/h Distance 0.83 km</desc>
<time>2011-02-13T12:14:22.12</time>
<name>240</name>
</trkpt>
<trkpt lat="51.768327" lon="19.491425">
<ele>265.5</ele>
<speed>12.2</speed>
<course>99.2</course>
<desc>Speed 12.2 km/h Distance 0.83 km</desc>
<time>2011-02-13T12:14:23.13</time>
<name>241</name>
</trkpt>
<trkpt lat="51.768322" lon="19.491475">
<ele>265.5</ele>
<speed>12.7</speed>
<course>103.0</course>
<desc>Speed 12.7 km/h Distance 0.83 km</desc>
<time>2011-02-13T12:14:24.12</time>
<name>242</name>
</trkpt>
<trkpt lat="51.768315" lon="19.491522">
<ele>266.0</ele>
<speed>12.1</speed>
<course>106.1</course>
<desc>Speed 12.1 km/h Distance 0.84 km</desc>
<time>2011-02-13T12:14:25.12</time>
<name>243</name>
</trkpt>
<trkpt lat="51.768307" lon="19.491568">
<ele>266.0</ele>
<speed>12.5</speed>
<course>108.5</course>
<desc>Speed 12.5 km/h Distance 0.84 km</desc>
<time>2011-02-13T12:14:26.12</time>
<name>244</name>
</trkpt>
<trkpt lat="51.768297" lon="19.491617">
<ele>266.0</ele>
<speed>13.4</speed>
<course>101.4</course>
<desc>Speed 13.4 km/h Distance 0.84 km</desc>
<time>2011-02-13T12:14:27.12</time>
<name>245</name>
</trkpt>
<trkpt lat="51.768290" lon="19.491670">
<ele>266.0</ele>
<speed>14.0</speed>
<course>101.4</course>
<desc>Speed 14.0 km/h Distance 0.85 km</desc>
<time>2011-02-13T12:14:28.12</time>
<name>246</name>
</trkpt>
<trkpt lat="51.768283" lon="19.491723">
<ele>266.0</ele>
<speed>14.6</speed>
<course>103.5</course>
<desc>Speed 14.6 km/h Distance 0.85 km</desc>
<time>2011-02-13T12:14:29.13</time>
<name>247</name>
</trkpt>
<trkpt lat="51.768277" lon="19.491768">
<ele>266.0</ele>
<speed>11.6</speed>
<course>100.2</course>
<desc>Speed 11.6 km/h Distance 0.85 km</desc>
<time>2011-02-13T12:14:30.12</time>
<name>248</name>
</trkpt>
<trkpt lat="51.768270" lon="19.491828">
<ele>266.0</ele>
<speed>15.1</speed>
<course>97.1</course>
<desc>Speed 15.1 km/h Distance 0.86 km</desc>
<time>2011-02-13T12:14:31.12</time>
<name>249</name>
</trkpt>
<trkpt lat="51.768265" lon="19.491893">
<ele>266.0</ele>
<speed>16.7</speed>
<course>96.1</course>
<desc>Speed 16.7 km/h Distance 0.86 km</desc>
<time>2011-02-13T12:14:32.12</time>
<name>250</name>
</trkpt>
<trkpt lat="51.768262" lon="19.491943">
<ele>266.0</ele>
<speed>13.1</speed>
<course>104.6</course>
<desc>Speed 13.1 km/h Distance 0.87 km</desc>
<time>2011-02-13T12:14:33.12</time>
<name>251</name>
</trkpt>
<trkpt lat="51.768253" lon="19.491995">
<ele>266.0</ele>
<speed>13.7</speed>
<course>98.6</course>
<desc>Speed 13.7 km/h Distance 0.87 km</desc>
<time>2011-02-13T12:14:34.12</time>
<name>252</name>
</trkpt>
<trkpt lat="51.768248" lon="19.492048">
<ele>266.0</ele>
<speed>14.0</speed>
<course>87.1</course>
<desc>Speed 14.0 km/h Distance 0.87 km</desc>
<time>2011-02-13T12:14:35.12</time>
<name>253</name>
</trkpt>
<trkpt lat="51.768250" lon="19.492102">
<ele>266.0</ele>
<speed>14.4</speed>
<course>86.6</course>
<desc>Speed 14.4 km/h Distance 0.88 km</desc>
<time>2011-02-13T12:14:36.12</time>
<name>254</name>
</trkpt>
<trkpt lat="51.768252" lon="19.492147">
<ele>266.0</ele>
<speed>12.0</speed>
<course>93.2</course>
<desc>Speed 12.0 km/h Distance 0.88 km</desc>
<time>2011-02-13T12:14:37.12</time>
<name>255</name>
</trkpt>
<trkpt lat="51.768250" lon="19.492195">
<ele>266.0</ele>
<speed>12.6</speed>
<course>95.4</course>
<desc>Speed 12.6 km/h Distance 0.88 km</desc>
<time>2011-02-13T12:14:38.12</time>
<name>256</name>
</trkpt>
<trkpt lat="51.768247" lon="19.492252">
<ele>266.0</ele>
<speed>14.4</speed>
<course>96.4</course>
<desc>Speed 14.4 km/h Distance 0.89 km</desc>
<time>2011-02-13T12:14:39.12</time>
<name>257</name>
</trkpt>
<trkpt lat="51.768243" lon="19.492300">
<ele>266.0</ele>
<speed>12.7</speed>
<course>99.5</course>
<desc>Speed 12.7 km/h Distance 0.89 km</desc>
<time>2011-02-13T12:14:40.12</time>
<name>258</name>
</trkpt>
<trkpt lat="51.768238" lon="19.492348">
<ele>266.0</ele>
<speed>13.2</speed>
<course>93.3</course>
<desc>Speed 13.2 km/h Distance 0.89 km</desc>
<time>2011-02-13T12:14:41.12</time>
<name>259</name>
</trkpt>
<trkpt lat="51.768237" lon="19.492395">
<ele>266.0</ele>
<speed>12.7</speed>
<course>107.9</course>
<desc>Speed 12.7 km/h Distance 0.90 km</desc>
<time>2011-02-13T12:14:42.12</time>
<name>260</name>
</trkpt>
<trkpt lat="51.768228" lon="19.492437">
<ele>266.0</ele>
<speed>12.2</speed>
<course>112.0</course>
<desc>Speed 12.2 km/h Distance 0.90 km</desc>
<time>2011-02-13T12:14:43.13</time>
<name>261</name>
</trkpt>
<trkpt lat="51.768218" lon="19.492477">
<ele>266.0</ele>
<speed>12.4</speed>
<course>110.1</course>
<desc>Speed 12.4 km/h Distance 0.90 km</desc>
<time>2011-02-13T12:14:44.12</time>
<name>262</name>
</trkpt>
<trkpt lat="51.768207" lon="19.492528">
<ele>266.0</ele>
<speed>13.6</speed>
<course>105.1</course>
<desc>Speed 13.6 km/h Distance 0.91 km</desc>
<time>2011-02-13T12:14:45.12</time>
<name>263</name>
</trkpt>
<trkpt lat="51.768198" lon="19.492578">
<ele>266.0</ele>
<speed>13.2</speed>
<course>106.7</course>
<desc>Speed 13.2 km/h Distance 0.91 km</desc>
<time>2011-02-13T12:14:46.12</time>
<name>264</name>
</trkpt>
<trkpt lat="51.768190" lon="19.492623">
<ele>266.0</ele>
<speed>12.2</speed>
<course>87.0</course>
<desc>Speed 12.2 km/h Distance 0.91 km</desc>
<time>2011-02-13T12:14:47.12</time>
<name>265</name>
</trkpt>
<trkpt lat="51.768192" lon="19.492675">
<ele>266.0</ele>
<speed>13.4</speed>
<course>112.9</course>
<desc>Speed 13.4 km/h Distance 0.92 km</desc>
<time>2011-02-13T12:14:48.12</time>
<name>266</name>
</trkpt>
<trkpt lat="51.768182" lon="19.492713">
<ele>266.0</ele>
<speed>10.8</speed>
<course>86.4</course>
<desc>Speed 10.8 km/h Distance 0.92 km</desc>
<time>2011-02-13T12:14:49.11</time>
<name>267</name>
</trkpt>
<trkpt lat="51.768183" lon="19.492757">
<ele>266.0</ele>
<speed>10.9</speed>
<course>86.9</course>
<desc>Speed 10.9 km/h Distance 0.92 km</desc>
<time>2011-02-13T12:14:50.12</time>
<name>268</name>
</trkpt>
<trkpt lat="51.768185" lon="19.492807">
<ele>266.0</ele>
<speed>12.9</speed>
<course>99.2</course>
<desc>Speed 12.9 km/h Distance 0.93 km</desc>
<time>2011-02-13T12:14:51.12</time>
<name>269</name>
</trkpt>
<trkpt lat="51.768182" lon="19.492840">
<ele>266.0</ele>
<speed>9.1</speed>
<course>96.6</course>
<desc>Speed 9.1 km/h Distance 0.93 km</desc>
<time>2011-02-13T12:14:52.12</time>
<name>270</name>
</trkpt>
<trkpt lat="51.768178" lon="19.492887">
<ele>266.0</ele>
<speed>12.4</speed>
<course>96.4</course>
<desc>Speed 12.4 km/h Distance 0.93 km</desc>
<time>2011-02-13T12:14:53.11</time>
<name>271</name>
</trkpt>
<trkpt lat="51.768175" lon="19.492935">
<ele>266.0</ele>
<speed>12.5</speed>
<course>98.6</course>
<desc>Speed 12.5 km/h Distance 0.94 km</desc>
<time>2011-02-13T12:14:54.12</time>
<name>272</name>
</trkpt>
<trkpt lat="51.768170" lon="19.492988">
<ele>266.0</ele>
<speed>14.0</speed>
<course>95.4</course>
<desc>Speed 14.0 km/h Distance 0.94 km</desc>
<time>2011-02-13T12:14:55.12</time>
<name>273</name>
</trkpt>
<trkpt lat="51.768167" lon="19.493045">
<ele>266.0</ele>
<speed>14.3</speed>
<course>98.9</course>
<desc>Speed 14.3 km/h Distance 0.94 km</desc>
<time>2011-02-13T12:14:56.12</time>
<name>274</name>
</trkpt>
<trkpt lat="51.768162" lon="19.493097">
<ele>266.0</ele>
<speed>13.3</speed>
<course>97.4</course>
<desc>Speed 13.3 km/h Distance 0.95 km</desc>
<time>2011-02-13T12:14:57.12</time>
<name>275</name>
</trkpt>
<trkpt lat="51.768158" lon="19.493138">
<ele>266.0</ele>
<speed>11.3</speed>
<course>80.5</course>
<desc>Speed 11.3 km/h Distance 0.95 km</desc>
<time>2011-02-13T12:14:58.12</time>
<name>276</name>
</trkpt>
<trkpt lat="51.768163" lon="19.493187">
<ele>266.0</ele>
<speed>12.7</speed>
<course>82.9</course>
<desc>Speed 12.7 km/h Distance 0.95 km</desc>
<time>2011-02-13T12:14:59.12</time>
<name>277</name>
</trkpt>
<trkpt lat="51.768167" lon="19.493230">
<ele>266.0</ele>
<speed>11.1</speed>
<course>93.1</course>
<desc>Speed 11.1 km/h Distance 0.96 km</desc>
<time>2011-02-13T12:15:00.13</time>
<name>278</name>
</trkpt>
<trkpt lat="51.768165" lon="19.493280">
<ele>266.5</ele>
<speed>13.9</speed>
<course>96.6</course>
<desc>Speed 13.9 km/h Distance 0.96 km</desc>
<time>2011-02-13T12:15:01.12</time>
<name>279</name>
</trkpt>
<trkpt lat="51.768162" lon="19.493327">
<ele>266.5</ele>
<speed>12.9</speed>
<course>93.4</course>
<desc>Speed 12.9 km/h Distance 0.96 km</desc>
<time>2011-02-13T12:15:02.12</time>
<name>280</name>
</trkpt>
<trkpt lat="51.768160" lon="19.493372">
<ele>266.5</ele>
<speed>11.6</speed>
<course>86.0</course>
<desc>Speed 11.6 km/h Distance 0.97 km</desc>
<time>2011-02-13T12:15:03.12</time>
<name>281</name>
</trkpt>
<trkpt lat="51.768162" lon="19.493410">
<ele>266.5</ele>
<speed>10.4</speed>
<course>103.5</course>
<desc>Speed 10.4 km/h Distance 0.97 km</desc>
<time>2011-02-13T12:15:04.12</time>
<name>282</name>
</trkpt>
<trkpt lat="51.768155" lon="19.493455">
<ele>266.5</ele>
<speed>12.3</speed>
<course>105.6</course>
<desc>Speed 12.3 km/h Distance 0.97 km</desc>
<time>2011-02-13T12:15:05.12</time>
<name>283</name>
</trkpt>
<trkpt lat="51.768147" lon="19.493503">
<ele>266.5</ele>
<speed>13.8</speed>
<course>92.9</course>
<desc>Speed 13.8 km/h Distance 0.98 km</desc>
<time>2011-02-13T12:15:06.12</time>
<name>284</name>
</trkpt>
<trkpt lat="51.768145" lon="19.493557">
<ele>266.5</ele>
<speed>13.8</speed>
<course>96.4</course>
<desc>Speed 13.8 km/h Distance 0.98 km</desc>
<time>2011-02-13T12:15:07.12</time>
<name>285</name>
</trkpt>
<trkpt lat="51.768142" lon="19.493605">
<ele>266.5</ele>
<speed>12.2</speed>
<course>78.9</course>
<desc>Speed 12.2 km/h Distance 0.98 km</desc>
<time>2011-02-13T12:15:08.12</time>
<name>286</name>
</trkpt>
<trkpt lat="51.768148" lon="19.493660">
<ele>266.5</ele>
<speed>14.7</speed>
<course>79.4</course>
<desc>Speed 14.7 km/h Distance 0.99 km</desc>
<time>2011-02-13T12:15:09.12</time>
<name>287</name>
</trkpt>
<trkpt lat="51.768153" lon="19.493703">
<ele>266.5</ele>
<speed>11.8</speed>
<course>93.6</course>
<desc>Speed 11.8 km/h Distance 0.99 km</desc>
<time>2011-02-13T12:15:10.12</time>
<name>288</name>
</trkpt>
<trkpt lat="51.768152" lon="19.493747">
<ele>266.5</ele>
<speed>11.6</speed>
<course>105.1</course>
<desc>Speed 11.6 km/h Distance 0.99 km</desc>
<time>2011-02-13T12:15:11.12</time>
<name>289</name>
</trkpt>
<trkpt lat="51.768145" lon="19.493787">
<ele>266.5</ele>
<speed>10.7</speed>
<course>93.2</course>
<desc>Speed 10.7 km/h Distance 1.00 km</desc>
<time>2011-02-13T12:15:12.12</time>
<name>290</name>
</trkpt>
<trkpt lat="51.768143" lon="19.493835">
<ele>266.5</ele>
<speed>12.7</speed>
<course>100.2</course>
<desc>Speed 12.7 km/h Distance 1.00 km</desc>
<time>2011-02-13T12:15:13.12</time>
<name>291</name>
</trkpt>
<trkpt lat="51.768138" lon="19.493880">
<ele>266.5</ele>
<speed>11.7</speed>
<course>102.2</course>
<desc>Speed 11.7 km/h Distance 1.00 km</desc>
<time>2011-02-13T12:15:14.13</time>
<name>292</name>
</trkpt>
<trkpt lat="51.768132" lon="19.493930">
<ele>266.5</ele>
<speed>13.6</speed>
<course>101.8</course>
<desc>Speed 13.6 km/h Distance 1.01 km</desc>
<time>2011-02-13T12:15:15.12</time>
<name>293</name>
</trkpt>
<trkpt lat="51.768125" lon="19.493982">
<ele>266.5</ele>
<speed>13.6</speed>
<course>100.8</course>
<desc>Speed 13.6 km/h Distance 1.01 km</desc>
<time>2011-02-13T12:15:16.12</time>
<name>294</name>
</trkpt>
<trkpt lat="51.768118" lon="19.494038">
<ele>266.5</ele>
<speed>14.7</speed>
<course>100.5</course>
<desc>Speed 14.7 km/h Distance 1.01 km</desc>
<time>2011-02-13T12:15:17.12</time>
<name>295</name>
</trkpt>
<trkpt lat="51.768112" lon="19.494097">
<ele>266.5</ele>
<speed>14.9</speed>
<course>90.0</course>
<desc>Speed 14.9 km/h Distance 1.02 km</desc>
<time>2011-02-13T12:15:18.12</time>
<name>296</name>
</trkpt>
<trkpt lat="51.768112" lon="19.494153">
<ele>266.5</ele>
<speed>15.3</speed>
<course>112.9</course>
<desc>Speed 15.3 km/h Distance 1.02 km</desc>
<time>2011-02-13T12:15:19.12</time>
<name>297</name>
</trkpt>
<trkpt lat="51.768102" lon="19.494192">
<ele>266.5</ele>
<speed>10.3</speed>
<course>97.7</course>
<desc>Speed 10.3 km/h Distance 1.02 km</desc>
<time>2011-02-13T12:15:20.12</time>
<name>298</name>
</trkpt>
<trkpt lat="51.768098" lon="19.494232">
<ele>266.5</ele>
<speed>10.4</speed>
<course>104.0</course>
<desc>Speed 10.4 km/h Distance 1.03 km</desc>
<time>2011-02-13T12:15:21.12</time>
<name>299</name>
</trkpt>
<trkpt lat="51.768092" lon="19.494275">
<ele>266.5</ele>
<speed>11.3</speed>
<course>100.6</course>
<desc>Speed 11.3 km/h Distance 1.03 km</desc>
<time>2011-02-13T12:15:22.12</time>
<name>300</name>
</trkpt>
<trkpt lat="51.768087" lon="19.494318">
<ele>266.5</ele>
<speed>11.9</speed>
<course>101.4</course>
<desc>Speed 11.9 km/h Distance 1.03 km</desc>
<time>2011-02-13T12:15:23.13</time>
<name>301</name>
</trkpt>
<trkpt lat="51.768082" lon="19.494358">
<ele>266.5</ele>
<speed>10.9</speed>
<course>96.8</course>
<desc>Speed 10.9 km/h Distance 1.04 km</desc>
<time>2011-02-13T12:15:24.12</time>
<name>302</name>
</trkpt>
<trkpt lat="51.768078" lon="19.494403">
<ele>266.5</ele>
<speed>11.5</speed>
<course>101.4</course>
<desc>Speed 11.5 km/h Distance 1.04 km</desc>
<time>2011-02-13T12:15:25.11</time>
<name>303</name>
</trkpt>
<trkpt lat="51.768075" lon="19.494430">
<ele>266.5</ele>
<speed>7.4</speed>
<course>110.2</course>
<desc>Speed 7.4 km/h Distance 1.04 km</desc>
<time>2011-02-13T12:15:26.11</time>
<name>304</name>
</trkpt>
<trkpt lat="51.768067" lon="19.494467">
<ele>266.5</ele>
<speed>10.4</speed>
<course>94.0</course>
<desc>Speed 10.4 km/h Distance 1.04 km</desc>
<time>2011-02-13T12:15:27.11</time>
<name>305</name>
</trkpt>
<trkpt lat="51.768065" lon="19.494505">
<ele>266.5</ele>
<speed>10.0</speed>
<course>107.1</course>
<desc>Speed 10.0 km/h Distance 1.05 km</desc>
<time>2011-02-13T12:15:28.11</time>
<name>306</name>
</trkpt>
<trkpt lat="51.768058" lon="19.494540">
<ele>266.5</ele>
<speed>9.9</speed>
<course>101.4</course>
<desc>Speed 9.9 km/h Distance 1.05 km</desc>
<time>2011-02-13T12:15:29.11</time>
<name>307</name>
</trkpt>
<trkpt lat="51.768053" lon="19.494580">
<ele>266.5</ele>
<speed>10.6</speed>
<course>103.5</course>
<desc>Speed 10.6 km/h Distance 1.05 km</desc>
<time>2011-02-13T12:15:30.12</time>
<name>308</name>
</trkpt>
<trkpt lat="51.768047" lon="19.494625">
<ele>266.5</ele>
<speed>11.8</speed>
<course>96.6</course>
<desc>Speed 11.8 km/h Distance 1.05 km</desc>
<time>2011-02-13T12:15:31.12</time>
<name>309</name>
</trkpt>
<trkpt lat="51.768043" lon="19.494672">
<ele>266.5</ele>
<speed>11.7</speed>
<course>46.2</course>
<desc>Speed 11.7 km/h Distance 1.06 km</desc>
<time>2011-02-13T12:15:32.12</time>
<name>310</name>
</trkpt>
<trkpt lat="51.768075" lon="19.494725">
<ele>266.5</ele>
<speed>18.1</speed>
<course>79.8</course>
<desc>Speed 18.1 km/h Distance 1.06 km</desc>
<time>2011-02-13T12:15:33.12</time>
<name>311</name>
</trkpt>
<trkpt lat="51.768080" lon="19.494770">
<ele>266.5</ele>
<speed>12.0</speed>
<course>86.4</course>
<desc>Speed 12.0 km/h Distance 1.07 km</desc>
<time>2011-02-13T12:15:34.12</time>
<name>312</name>
</trkpt>
<trkpt lat="51.768082" lon="19.494813">
<ele>266.5</ele>
<speed>11.1</speed>
<course>122.9</course>
<desc>Speed 11.1 km/h Distance 1.07 km</desc>
<time>2011-02-13T12:15:35.12</time>
<name>313</name>
</trkpt>
<trkpt lat="51.768068" lon="19.494847">
<ele>266.5</ele>
<speed>10.4</speed>
<course>101.1</course>
<desc>Speed 10.4 km/h Distance 1.07 km</desc>
<time>2011-02-13T12:15:36.12</time>
<name>314</name>
</trkpt>
<trkpt lat="51.768062" lon="19.494902">
<ele>266.5</ele>
<speed>13.8</speed>
<course>104.6</course>
<desc>Speed 13.8 km/h Distance 1.08 km</desc>
<time>2011-02-13T12:15:37.12</time>
<name>315</name>
</trkpt>
<trkpt lat="51.768053" lon="19.494953">
<ele>266.5</ele>
<speed>13.7</speed>
<course>95.4</course>
<desc>Speed 13.7 km/h Distance 1.08 km</desc>
<time>2011-02-13T12:15:38.12</time>
<name>316</name>
</trkpt>
<trkpt lat="51.768050" lon="19.495010">
<ele>266.5</ele>
<speed>13.9</speed>
<course>93.7</course>
<desc>Speed 13.9 km/h Distance 1.08 km</desc>
<time>2011-02-13T12:15:39.12</time>
<name>317</name>
</trkpt>
<trkpt lat="51.768048" lon="19.495052">
<ele>266.5</ele>
<speed>10.7</speed>
<course>96.4</course>
<desc>Speed 10.7 km/h Distance 1.09 km</desc>
<time>2011-02-13T12:15:40.11</time>
<name>318</name>
</trkpt>
<trkpt lat="51.768045" lon="19.495100">
<ele>266.5</ele>
<speed>12.2</speed>
<course>83.2</course>
<desc>Speed 12.2 km/h Distance 1.09 km</desc>
<time>2011-02-13T12:15:41.11</time>
<name>319</name>
</trkpt>
<trkpt lat="51.768048" lon="19.495145">
<ele>266.5</ele>
<speed>10.8</speed>
<course>86.8</course>
<desc>Speed 10.8 km/h Distance 1.09 km</desc>
<time>2011-02-13T12:15:42.12</time>
<name>320</name>
</trkpt>
<trkpt lat="51.768050" lon="19.495193">
<ele>266.5</ele>
<speed>12.7</speed>
<course>105.1</course>
<desc>Speed 12.7 km/h Distance 1.10 km</desc>
<time>2011-02-13T12:15:43.13</time>
<name>321</name>
</trkpt>
<trkpt lat="51.768042" lon="19.495243">
<ele>266.5</ele>
<speed>12.9</speed>
<course>90.0</course>
<desc>Speed 12.9 km/h Distance 1.10 km</desc>
<time>2011-02-13T12:15:44.11</time>
<name>322</name>
</trkpt>
<trkpt lat="51.768042" lon="19.495297">
<ele>267.0</ele>
<speed>13.1</speed>
<course>93.3</course>
<desc>Speed 13.1 km/h Distance 1.10 km</desc>
<time>2011-02-13T12:15:45.12</time>
<name>323</name>
</trkpt>
<trkpt lat="51.768040" lon="19.495343">
<ele>267.0</ele>
<speed>11.4</speed>
<course>90.0</course>
<desc>Speed 11.4 km/h Distance 1.11 km</desc>
<time>2011-02-13T12:15:46.11</time>
<name>324</name>
</trkpt>
<trkpt lat="51.768040" lon="19.495392">
<ele>267.0</ele>
<speed>12.6</speed>
<course>90.0</course>
<desc>Speed 12.6 km/h Distance 1.11 km</desc>
<time>2011-02-13T12:15:47.11</time>
<name>325</name>
</trkpt>
<trkpt lat="51.768040" lon="19.495433">
<ele>267.0</ele>
<speed>10.9</speed>
<course>93.0</course>
<desc>Speed 10.9 km/h Distance 1.11 km</desc>
<time>2011-02-13T12:15:48.11</time>
<name>326</name>
</trkpt>
<trkpt lat="51.768038" lon="19.495485">
<ele>267.0</ele>
<speed>13.2</speed>
<course>84.0</course>
<desc>Speed 13.2 km/h Distance 1.12 km</desc>
<time>2011-02-13T12:15:49.13</time>
<name>327</name>
</trkpt>
<trkpt lat="51.768042" lon="19.495537">
<ele>267.0</ele>
<speed>12.7</speed>
<course>92.8</course>
<desc>Speed 12.7 km/h Distance 1.12 km</desc>
<time>2011-02-13T12:15:50.11</time>
<name>328</name>
</trkpt>
<trkpt lat="51.768040" lon="19.495592">
<ele>267.0</ele>
<speed>13.9</speed>
<course>83.4</course>
<desc>Speed 13.9 km/h Distance 1.12 km</desc>
<time>2011-02-13T12:15:51.11</time>
<name>329</name>
</trkpt>
<trkpt lat="51.768043" lon="19.495638">
<ele>267.0</ele>
<speed>12.6</speed>
<course>93.0</course>
<desc>Speed 12.6 km/h Distance 1.13 km</desc>
<time>2011-02-13T12:15:52.12</time>
<name>330</name>
</trkpt>
<trkpt lat="51.768042" lon="19.495690">
<ele>267.0</ele>
<speed>13.3</speed>
<course>112.0</course>
<desc>Speed 13.3 km/h Distance 1.13 km</desc>
<time>2011-02-13T12:15:53.12</time>
<name>331</name>
</trkpt>
<trkpt lat="51.768032" lon="19.495730">
<ele>267.0</ele>
<speed>11.2</speed>
<course>101.8</course>
<desc>Speed 11.2 km/h Distance 1.13 km</desc>
<time>2011-02-13T12:15:54.11</time>
<name>332</name>
</trkpt>
<trkpt lat="51.768025" lon="19.495782">
<ele>267.0</ele>
<speed>14.0</speed>
<course>96.6</course>
<desc>Speed 14.0 km/h Distance 1.14 km</desc>
<time>2011-02-13T12:15:55.12</time>
<name>333</name>
</trkpt>
<trkpt lat="51.768022" lon="19.495828">
<ele>267.0</ele>
<speed>12.2</speed>
<course>104.0</course>
<desc>Speed 12.2 km/h Distance 1.14 km</desc>
<time>2011-02-13T12:15:56.11</time>
<name>334</name>
</trkpt>
<trkpt lat="51.768015" lon="19.495872">
<ele>267.0</ele>
<speed>11.4</speed>
<course>101.1</course>
<desc>Speed 11.4 km/h Distance 1.14 km</desc>
<time>2011-02-13T12:15:57.12</time>
<name>335</name>
</trkpt>
<trkpt lat="51.768008" lon="19.495927">
<ele>267.0</ele>
<speed>13.9</speed>
<course>99.5</course>
<desc>Speed 13.9 km/h Distance 1.15 km</desc>
<time>2011-02-13T12:15:58.12</time>
<name>336</name>
</trkpt>
<trkpt lat="51.768003" lon="19.495975">
<ele>267.0</ele>
<speed>12.7</speed>
<course>98.4</course>
<desc>Speed 12.7 km/h Distance 1.15 km</desc>
<time>2011-02-13T12:15:59.11</time>
<name>337</name>
</trkpt>
<trkpt lat="51.768000" lon="19.496012">
<ele>267.0</ele>
<speed>9.2</speed>
<course>103.0</course>
<desc>Speed 9.2 km/h Distance 1.15 km</desc>
<time>2011-02-13T12:16:00.10</time>
<name>338</name>
</trkpt>
<trkpt lat="51.767995" lon="19.496047">
<ele>267.0</ele>
<speed>9.1</speed>
<course>93.9</course>
<desc>Speed 9.1 km/h Distance 1.16 km</desc>
<time>2011-02-13T12:16:01.10</time>
<name>339</name>
</trkpt>
<trkpt lat="51.767993" lon="19.496087">
<ele>267.0</ele>
<speed>10.5</speed>
<course>80.8</course>
<desc>Speed 10.5 km/h Distance 1.16 km</desc>
<time>2011-02-13T12:16:02.11</time>
<name>340</name>
</trkpt>
<trkpt lat="51.767998" lon="19.496137">
<ele>267.0</ele>
<speed>13.1</speed>
<course>83.6</course>
<desc>Speed 13.1 km/h Distance 1.16 km</desc>
<time>2011-02-13T12:16:03.11</time>
<name>341</name>
</trkpt>
<trkpt lat="51.768002" lon="19.496185">
<ele>267.0</ele>
<speed>12.2</speed>
<course>90.0</course>
<desc>Speed 12.2 km/h Distance 1.16 km</desc>
<time>2011-02-13T12:16:04.11</time>
<name>342</name>
</trkpt>
<trkpt lat="51.768002" lon="19.496228">
<ele>267.0</ele>
<speed>11.5</speed>
<course>81.3</course>
<desc>Speed 11.5 km/h Distance 1.17 km</desc>
<time>2011-02-13T12:16:05.11</time>
<name>343</name>
</trkpt>
<trkpt lat="51.768005" lon="19.496263">
<ele>267.0</ele>
<speed>9.1</speed>
<course>90.0</course>
<desc>Speed 9.1 km/h Distance 1.17 km</desc>
<time>2011-02-13T12:16:06.11</time>
<name>344</name>
</trkpt>
<trkpt lat="51.768005" lon="19.496315">
<ele>267.0</ele>
<speed>13.5</speed>
<course>86.9</course>
<desc>Speed 13.5 km/h Distance 1.17 km</desc>
<time>2011-02-13T12:16:07.12</time>
<name>345</name>
</trkpt>
<trkpt lat="51.768007" lon="19.496365">
<ele>267.0</ele>
<speed>12.8</speed>
<course>86.3</course>
<desc>Speed 12.8 km/h Distance 1.18 km</desc>
<time>2011-02-13T12:16:08.11</time>
<name>346</name>
</trkpt>
<trkpt lat="51.768008" lon="19.496407">
<ele>267.0</ele>
<speed>10.8</speed>
<course>90.0</course>
<desc>Speed 10.8 km/h Distance 1.18 km</desc>
<time>2011-02-13T12:16:09.11</time>
<name>347</name>
</trkpt>
<trkpt lat="51.768008" lon="19.496452">
<ele>267.0</ele>
<speed>11.6</speed>
<course>80.5</course>
<desc>Speed 11.6 km/h Distance 1.18 km</desc>
<time>2011-02-13T12:16:10.11</time>
<name>348</name>
</trkpt>
<trkpt lat="51.768013" lon="19.496500">
<ele>267.0</ele>
<speed>12.8</speed>
<course>72.1</course>
<desc>Speed 12.8 km/h Distance 1.19 km</desc>
<time>2011-02-13T12:16:11.11</time>
<name>349</name>
</trkpt>
<trkpt lat="51.768023" lon="19.496550">
<ele>267.0</ele>
<speed>13.7</speed>
<course>72.7</course>
<desc>Speed 13.7 km/h Distance 1.19 km</desc>
<time>2011-02-13T12:16:12.12</time>
<name>350</name>
</trkpt>
<trkpt lat="51.768032" lon="19.496593">
<ele>267.0</ele>
<speed>11.8</speed>
<course>76.0</course>
<desc>Speed 11.8 km/h Distance 1.19 km</desc>
<time>2011-02-13T12:16:13.12</time>
<name>351</name>
</trkpt>
<trkpt lat="51.768038" lon="19.496637">
<ele>267.0</ele>
<speed>11.3</speed>
<course>96.6</course>
<desc>Speed 11.3 km/h Distance 1.20 km</desc>
<time>2011-02-13T12:16:14.11</time>
<name>352</name>
</trkpt>
<trkpt lat="51.768035" lon="19.496683">
<ele>267.0</ele>
<speed>11.7</speed>
<course>81.1</course>
<desc>Speed 11.7 km/h Distance 1.20 km</desc>
<time>2011-02-13T12:16:15.12</time>
<name>353</name>
</trkpt>
<trkpt lat="51.768040" lon="19.496735">
<ele>267.0</ele>
<speed>13.2</speed>
<course>77.4</course>
<desc>Speed 13.2 km/h Distance 1.20 km</desc>
<time>2011-02-13T12:16:16.11</time>
<name>354</name>
</trkpt>
<trkpt lat="51.768047" lon="19.496783">
<ele>267.0</ele>
<speed>12.4</speed>
<course>71.5</course>
<desc>Speed 12.4 km/h Distance 1.21 km</desc>
<time>2011-02-13T12:16:17.11</time>
<name>355</name>
</trkpt>
<trkpt lat="51.768057" lon="19.496832">
<ele>267.0</ele>
<speed>12.3</speed>
<course>60.7</course>
<desc>Speed 12.3 km/h Distance 1.21 km</desc>
<time>2011-02-13T12:16:18.11</time>
<name>356</name>
</trkpt>
<trkpt lat="51.768070" lon="19.496870">
<ele>267.0</ele>
<speed>10.9</speed>
<course>72.1</course>
<desc>Speed 10.9 km/h Distance 1.21 km</desc>
<time>2011-02-13T12:16:19.11</time>
<name>357</name>
</trkpt>
<trkpt lat="51.768078" lon="19.496912">
<ele>267.0</ele>
<speed>10.9</speed>
<course>90.0</course>
<desc>Speed 10.9 km/h Distance 1.22 km</desc>
<time>2011-02-13T12:16:20.11</time>
<name>358</name>
</trkpt>
<trkpt lat="51.768078" lon="19.496948">
<ele>267.0</ele>
<speed>9.4</speed>
<course>93.4</course>
<desc>Speed 9.4 km/h Distance 1.22 km</desc>
<time>2011-02-13T12:16:21.11</time>
<name>359</name>
</trkpt>
<trkpt lat="51.768077" lon="19.496993">
<ele>267.0</ele>
<speed>11.5</speed>
<course>102.2</course>
<desc>Speed 11.5 km/h Distance 1.22 km</desc>
<time>2011-02-13T12:16:22.11</time>
<name>360</name>
</trkpt>
<trkpt lat="51.768070" lon="19.497043">
<ele>267.0</ele>
<speed>13.6</speed>
<course>107.9</course>
<desc>Speed 13.6 km/h Distance 1.23 km</desc>
<time>2011-02-13T12:16:23.11</time>
<name>361</name>
</trkpt>
<trkpt lat="51.768062" lon="19.497085">
<ele>267.0</ele>
<speed>10.9</speed>
<course>111.3</course>
<desc>Speed 10.9 km/h Distance 1.23 km</desc>
<time>2011-02-13T12:16:24.11</time>
<name>362</name>
</trkpt>
<trkpt lat="51.768050" lon="19.497133">
<ele>267.0</ele>
<speed>13.1</speed>
<course>97.4</course>
<desc>Speed 13.1 km/h Distance 1.23 km</desc>
<time>2011-02-13T12:16:25.11</time>
<name>363</name>
</trkpt>
<trkpt lat="51.768047" lon="19.497175">
<ele>267.0</ele>
<speed>10.4</speed>
<course>111.0</course>
<desc>Speed 10.4 km/h Distance 1.23 km</desc>
<time>2011-02-13T12:16:26.11</time>
<name>364</name>
</trkpt>
<trkpt lat="51.768038" lon="19.497210">
<ele>267.0</ele>
<speed>9.3</speed>
<course>130.4</course>
<desc>Speed 9.3 km/h Distance 1.24 km</desc>
<time>2011-02-13T12:16:27.11</time>
<name>365</name>
</trkpt>
<trkpt lat="51.768022" lon="19.497242">
<ele>267.0</ele>
<speed>10.3</speed>
<course>120.9</course>
<desc>Speed 10.3 km/h Distance 1.24 km</desc>
<time>2011-02-13T12:16:28.11</time>
<name>366</name>
</trkpt>
<trkpt lat="51.768005" lon="19.497287">
<ele>267.0</ele>
<speed>13.0</speed>
<course>103.0</course>
<desc>Speed 13.0 km/h Distance 1.24 km</desc>
<time>2011-02-13T12:16:29.12</time>
<name>367</name>
</trkpt>
<trkpt lat="51.767998" lon="19.497333">
<ele>267.0</ele>
<speed>12.0</speed>
<course>105.6</course>
<desc>Speed 12.0 km/h Distance 1.25 km</desc>
<time>2011-02-13T12:16:30.11</time>
<name>368</name>
</trkpt>
<trkpt lat="51.767990" lon="19.497382">
<ele>267.0</ele>
<speed>12.7</speed>
<course>105.6</course>
<desc>Speed 12.7 km/h Distance 1.25 km</desc>
<time>2011-02-13T12:16:31.11</time>
<name>369</name>
</trkpt>
<trkpt lat="51.767982" lon="19.497430">
<ele>267.0</ele>
<speed>12.7</speed>
<course>90.0</course>
<desc>Speed 12.7 km/h Distance 1.25 km</desc>
<time>2011-02-13T12:16:32.11</time>
<name>370</name>
</trkpt>
<trkpt lat="51.767982" lon="19.497475">
<ele>267.0</ele>
<speed>11.0</speed>
<course>87.0</course>
<desc>Speed 11.0 km/h Distance 1.26 km</desc>
<time>2011-02-13T12:16:33.12</time>
<name>371</name>
</trkpt>
<trkpt lat="51.767983" lon="19.497527">
<ele>267.0</ele>
<speed>13.0</speed>
<course>81.9</course>
<desc>Speed 13.0 km/h Distance 1.26 km</desc>
<time>2011-02-13T12:16:34.11</time>
<name>372</name>
</trkpt>
<trkpt lat="51.767988" lon="19.497583">
<ele>267.0</ele>
<speed>14.8</speed>
<course>64.6</course>
<desc>Speed 14.8 km/h Distance 1.26 km</desc>
<time>2011-02-13T12:16:35.11</time>
<name>373</name>
</trkpt>
<trkpt lat="51.768005" lon="19.497640">
<ele>267.0</ele>
<speed>15.8</speed>
<course>67.2</course>
<desc>Speed 15.8 km/h Distance 1.27 km</desc>
<time>2011-02-13T12:16:36.11</time>
<name>374</name>
</trkpt>
<trkpt lat="51.768015" lon="19.497678">
<ele>267.0</ele>
<speed>10.4</speed>
<course>68.0</course>
<desc>Speed 10.4 km/h Distance 1.27 km</desc>
<time>2011-02-13T12:16:37.11</time>
<name>375</name>
</trkpt>
<trkpt lat="51.768027" lon="19.497725">
<ele>267.0</ele>
<speed>12.7</speed>
<course>75.8</course>
<desc>Speed 12.7 km/h Distance 1.28 km</desc>
<time>2011-02-13T12:16:38.11</time>
<name>376</name>
</trkpt>
<trkpt lat="51.768035" lon="19.497778">
<ele>267.0</ele>
<speed>13.8</speed>
<course>78.2</course>
<desc>Speed 13.8 km/h Distance 1.28 km</desc>
<time>2011-02-13T12:16:39.11</time>
<name>377</name>
</trkpt>
<trkpt lat="51.768042" lon="19.497830">
<ele>267.0</ele>
<speed>13.2</speed>
<course>90.0</course>
<desc>Speed 13.2 km/h Distance 1.28 km</desc>
<time>2011-02-13T12:16:40.10</time>
<name>378</name>
</trkpt>
<trkpt lat="51.768042" lon="19.497870">
<ele>267.0</ele>
<speed>10.3</speed>
<course>90.0</course>
<desc>Speed 10.3 km/h Distance 1.29 km</desc>
<time>2011-02-13T12:16:41.11</time>
<name>379</name>
</trkpt>
<trkpt lat="51.768042" lon="19.497910">
<ele>267.0</ele>
<speed>9.6</speed>
<course>74.3</course>
<desc>Speed 9.6 km/h Distance 1.29 km</desc>
<time>2011-02-13T12:16:42.11</time>
<name>380</name>
</trkpt>
<trkpt lat="51.768048" lon="19.497948">
<ele>267.0</ele>
<speed>10.1</speed>
<course>70.3</course>
<desc>Speed 10.1 km/h Distance 1.29 km</desc>
<time>2011-02-13T12:16:43.12</time>
<name>381</name>
</trkpt>
<trkpt lat="51.768058" lon="19.497993">
<ele>267.0</ele>
<speed>12.2</speed>
<course>76.4</course>
<desc>Speed 12.2 km/h Distance 1.29 km</desc>
<time>2011-02-13T12:16:44.11</time>
<name>382</name>
</trkpt>
<trkpt lat="51.768063" lon="19.498027">
<ele>267.0</ele>
<speed>9.6</speed>
<course>90.0</course>
<desc>Speed 9.6 km/h Distance 1.30 km</desc>
<time>2011-02-13T12:16:45.11</time>
<name>383</name>
</trkpt>
<trkpt lat="51.768063" lon="19.498072">
<ele>267.0</ele>
<speed>11.6</speed>
<course>93.2</course>
<desc>Speed 11.6 km/h Distance 1.30 km</desc>
<time>2011-02-13T12:16:46.12</time>
<name>384</name>
</trkpt>
<trkpt lat="51.768062" lon="19.498120">
<ele>267.0</ele>
<speed>12.4</speed>
<course>108.5</course>
<desc>Speed 12.4 km/h Distance 1.30 km</desc>
<time>2011-02-13T12:16:47.11</time>
<name>385</name>
</trkpt>
<trkpt lat="51.768052" lon="19.498168">
<ele>267.5</ele>
<speed>12.0</speed>
<course>106.7</course>
<desc>Speed 12.0 km/h Distance 1.31 km</desc>
<time>2011-02-13T12:16:48.11</time>
<name>386</name>
</trkpt>
<trkpt lat="51.768043" lon="19.498213">
<ele>267.0</ele>
<speed>12.0</speed>
<course>111.3</course>
<desc>Speed 12.0 km/h Distance 1.31 km</desc>
<time>2011-02-13T12:16:49.11</time>
<name>387</name>
</trkpt>
<trkpt lat="51.768032" lon="19.498262">
<ele>267.5</ele>
<speed>12.6</speed>
<course>125.9</course>
<desc>Speed 12.6 km/h Distance 1.31 km</desc>
<time>2011-02-13T12:16:50.11</time>
<name>388</name>
</trkpt>
<trkpt lat="51.768010" lon="19.498310">
<ele>267.0</ele>
<speed>14.1</speed>
<course>120.9</course>
<desc>Speed 14.1 km/h Distance 1.32 km</desc>
<time>2011-02-13T12:16:51.11</time>
<name>389</name>
</trkpt>
<trkpt lat="51.767993" lon="19.498355">
<ele>267.0</ele>
<speed>12.7</speed>
<course>131.9</course>
<desc>Speed 12.7 km/h Distance 1.32 km</desc>
<time>2011-02-13T12:16:52.12</time>
<name>390</name>
</trkpt>
<trkpt lat="51.767977" lon="19.498385">
<ele>267.0</ele>
<speed>9.9</speed>
<course>120.9</course>
<desc>Speed 9.9 km/h Distance 1.32 km</desc>
<time>2011-02-13T12:16:53.11</time>
<name>391</name>
</trkpt>
<trkpt lat="51.767960" lon="19.498430">
<ele>267.0</ele>
<speed>12.9</speed>
<course>96.2</course>
<desc>Speed 12.9 km/h Distance 1.33 km</desc>
<time>2011-02-13T12:16:54.11</time>
<name>392</name>
</trkpt>
<trkpt lat="51.767957" lon="19.498480">
<ele>267.0</ele>
<speed>12.4</speed>
<course>120.0</course>
<desc>Speed 12.4 km/h Distance 1.33 km</desc>
<time>2011-02-13T12:16:55.11</time>
<name>393</name>
</trkpt>
<trkpt lat="51.767940" lon="19.498527">
<ele>267.0</ele>
<speed>13.5</speed>
<course>115.6</course>
<desc>Speed 13.5 km/h Distance 1.33 km</desc>
<time>2011-02-13T12:16:56.11</time>
<name>394</name>
</trkpt>
<trkpt lat="51.767927" lon="19.498572">
<ele>267.0</ele>
<speed>12.0</speed>
<course>61.7</course>
<desc>Speed 12.0 km/h Distance 1.34 km</desc>
<time>2011-02-13T12:16:57.11</time>
<name>395</name>
</trkpt>
<trkpt lat="51.767962" lon="19.498677">
<ele>267.0</ele>
<speed>12.1</speed>
<course>107.9</course>
<desc>Speed 12.1 km/h Distance 1.35 km</desc>
<time>2011-02-13T12:16:59.11</time>
<name>396</name>
</trkpt>
<trkpt lat="51.767952" lon="19.498727">
<ele>267.5</ele>
<speed>12.9</speed>
<course>107.9</course>
<desc>Speed 12.9 km/h Distance 1.35 km</desc>
<time>2011-02-13T12:17:00.11</time>
<name>397</name>
</trkpt>
<trkpt lat="51.767943" lon="19.498768">
<ele>267.5</ele>
<speed>10.5</speed>
<course>105.1</course>
<desc>Speed 10.5 km/h Distance 1.35 km</desc>
<time>2011-02-13T12:17:01.11</time>
<name>398</name>
</trkpt>
<trkpt lat="51.767935" lon="19.498818">
<ele>267.5</ele>
<speed>13.0</speed>
<course>90.0</course>
<desc>Speed 13.0 km/h Distance 1.36 km</desc>
<time>2011-02-13T12:17:02.11</time>
<name>399</name>
</trkpt>
<trkpt lat="51.767935" lon="19.498862">
<ele>267.5</ele>
<speed>10.8</speed>
<course>86.8</course>
<desc>Speed 10.8 km/h Distance 1.36 km</desc>
<time>2011-02-13T12:17:03.11</time>
<name>400</name>
</trkpt>
<trkpt lat="51.767937" lon="19.498910">
<ele>267.5</ele>
<speed>11.9</speed>
<course>131.4</course>
<desc>Speed 11.9 km/h Distance 1.36 km</desc>
<time>2011-02-13T12:17:04.11</time>
<name>401</name>
</trkpt>
<trkpt lat="51.767917" lon="19.498947">
<ele>267.5</ele>
<speed>12.1</speed>
<course>82.3</course>
<desc>Speed 12.1 km/h Distance 1.37 km</desc>
<time>2011-02-13T12:17:05.11</time>
<name>402</name>
</trkpt>
<trkpt lat="51.767920" lon="19.498987">
<ele>267.5</ele>
<speed>10.2</speed>
<course>144.0</course>
<desc>Speed 10.2 km/h Distance 1.37 km</desc>
<time>2011-02-13T12:17:06.11</time>
<name>403</name>
</trkpt>
<trkpt lat="51.767892" lon="19.499020">
<ele>267.5</ele>
<speed>14.0</speed>
<course>118.3</course>
<desc>Speed 14.0 km/h Distance 1.37 km</desc>
<time>2011-02-13T12:17:07.11</time>
<name>404</name>
</trkpt>
<trkpt lat="51.767877" lon="19.499065">
<ele>267.5</ele>
<speed>13.2</speed>
<course>110.0</course>
<desc>Speed 13.2 km/h Distance 1.38 km</desc>
<time>2011-02-13T12:17:08.11</time>
<name>405</name>
</trkpt>
<trkpt lat="51.767865" lon="19.499117">
<ele>267.5</ele>
<speed>14.1</speed>
<course>86.9</course>
<desc>Speed 14.1 km/h Distance 1.38 km</desc>
<time>2011-02-13T12:17:09.11</time>
<name>406</name>
</trkpt>
<trkpt lat="51.767867" lon="19.499167">
<ele>267.5</ele>
<speed>12.2</speed>
<course>109.7</course>
<desc>Speed 12.2 km/h Distance 1.38 km</desc>
<time>2011-02-13T12:17:10.11</time>
<name>407</name>
</trkpt>
<trkpt lat="51.767857" lon="19.499212">
<ele>267.5</ele>
<speed>12.1</speed>
<course>99.5</course>
<desc>Speed 12.1 km/h Distance 1.39 km</desc>
<time>2011-02-13T12:17:11.11</time>
<name>408</name>
</trkpt>
<trkpt lat="51.767852" lon="19.499260">
<ele>267.5</ele>
<speed>12.5</speed>
<course>114.4</course>
<desc>Speed 12.5 km/h Distance 1.39 km</desc>
<time>2011-02-13T12:17:12.11</time>
<name>409</name>
</trkpt>
<trkpt lat="51.767840" lon="19.499302">
<ele>267.5</ele>
<speed>11.2</speed>
<course>99.2</course>
<desc>Speed 11.2 km/h Distance 1.39 km</desc>
<time>2011-02-13T12:17:13.11</time>
<name>410</name>
</trkpt>
<trkpt lat="51.767835" lon="19.499352">
<ele>267.5</ele>
<speed>12.5</speed>
<course>116.4</course>
<desc>Speed 12.5 km/h Distance 1.40 km</desc>
<time>2011-02-13T12:17:14.11</time>
<name>411</name>
</trkpt>
<trkpt lat="51.767822" lon="19.499395">
<ele>267.5</ele>
<speed>12.0</speed>
<course>119.0</course>
<desc>Speed 12.0 km/h Distance 1.40 km</desc>
<time>2011-02-13T12:17:15.11</time>
<name>412</name>
</trkpt>
<trkpt lat="51.767803" lon="19.499448">
<ele>267.5</ele>
<speed>14.4</speed>
<course>124.7</course>
<desc>Speed 14.4 km/h Distance 1.40 km</desc>
<time>2011-02-13T12:17:16.11</time>
<name>413</name>
</trkpt>
<trkpt lat="51.767783" lon="19.499495">
<ele>267.5</ele>
<speed>13.1</speed>
<course>103.0</course>
<desc>Speed 13.1 km/h Distance 1.41 km</desc>
<time>2011-02-13T12:17:17.11</time>
<name>414</name>
</trkpt>
<trkpt lat="51.767775" lon="19.499553">
<ele>267.5</ele>
<speed>14.8</speed>
<course>119.0</course>
<desc>Speed 14.8 km/h Distance 1.41 km</desc>
<time>2011-02-13T12:17:18.11</time>
<name>415</name>
</trkpt>
<trkpt lat="51.767757" lon="19.499607">
<ele>267.5</ele>
<speed>13.8</speed>
<course>108.9</course>
<desc>Speed 13.8 km/h Distance 1.42 km</desc>
<time>2011-02-13T12:17:19.12</time>
<name>416</name>
</trkpt>
<trkpt lat="51.767745" lon="19.499662">
<ele>267.5</ele>
<speed>13.9</speed>
<course>106.9</course>
<desc>Speed 13.9 km/h Distance 1.42 km</desc>
<time>2011-02-13T12:17:20.11</time>
<name>417</name>
</trkpt>
<trkpt lat="51.767735" lon="19.499715">
<ele>267.5</ele>
<speed>13.4</speed>
<course>92.6</course>
<desc>Speed 13.4 km/h Distance 1.42 km</desc>
<time>2011-02-13T12:17:21.11</time>
<name>418</name>
</trkpt>
<trkpt lat="51.767733" lon="19.499773">
<ele>267.5</ele>
<speed>14.1</speed>
<course>103.8</course>
<desc>Speed 14.1 km/h Distance 1.43 km</desc>
<time>2011-02-13T12:17:22.10</time>
<name>419</name>
</trkpt>
<trkpt lat="51.767725" lon="19.499828">
<ele>267.5</ele>
<speed>13.6</speed>
<course>101.8</course>
<desc>Speed 13.6 km/h Distance 1.43 km</desc>
<time>2011-02-13T12:17:23.11</time>
<name>420</name>
</trkpt>
<trkpt lat="51.767718" lon="19.499880">
<ele>267.5</ele>
<speed>13.1</speed>
<course>104.2</course>
<desc>Speed 13.1 km/h Distance 1.44 km</desc>
<time>2011-02-13T12:17:24.11</time>
<name>421</name>
</trkpt>
<trkpt lat="51.767710" lon="19.499933">
<ele>267.5</ele>
<speed>13.2</speed>
<course>100.5</course>
<desc>Speed 13.2 km/h Distance 1.44 km</desc>
<time>2011-02-13T12:17:25.09</time>
<name>422</name>
</trkpt>
<trkpt lat="51.767703" lon="19.499992">
<ele>268.0</ele>
<speed>14.5</speed>
<course>100.5</course>
<desc>Speed 14.5 km/h Distance 1.44 km</desc>
<time>2011-02-13T12:17:26.10</time>
<name>423</name>
</trkpt>
<trkpt lat="51.767697" lon="19.500050">
<ele>267.5</ele>
<speed>14.4</speed>
<course>103.4</course>
<desc>Speed 14.4 km/h Distance 1.45 km</desc>
<time>2011-02-13T12:17:27.11</time>
<name>424</name>
</trkpt>
<trkpt lat="51.767688" lon="19.500107">
<ele>267.5</ele>
<speed>14.1</speed>
<course>101.8</course>
<desc>Speed 14.1 km/h Distance 1.45 km</desc>
<time>2011-02-13T12:17:28.11</time>
<name>425</name>
</trkpt>
<trkpt lat="51.767682" lon="19.500158">
<ele>266.5</ele>
<speed>13.1</speed>
<course>93.3</course>
<desc>Speed 13.1 km/h Distance 1.46 km</desc>
<time>2011-02-13T12:17:29.11</time>
<name>426</name>
</trkpt>
<trkpt lat="51.767680" lon="19.500205">
<ele>266.5</ele>
<speed>11.4</speed>
<course>106.7</course>
<desc>Speed 11.4 km/h Distance 1.46 km</desc>
<time>2011-02-13T12:17:30.11</time>
<name>427</name>
</trkpt>
<trkpt lat="51.767672" lon="19.500250">
<ele>266.5</ele>
<speed>11.8</speed>
<course>95.3</course>
<desc>Speed 11.8 km/h Distance 1.46 km</desc>
<time>2011-02-13T12:17:31.11</time>
<name>428</name>
</trkpt>
<trkpt lat="51.767668" lon="19.500308">
<ele>265.5</ele>
<speed>14.6</speed>
<course>101.4</course>
<desc>Speed 14.6 km/h Distance 1.47 km</desc>
<time>2011-02-13T12:17:32.11</time>
<name>429</name>
</trkpt>
<trkpt lat="51.767663" lon="19.500348">
<ele>267.0</ele>
<speed>10.2</speed>
<course>96.6</course>
<desc>Speed 10.2 km/h Distance 1.47 km</desc>
<time>2011-02-13T12:17:33.11</time>
<name>430</name>
</trkpt>
<trkpt lat="51.767660" lon="19.500395">
<ele>267.0</ele>
<speed>11.4</speed>
<course>103.0</course>
<desc>Speed 11.4 km/h Distance 1.47 km</desc>
<time>2011-02-13T12:17:34.11</time>
<name>431</name>
</trkpt>
<trkpt lat="51.767653" lon="19.500442">
<ele>267.0</ele>
<speed>11.6</speed>
<course>98.9</course>
<desc>Speed 11.6 km/h Distance 1.48 km</desc>
<time>2011-02-13T12:17:35.10</time>
<name>432</name>
</trkpt>
<trkpt lat="51.767648" lon="19.500493">
<ele>266.5</ele>
<speed>13.1</speed>
<course>111.2</course>
<desc>Speed 13.1 km/h Distance 1.48 km</desc>
<time>2011-02-13T12:17:36.10</time>
<name>433</name>
</trkpt>
<trkpt lat="51.767638" lon="19.500535">
<ele>266.5</ele>
<speed>10.3</speed>
<course>101.8</course>
<desc>Speed 10.3 km/h Distance 1.48 km</desc>
<time>2011-02-13T12:17:37.10</time>
<name>434</name>
</trkpt>
<trkpt lat="51.767632" lon="19.500587">
<ele>266.5</ele>
<speed>12.7</speed>
<course>107.4</course>
<desc>Speed 12.7 km/h Distance 1.49 km</desc>
<time>2011-02-13T12:17:38.10</time>
<name>435</name>
</trkpt>
<trkpt lat="51.767622" lon="19.500638">
<ele>266.5</ele>
<speed>13.1</speed>
<course>99.2</course>
<desc>Speed 13.1 km/h Distance 1.49 km</desc>
<time>2011-02-13T12:17:39.11</time>
<name>436</name>
</trkpt>
<trkpt lat="51.767617" lon="19.500688">
<ele>266.5</ele>
<speed>12.8</speed>
<course>94.7</course>
<desc>Speed 12.8 km/h Distance 1.49 km</desc>
<time>2011-02-13T12:17:40.10</time>
<name>437</name>
</trkpt>
<trkpt lat="51.767613" lon="19.500753">
<ele>264.5</ele>
<speed>16.0</speed>
<course>100.5</course>
<desc>Speed 16.0 km/h Distance 1.50 km</desc>
<time>2011-02-13T12:17:41.11</time>
<name>438</name>
</trkpt>
<trkpt lat="51.767607" lon="19.500812">
<ele>264.0</ele>
<speed>14.5</speed>
<course>93.0</course>
<desc>Speed 14.5 km/h Distance 1.50 km</desc>
<time>2011-02-13T12:17:42.10</time>
<name>439</name>
</trkpt>
<trkpt lat="51.767605" lon="19.500863">
<ele>264.5</ele>
<speed>12.9</speed>
<course>92.6</course>
<desc>Speed 12.9 km/h Distance 1.51 km</desc>
<time>2011-02-13T12:17:43.11</time>
<name>440</name>
</trkpt>
<trkpt lat="51.767603" lon="19.500922">
<ele>264.0</ele>
<speed>14.6</speed>
<course>102.0</course>
<desc>Speed 14.6 km/h Distance 1.51 km</desc>
<time>2011-02-13T12:17:44.11</time>
<name>441</name>
</trkpt>
<trkpt lat="51.767595" lon="19.500985">
<ele>262.0</ele>
<speed>15.4</speed>
<course>102.2</course>
<desc>Speed 15.4 km/h Distance 1.51 km</desc>
<time>2011-02-13T12:17:45.11</time>
<name>442</name>
</trkpt>
<trkpt lat="51.767588" lon="19.501035">
<ele>262.0</ele>
<speed>12.4</speed>
<course>107.4</course>
<desc>Speed 12.4 km/h Distance 1.52 km</desc>
<time>2011-02-13T12:17:46.10</time>
<name>443</name>
</trkpt>
<trkpt lat="51.767578" lon="19.501087">
<ele>260.5</ele>
<speed>12.6</speed>
<course>108.6</course>
<desc>Speed 12.6 km/h Distance 1.52 km</desc>
<time>2011-02-13T12:17:47.10</time>
<name>444</name>
</trkpt>
<trkpt lat="51.767570" lon="19.501127">
<ele>260.0</ele>
<speed>10.5</speed>
<course>100.2</course>
<desc>Speed 10.5 km/h Distance 1.52 km</desc>
<time>2011-02-13T12:17:48.10</time>
<name>445</name>
</trkpt>
<trkpt lat="51.767567" lon="19.501157">
<ele>261.5</ele>
<speed>7.0</speed>
<course>82.6</course>
<desc>Speed 7.0 km/h Distance 1.53 km</desc>
<time>2011-02-13T12:17:49.10</time>
<name>446</name>
</trkpt>
<trkpt lat="51.767570" lon="19.501198">
<ele>262.0</ele>
<speed>10.5</speed>
<course>78.6</course>
<desc>Speed 10.5 km/h Distance 1.53 km</desc>
<time>2011-02-13T12:17:50.10</time>
<name>447</name>
</trkpt>
<trkpt lat="51.767577" lon="19.501252">
<ele>260.5</ele>
<speed>13.4</speed>
<course>47.3</course>
<desc>Speed 13.4 km/h Distance 1.53 km</desc>
<time>2011-02-13T12:17:51.11</time>
<name>448</name>
</trkpt>
<trkpt lat="51.767590" lon="19.501275">
<ele>260.0</ele>
<speed>8.0</speed>
<course>1.8</course>
<desc>Speed 8.0 km/h Distance 1.53 km</desc>
<time>2011-02-13T12:17:52.11</time>
<name>449</name>
</trkpt>
<trkpt lat="51.767652" lon="19.501278">
<ele>258.5</ele>
<speed>9.3</speed>
<course>302.1</course>
<desc>Speed 9.3 km/h Distance 1.54 km</desc>
<time>2011-02-13T12:17:54.11</time>
<name>450</name>
</trkpt>
<trkpt lat="51.767663" lon="19.501248">
<ele>258.0</ele>
<speed>9.7</speed>
<course>310.4</course>
<desc>Speed 9.7 km/h Distance 1.54 km</desc>
<time>2011-02-13T12:17:55.11</time>
<name>451</name>
</trkpt>
<trkpt lat="51.767680" lon="19.501217">
<ele>258.0</ele>
<speed>11.1</speed>
<course>286.7</course>
<desc>Speed 11.1 km/h Distance 1.55 km</desc>
<time>2011-02-13T12:17:56.10</time>
<name>452</name>
</trkpt>
<trkpt lat="51.767688" lon="19.501172">
<ele>257.0</ele>
<speed>12.1</speed>
<course>279.5</course>
<desc>Speed 12.1 km/h Distance 1.55 km</desc>
<time>2011-02-13T12:17:57.10</time>
<name>453</name>
</trkpt>
<trkpt lat="51.767693" lon="19.501123">
<ele>256.5</ele>
<speed>12.5</speed>
<course>251.6</course>
<desc>Speed 12.5 km/h Distance 1.55 km</desc>
<time>2011-02-13T12:17:58.11</time>
<name>454</name>
</trkpt>
<trkpt lat="51.767682" lon="19.501067">
<ele>257.0</ele>
<speed>14.2</speed>
<course>247.4</course>
<desc>Speed 14.2 km/h Distance 1.56 km</desc>
<time>2011-02-13T12:17:59.10</time>
<name>455</name>
</trkpt>
<trkpt lat="51.767667" lon="19.501008">
<ele>257.0</ele>
<speed>14.7</speed>
<course>266.9</course>
<desc>Speed 14.7 km/h Distance 1.56 km</desc>
<time>2011-02-13T12:18:00.10</time>
<name>456</name>
</trkpt>
<trkpt lat="51.767665" lon="19.500958">
<ele>256.5</ele>
<speed>12.5</speed>
<course>259.8</course>
<desc>Speed 12.5 km/h Distance 1.57 km</desc>
<time>2011-02-13T12:18:01.10</time>
<name>457</name>
</trkpt>
<trkpt lat="51.767658" lon="19.500898">
<ele>257.5</ele>
<speed>14.7</speed>
<course>264.4</course>
<desc>Speed 14.7 km/h Distance 1.57 km</desc>
<time>2011-02-13T12:18:02.10</time>
<name>458</name>
</trkpt>
<trkpt lat="51.767655" lon="19.500843">
<ele>257.0</ele>
<speed>13.2</speed>
<course>259.5</course>
<desc>Speed 13.2 km/h Distance 1.57 km</desc>
<time>2011-02-13T12:18:03.10</time>
<name>459</name>
</trkpt>
<trkpt lat="51.767648" lon="19.500785">
<ele>257.0</ele>
<speed>14.1</speed>
<course>256.2</course>
<desc>Speed 14.1 km/h Distance 1.58 km</desc>
<time>2011-02-13T12:18:04.10</time>
<name>460</name>
</trkpt>
<trkpt lat="51.767640" lon="19.500730">
<ele>257.5</ele>
<speed>14.0</speed>
<course>270.0</course>
<desc>Speed 14.0 km/h Distance 1.58 km</desc>
<time>2011-02-13T12:18:05.11</time>
<name>461</name>
</trkpt>
<trkpt lat="51.767640" lon="19.500680">
<ele>257.5</ele>
<speed>12.7</speed>
<course>266.9</course>
<desc>Speed 12.7 km/h Distance 1.59 km</desc>
<time>2011-02-13T12:18:06.10</time>
<name>462</name>
</trkpt>
<trkpt lat="51.767638" lon="19.500630">
<ele>257.5</ele>
<speed>12.6</speed>
<course>264.7</course>
<desc>Speed 12.6 km/h Distance 1.59 km</desc>
<time>2011-02-13T12:18:07.10</time>
<name>463</name>
</trkpt>
<trkpt lat="51.767635" lon="19.500572">
<ele>257.5</ele>
<speed>14.4</speed>
<course>264.2</course>
<desc>Speed 14.4 km/h Distance 1.59 km</desc>
<time>2011-02-13T12:18:08.10</time>
<name>464</name>
</trkpt>
<trkpt lat="51.767632" lon="19.500518">
<ele>258.5</ele>
<speed>13.6</speed>
<course>275.8</course>
<desc>Speed 13.6 km/h Distance 1.60 km</desc>
<time>2011-02-13T12:18:09.10</time>
<name>465</name>
</trkpt>
<trkpt lat="51.767635" lon="19.500465">
<ele>258.5</ele>
<speed>13.0</speed>
<course>264.6</course>
<desc>Speed 13.0 km/h Distance 1.60 km</desc>
<time>2011-02-13T12:18:10.10</time>
<name>466</name>
</trkpt>
<trkpt lat="51.767632" lon="19.500408">
<ele>260.0</ele>
<speed>13.8</speed>
<course>275.8</course>
<desc>Speed 13.8 km/h Distance 1.60 km</desc>
<time>2011-02-13T12:18:11.11</time>
<name>467</name>
</trkpt>
<trkpt lat="51.767635" lon="19.500355">
<ele>260.0</ele>
<speed>13.2</speed>
<course>286.1</course>
<desc>Speed 13.2 km/h Distance 1.61 km</desc>
<time>2011-02-13T12:18:12.10</time>
<name>468</name>
</trkpt>
<trkpt lat="51.767643" lon="19.500308">
<ele>260.0</ele>
<speed>12.0</speed>
<course>258.0</course>
<desc>Speed 12.0 km/h Distance 1.61 km</desc>
<time>2011-02-13T12:18:13.10</time>
<name>469</name>
</trkpt>
<trkpt lat="51.767635" lon="19.500245">
<ele>261.5</ele>
<speed>15.5</speed>
<course>283.0</course>
<desc>Speed 15.5 km/h Distance 1.62 km</desc>
<time>2011-02-13T12:18:14.10</time>
<name>470</name>
</trkpt>
<trkpt lat="51.767642" lon="19.500198">
<ele>262.0</ele>
<speed>11.8</speed>
<course>277.9</course>
<desc>Speed 11.8 km/h Distance 1.62 km</desc>
<time>2011-02-13T12:18:15.10</time>
<name>471</name>
</trkpt>
<trkpt lat="51.767647" lon="19.500140">
<ele>263.0</ele>
<speed>14.2</speed>
<course>301.9</course>
<desc>Speed 14.2 km/h Distance 1.62 km</desc>
<time>2011-02-13T12:18:16.10</time>
<name>472</name>
</trkpt>
<trkpt lat="51.767663" lon="19.500097">
<ele>263.5</ele>
<speed>12.1</speed>
<course>310.1</course>
<desc>Speed 12.1 km/h Distance 1.63 km</desc>
<time>2011-02-13T12:18:17.10</time>
<name>473</name>
</trkpt>
<trkpt lat="51.767683" lon="19.500058">
<ele>263.0</ele>
<speed>12.4</speed>
<course>310.3</course>
<desc>Speed 12.4 km/h Distance 1.63 km</desc>
<time>2011-02-13T12:18:18.10</time>
<name>474</name>
</trkpt>
<trkpt lat="51.767702" lon="19.500023">
<ele>263.5</ele>
<speed>11.4</speed>
<course>310.0</course>
<desc>Speed 11.4 km/h Distance 1.63 km</desc>
<time>2011-02-13T12:18:19.10</time>
<name>475</name>
</trkpt>
<trkpt lat="51.767723" lon="19.499982">
<ele>263.5</ele>
<speed>13.1</speed>
<course>312.7</course>
<desc>Speed 13.1 km/h Distance 1.64 km</desc>
<time>2011-02-13T12:18:20.10</time>
<name>476</name>
</trkpt>
<trkpt lat="51.767743" lon="19.499947">
<ele>263.5</ele>
<speed>12.0</speed>
<course>307.8</course>
<desc>Speed 12.0 km/h Distance 1.64 km</desc>
<time>2011-02-13T12:18:21.10</time>
<name>477</name>
</trkpt>
<trkpt lat="51.767763" lon="19.499905">
<ele>263.0</ele>
<speed>12.7</speed>
<course>310.1</course>
<desc>Speed 12.7 km/h Distance 1.64 km</desc>
<time>2011-02-13T12:18:22.10</time>
<name>478</name>
</trkpt>
<trkpt lat="51.767783" lon="19.499867">
<ele>263.5</ele>
<speed>12.4</speed>
<course>307.8</course>
<desc>Speed 12.4 km/h Distance 1.65 km</desc>
<time>2011-02-13T12:18:23.09</time>
<name>479</name>
</trkpt>
<trkpt lat="51.767803" lon="19.499825">
<ele>263.5</ele>
<speed>13.0</speed>
<course>310.0</course>
<desc>Speed 13.0 km/h Distance 1.65 km</desc>
<time>2011-02-13T12:18:24.10</time>
<name>480</name>
</trkpt>
<trkpt lat="51.767825" lon="19.499783">
<ele>263.0</ele>
<speed>12.8</speed>
<course>310.0</course>
<desc>Speed 12.8 km/h Distance 1.65 km</desc>
<time>2011-02-13T12:18:25.10</time>
<name>481</name>
</trkpt>
<trkpt lat="51.767847" lon="19.499742">
<ele>263.0</ele>
<speed>13.1</speed>
<course>311.4</course>
<desc>Speed 13.1 km/h Distance 1.66 km</desc>
<time>2011-02-13T12:18:26.09</time>
<name>482</name>
</trkpt>
<trkpt lat="51.767867" lon="19.499705">
<ele>263.5</ele>
<speed>12.2</speed>
<course>311.2</course>
<desc>Speed 12.2 km/h Distance 1.66 km</desc>
<time>2011-02-13T12:18:27.10</time>
<name>483</name>
</trkpt>
<trkpt lat="51.767888" lon="19.499665">
<ele>263.5</ele>
<speed>12.5</speed>
<course>313.7</course>
<desc>Speed 12.5 km/h Distance 1.67 km</desc>
<time>2011-02-13T12:18:28.09</time>
<name>484</name>
</trkpt>
<trkpt lat="51.767910" lon="19.499628">
<ele>263.5</ele>
<speed>12.3</speed>
<course>304.4</course>
<desc>Speed 12.3 km/h Distance 1.67 km</desc>
<time>2011-02-13T12:18:29.10</time>
<name>485</name>
</trkpt>
<trkpt lat="51.767928" lon="19.499585">
<ele>264.0</ele>
<speed>12.7</speed>
<course>311.4</course>
<desc>Speed 12.7 km/h Distance 1.67 km</desc>
<time>2011-02-13T12:18:30.10</time>
<name>486</name>
</trkpt>
<trkpt lat="51.767948" lon="19.499548">
<ele>264.0</ele>
<speed>12.0</speed>
<course>321.5</course>
<desc>Speed 12.0 km/h Distance 1.68 km</desc>
<time>2011-02-13T12:18:31.09</time>
<name>487</name>
</trkpt>
<trkpt lat="51.767972" lon="19.499518">
<ele>263.5</ele>
<speed>11.6</speed>
<course>321.5</course>
<desc>Speed 11.6 km/h Distance 1.68 km</desc>
<time>2011-02-13T12:18:32.09</time>
<name>488</name>
</trkpt>
<trkpt lat="51.767995" lon="19.499488">
<ele>263.5</ele>
<speed>11.3</speed>
<course>307.7</course>
<desc>Speed 11.3 km/h Distance 1.68 km</desc>
<time>2011-02-13T12:18:33.09</time>
<name>489</name>
</trkpt>
<trkpt lat="51.768013" lon="19.499450">
<ele>263.0</ele>
<speed>12.1</speed>
<course>284.6</course>
<desc>Speed 12.1 km/h Distance 1.69 km</desc>
<time>2011-02-13T12:18:34.09</time>
<name>490</name>
</trkpt>
<trkpt lat="51.768022" lon="19.499398">
<ele>265.0</ele>
<speed>12.7</speed>
<course>300.2</course>
<desc>Speed 12.7 km/h Distance 1.69 km</desc>
<time>2011-02-13T12:18:35.10</time>
<name>491</name>
</trkpt>
<trkpt lat="51.768037" lon="19.499357">
<ele>265.5</ele>
<speed>11.7</speed>
<course>307.8</course>
<desc>Speed 11.7 km/h Distance 1.69 km</desc>
<time>2011-02-13T12:18:36.09</time>
<name>492</name>
</trkpt>
<trkpt lat="51.768057" lon="19.499315">
<ele>265.5</ele>
<speed>12.6</speed>
<course>326.8</course>
<desc>Speed 12.6 km/h Distance 1.70 km</desc>
<time>2011-02-13T12:18:37.10</time>
<name>493</name>
</trkpt>
<trkpt lat="51.768085" lon="19.499285">
<ele>265.5</ele>
<speed>13.5</speed>
<course>306.5</course>
<desc>Speed 13.5 km/h Distance 1.70 km</desc>
<time>2011-02-13T12:18:38.10</time>
<name>494</name>
</trkpt>
<trkpt lat="51.768103" lon="19.499245">
<ele>264.5</ele>
<speed>12.0</speed>
<course>315.6</course>
<desc>Speed 12.0 km/h Distance 1.70 km</desc>
<time>2011-02-13T12:18:39.09</time>
<name>495</name>
</trkpt>
<trkpt lat="51.768123" lon="19.499213">
<ele>265.5</ele>
<speed>11.3</speed>
<course>298.3</course>
<desc>Speed 11.3 km/h Distance 1.71 km</desc>
<time>2011-02-13T12:18:40.10</time>
<name>496</name>
</trkpt>
<trkpt lat="51.768138" lon="19.499168">
<ele>267.0</ele>
<speed>12.0</speed>
<course>301.6</course>
<desc>Speed 12.0 km/h Distance 1.71 km</desc>
<time>2011-02-13T12:18:41.10</time>
<name>497</name>
</trkpt>
<trkpt lat="51.768152" lon="19.499133">
<ele>268.0</ele>
<speed>10.3</speed>
<course>304.0</course>
<desc>Speed 10.3 km/h Distance 1.71 km</desc>
<time>2011-02-13T12:18:42.10</time>
<name>498</name>
</trkpt>
<trkpt lat="51.768168" lon="19.499093">
<ele>269.0</ele>
<speed>11.6</speed>
<course>344.8</course>
<desc>Speed 11.6 km/h Distance 1.72 km</desc>
<time>2011-02-13T12:18:43.10</time>
<name>499</name>
</trkpt>
<trkpt lat="51.768195" lon="19.499082">
<ele>267.5</ele>
<speed>11.3</speed>
<course>350.8</course>
<desc>Speed 11.3 km/h Distance 1.72 km</desc>
<time>2011-02-13T12:18:44.10</time>
<name>500</name>
</trkpt>
<trkpt lat="51.768227" lon="19.499073">
<ele>266.0</ele>
<speed>12.4</speed>
<course>311.4</course>
<desc>Speed 12.4 km/h Distance 1.72 km</desc>
<time>2011-02-13T12:18:45.10</time>
<name>501</name>
</trkpt>
<trkpt lat="51.768247" lon="19.499037">
<ele>267.0</ele>
<speed>12.0</speed>
<course>336.4</course>
<desc>Speed 12.0 km/h Distance 1.73 km</desc>
<time>2011-02-13T12:18:46.09</time>
<name>502</name>
</trkpt>
<trkpt lat="51.768275" lon="19.499017">
<ele>266.5</ele>
<speed>12.0</speed>
<course>334.6</course>
<desc>Speed 12.0 km/h Distance 1.73 km</desc>
<time>2011-02-13T12:18:47.09</time>
<name>503</name>
</trkpt>
<trkpt lat="51.768297" lon="19.499000">
<ele>266.0</ele>
<speed>9.1</speed>
<course>337.6</course>
<desc>Speed 9.1 km/h Distance 1.73 km</desc>
<time>2011-02-13T12:18:48.10</time>
<name>504</name>
</trkpt>
<trkpt lat="51.768317" lon="19.498987">
<ele>264.5</ele>
<speed>7.5</speed>
<course>245.2</course>
<desc>Speed 7.5 km/h Distance 1.73 km</desc>
<time>2011-02-13T12:18:49.09</time>
<name>505</name>
</trkpt>
<trkpt lat="51.768303" lon="19.498940">
<ele>264.0</ele>
<speed>12.7</speed>
<course>283.5</course>
<desc>Speed 12.7 km/h Distance 1.74 km</desc>
<time>2011-02-13T12:18:50.10</time>
<name>506</name>
</trkpt>
<trkpt lat="51.768310" lon="19.498895">
<ele>263.0</ele>
<speed>11.8</speed>
<course>283.5</course>
<desc>Speed 11.8 km/h Distance 1.74 km</desc>
<time>2011-02-13T12:18:51.10</time>
<name>507</name>
</trkpt>
<trkpt lat="51.768317" lon="19.498850">
<ele>263.0</ele>
<speed>11.4</speed>
<course>278.9</course>
<desc>Speed 11.4 km/h Distance 1.74 km</desc>
<time>2011-02-13T12:18:52.09</time>
<name>508</name>
</trkpt>
<trkpt lat="51.768322" lon="19.498798">
<ele>263.0</ele>
<speed>12.8</speed>
<course>288.5</course>
<desc>Speed 12.8 km/h Distance 1.75 km</desc>
<time>2011-02-13T12:18:53.10</time>
<name>509</name>
</trkpt>
<trkpt lat="51.768332" lon="19.498750">
<ele>263.0</ele>
<speed>12.2</speed>
<course>291.3</course>
<desc>Speed 12.2 km/h Distance 1.75 km</desc>
<time>2011-02-13T12:18:54.10</time>
<name>510</name>
</trkpt>
<trkpt lat="51.768343" lon="19.498702">
<ele>262.0</ele>
<speed>12.7</speed>
<course>287.9</course>
<desc>Speed 12.7 km/h Distance 1.76 km</desc>
<time>2011-02-13T12:18:55.11</time>
<name>511</name>
</trkpt>
<trkpt lat="51.768353" lon="19.498652">
<ele>262.5</ele>
<speed>12.6</speed>
<course>288.9</course>
<desc>Speed 12.6 km/h Distance 1.76 km</desc>
<time>2011-02-13T12:18:56.09</time>
<name>512</name>
</trkpt>
<trkpt lat="51.768365" lon="19.498597">
<ele>262.5</ele>
<speed>14.0</speed>
<course>287.9</course>
<desc>Speed 14.0 km/h Distance 1.76 km</desc>
<time>2011-02-13T12:18:57.10</time>
<name>513</name>
</trkpt>
<trkpt lat="51.768373" lon="19.498555">
<ele>262.0</ele>
<speed>11.0</speed>
<course>286.9</course>
<desc>Speed 11.0 km/h Distance 1.77 km</desc>
<time>2011-02-13T12:18:58.10</time>
<name>514</name>
</trkpt>
<trkpt lat="51.768383" lon="19.498502">
<ele>263.0</ele>
<speed>13.8</speed>
<course>317.9</course>
<desc>Speed 13.8 km/h Distance 1.77 km</desc>
<time>2011-02-13T12:18:59.10</time>
<name>515</name>
</trkpt>
<trkpt lat="51.768405" lon="19.498470">
<ele>262.5</ele>
<speed>11.8</speed>
<course>334.7</course>
<desc>Speed 11.8 km/h Distance 1.77 km</desc>
<time>2011-02-13T12:19:00.10</time>
<name>516</name>
</trkpt>
<trkpt lat="51.768433" lon="19.498448">
<ele>261.5</ele>
<speed>12.2</speed>
<course>351.0</course>
<desc>Speed 12.2 km/h Distance 1.78 km</desc>
<time>2011-02-13T12:19:01.10</time>
<name>517</name>
</trkpt>
<trkpt lat="51.768460" lon="19.498442">
<ele>261.0</ele>
<speed>10.3</speed>
<course>338.2</course>
<desc>Speed 10.3 km/h Distance 1.78 km</desc>
<time>2011-02-13T12:19:02.10</time>
<name>518</name>
</trkpt>
<trkpt lat="51.768488" lon="19.498423">
<ele>260.5</ele>
<speed>11.4</speed>
<course>343.7</course>
<desc>Speed 11.4 km/h Distance 1.78 km</desc>
<time>2011-02-13T12:19:03.10</time>
<name>519</name>
</trkpt>
<trkpt lat="51.768517" lon="19.498410">
<ele>261.0</ele>
<speed>11.0</speed>
<course>346.5</course>
<desc>Speed 11.0 km/h Distance 1.79 km</desc>
<time>2011-02-13T12:19:04.09</time>
<name>520</name>
</trkpt>
<trkpt lat="51.768547" lon="19.498398">
<ele>260.0</ele>
<speed>11.6</speed>
<course>323.5</course>
<desc>Speed 11.6 km/h Distance 1.79 km</desc>
<time>2011-02-13T12:19:05.09</time>
<name>521</name>
</trkpt>
<trkpt lat="51.768563" lon="19.498378">
<ele>259.5</ele>
<speed>7.5</speed>
<course>308.9</course>
<desc>Speed 7.5 km/h Distance 1.79 km</desc>
<time>2011-02-13T12:19:06.09</time>
<name>522</name>
</trkpt>
<trkpt lat="51.768577" lon="19.498352">
<ele>259.0</ele>
<speed>8.3</speed>
<course>338.2</course>
<desc>Speed 8.3 km/h Distance 1.79 km</desc>
<time>2011-02-13T12:19:07.10</time>
<name>523</name>
</trkpt>
<trkpt lat="51.768605" lon="19.498333">
<ele>259.0</ele>
<speed>11.2</speed>
<course>330.1</course>
<desc>Speed 11.2 km/h Distance 1.80 km</desc>
<time>2011-02-13T12:19:08.10</time>
<name>524</name>
</trkpt>
<trkpt lat="51.768628" lon="19.498312">
<ele>259.5</ele>
<speed>10.2</speed>
<course>2.8</course>
<desc>Speed 10.2 km/h Distance 1.80 km</desc>
<time>2011-02-13T12:19:09.10</time>
<name>525</name>
</trkpt>
<trkpt lat="51.768645" lon="19.498312">
<ele>260.0</ele>
<speed>7.2</speed>
<course>341.6</course>
<desc>Speed 7.2 km/h Distance 1.80 km</desc>
<time>2011-02-13T12:19:10.10</time>
<name>526</name>
</trkpt>
<trkpt lat="51.768710" lon="19.498277">
<ele>259.0</ele>
<speed>11.7</speed>
<course>352.9</course>
<desc>Speed 11.7 km/h Distance 1.81 km</desc>
<time>2011-02-13T12:19:12.09</time>
<name>527</name>
</trkpt>
<trkpt lat="51.768743" lon="19.498270">
<ele>258.0</ele>
<speed>12.9</speed>
<course>335.1</course>
<desc>Speed 12.9 km/h Distance 1.81 km</desc>
<time>2011-02-13T12:19:13.09</time>
<name>528</name>
</trkpt>
<trkpt lat="51.768770" lon="19.498250">
<ele>258.5</ele>
<speed>10.7</speed>
<course>323.1</course>
<desc>Speed 10.7 km/h Distance 1.82 km</desc>
<time>2011-02-13T12:19:14.10</time>
<name>529</name>
</trkpt>
<trkpt lat="51.768793" lon="19.498222">
<ele>260.0</ele>
<speed>11.1</speed>
<course>342.8</course>
<desc>Speed 11.1 km/h Distance 1.82 km</desc>
<time>2011-02-13T12:19:15.10</time>
<name>530</name>
</trkpt>
<trkpt lat="51.768820" lon="19.498208">
<ele>260.0</ele>
<speed>10.0</speed>
<course>338.1</course>
<desc>Speed 10.0 km/h Distance 1.82 km</desc>
<time>2011-02-13T12:19:16.09</time>
<name>531</name>
</trkpt>
<trkpt lat="51.768848" lon="19.498190">
<ele>260.0</ele>
<speed>11.5</speed>
<course>326.5</course>
<desc>Speed 11.5 km/h Distance 1.83 km</desc>
<time>2011-02-13T12:19:17.10</time>
<name>532</name>
</trkpt>
<trkpt lat="51.768873" lon="19.498163">
<ele>261.0</ele>
<speed>11.5</speed>
<course>331.4</course>
<desc>Speed 11.5 km/h Distance 1.83 km</desc>
<time>2011-02-13T12:19:18.10</time>
<name>533</name>
</trkpt>
<trkpt lat="51.768902" lon="19.498138">
<ele>261.0</ele>
<speed>12.0</speed>
<course>353.1</course>
<desc>Speed 12.0 km/h Distance 1.83 km</desc>
<time>2011-02-13T12:19:19.10</time>
<name>534</name>
</trkpt>
<trkpt lat="51.768927" lon="19.498133">
<ele>261.0</ele>
<speed>8.9</speed>
<course>323.4</course>
<desc>Speed 8.9 km/h Distance 1.84 km</desc>
<time>2011-02-13T12:19:20.10</time>
<name>535</name>
</trkpt>
<trkpt lat="51.768952" lon="19.498103">
<ele>262.5</ele>
<speed>11.3</speed>
<course>335.6</course>
<desc>Speed 11.3 km/h Distance 1.84 km</desc>
<time>2011-02-13T12:19:21.09</time>
<name>536</name>
</trkpt>
<trkpt lat="51.768977" lon="19.498085">
<ele>262.5</ele>
<speed>9.9</speed>
<course>357.1</course>
<desc>Speed 9.9 km/h Distance 1.84 km</desc>
<time>2011-02-13T12:19:22.10</time>
<name>537</name>
</trkpt>
<trkpt lat="51.769012" lon="19.498082">
<ele>261.5</ele>
<speed>12.1</speed>
<course>334.0</course>
<desc>Speed 12.1 km/h Distance 1.85 km</desc>
<time>2011-02-13T12:19:23.09</time>
<name>538</name>
</trkpt>
<trkpt lat="51.769043" lon="19.498057">
<ele>262.0</ele>
<speed>12.3</speed>
<course>356.3</course>
<desc>Speed 12.3 km/h Distance 1.85 km</desc>
<time>2011-02-13T12:19:24.09</time>
<name>539</name>
</trkpt>
<trkpt lat="51.769072" lon="19.498053">
<ele>261.5</ele>
<speed>10.0</speed>
<course>335.6</course>
<desc>Speed 10.0 km/h Distance 1.85 km</desc>
<time>2011-02-13T12:19:25.10</time>
<name>540</name>
</trkpt>
<trkpt lat="51.769097" lon="19.498035">
<ele>262.5</ele>
<speed>10.1</speed>
<course>294.2</course>
<desc>Speed 10.1 km/h Distance 1.86 km</desc>
<time>2011-02-13T12:19:26.09</time>
<name>541</name>
</trkpt>
<trkpt lat="51.769105" lon="19.498005">
<ele>262.5</ele>
<speed>8.0</speed>
<course>348.3</course>
<desc>Speed 8.0 km/h Distance 1.86 km</desc>
<time>2011-02-13T12:19:27.10</time>
<name>542</name>
</trkpt>
<trkpt lat="51.769130" lon="19.497997">
<ele>261.5</ele>
<speed>9.3</speed>
<course>333.7</course>
<desc>Speed 9.3 km/h Distance 1.86 km</desc>
<time>2011-02-13T12:19:28.09</time>
<name>543</name>
</trkpt>
<trkpt lat="51.769155" lon="19.497977">
<ele>262.5</ele>
<speed>9.5</speed>
<course>324.7</course>
<desc>Speed 9.5 km/h Distance 1.87 km</desc>
<time>2011-02-13T12:19:29.09</time>
<name>544</name>
</trkpt>
<trkpt lat="51.769178" lon="19.497950">
<ele>263.5</ele>
<speed>11.1</speed>
<course>339.1</course>
<desc>Speed 11.1 km/h Distance 1.87 km</desc>
<time>2011-02-13T12:19:30.09</time>
<name>545</name>
</trkpt>
<trkpt lat="51.769213" lon="19.497928">
<ele>265.5</ele>
<speed>14.4</speed>
<course>4.9</course>
<desc>Speed 14.4 km/h Distance 1.87 km</desc>
<time>2011-02-13T12:19:31.09</time>
<name>546</name>
</trkpt>
<trkpt lat="51.769250" lon="19.497933">
<ele>264.0</ele>
<speed>13.5</speed>
<course>346.5</course>
<desc>Speed 13.5 km/h Distance 1.88 km</desc>
<time>2011-02-13T12:19:32.09</time>
<name>547</name>
</trkpt>
<trkpt lat="51.769280" lon="19.497922">
<ele>263.5</ele>
<speed>10.9</speed>
<course>349.1</course>
<desc>Speed 10.9 km/h Distance 1.88 km</desc>
<time>2011-02-13T12:19:33.09</time>
<name>548</name>
</trkpt>
<trkpt lat="51.769312" lon="19.497912">
<ele>263.0</ele>
<speed>11.1</speed>
<course>350.8</course>
<desc>Speed 11.1 km/h Distance 1.88 km</desc>
<time>2011-02-13T12:19:34.09</time>
<name>549</name>
</trkpt>
<trkpt lat="51.769343" lon="19.497903">
<ele>262.5</ele>
<speed>10.6</speed>
<course>342.7</course>
<desc>Speed 10.6 km/h Distance 1.89 km</desc>
<time>2011-02-13T12:19:35.09</time>
<name>550</name>
</trkpt>
<trkpt lat="51.769373" lon="19.497888">
<ele>262.5</ele>
<speed>10.3</speed>
<course>339.3</course>
<desc>Speed 10.3 km/h Distance 1.89 km</desc>
<time>2011-02-13T12:19:36.09</time>
<name>551</name>
</trkpt>
<trkpt lat="51.769403" lon="19.497870">
<ele>262.5</ele>
<speed>11.6</speed>
<course>335.1</course>
<desc>Speed 11.6 km/h Distance 1.89 km</desc>
<time>2011-02-13T12:19:37.09</time>
<name>552</name>
</trkpt>
<trkpt lat="51.769430" lon="19.497850">
<ele>262.5</ele>
<speed>11.2</speed>
<course>351.8</course>
<desc>Speed 11.2 km/h Distance 1.90 km</desc>
<time>2011-02-13T12:19:38.09</time>
<name>553</name>
</trkpt>
<trkpt lat="51.769458" lon="19.497843">
<ele>262.0</ele>
<speed>10.8</speed>
<course>338.3</course>
<desc>Speed 10.8 km/h Distance 1.90 km</desc>
<time>2011-02-13T12:19:39.10</time>
<name>554</name>
</trkpt>
<trkpt lat="51.769482" lon="19.497828">
<ele>262.0</ele>
<speed>9.4</speed>
<course>351.8</course>
<desc>Speed 9.4 km/h Distance 1.90 km</desc>
<time>2011-02-13T12:19:40.09</time>
<name>555</name>
</trkpt>
<trkpt lat="51.769510" lon="19.497822">
<ele>261.0</ele>
<speed>10.4</speed>
<course>326.5</course>
<desc>Speed 10.4 km/h Distance 1.91 km</desc>
<time>2011-02-13T12:19:41.09</time>
<name>556</name>
</trkpt>
<trkpt lat="51.769533" lon="19.497797">
<ele>262.0</ele>
<speed>10.1</speed>
<course>326.6</course>
<desc>Speed 10.1 km/h Distance 1.91 km</desc>
<time>2011-02-13T12:19:42.09</time>
<name>557</name>
</trkpt>
<trkpt lat="51.769558" lon="19.497770">
<ele>262.5</ele>
<speed>10.7</speed>
<course>341.8</course>
<desc>Speed 10.7 km/h Distance 1.91 km</desc>
<time>2011-02-13T12:19:43.10</time>
<name>558</name>
</trkpt>
<trkpt lat="51.769583" lon="19.497757">
<ele>262.5</ele>
<speed>9.8</speed>
<course>322.7</course>
<desc>Speed 9.8 km/h Distance 1.92 km</desc>
<time>2011-02-13T12:19:44.09</time>
<name>559</name>
</trkpt>
<trkpt lat="51.769605" lon="19.497730">
<ele>263.0</ele>
<speed>10.4</speed>
<course>314.1</course>
<desc>Speed 10.4 km/h Distance 1.92 km</desc>
<time>2011-02-13T12:19:45.09</time>
<name>560</name>
</trkpt>
<trkpt lat="51.769625" lon="19.497697">
<ele>264.0</ele>
<speed>10.4</speed>
<course>322.7</course>
<desc>Speed 10.4 km/h Distance 1.92 km</desc>
<time>2011-02-13T12:19:46.09</time>
<name>561</name>
</trkpt>
<trkpt lat="51.769647" lon="19.497670">
<ele>265.0</ele>
<speed>9.6</speed>
<course>323.1</course>
<desc>Speed 9.6 km/h Distance 1.93 km</desc>
<time>2011-02-13T12:19:47.09</time>
<name>562</name>
</trkpt>
<trkpt lat="51.769670" lon="19.497642">
<ele>266.0</ele>
<speed>10.0</speed>
<course>324.7</course>
<desc>Speed 10.0 km/h Distance 1.93 km</desc>
<time>2011-02-13T12:19:48.09</time>
<name>563</name>
</trkpt>
<trkpt lat="51.769693" lon="19.497615">
<ele>265.5</ele>
<speed>11.3</speed>
<course>307.7</course>
<desc>Speed 11.3 km/h Distance 1.93 km</desc>
<time>2011-02-13T12:19:49.09</time>
<name>564</name>
</trkpt>
<trkpt lat="51.769712" lon="19.497577">
<ele>266.0</ele>
<speed>11.1</speed>
<course>331.6</course>
<desc>Speed 11.1 km/h Distance 1.94 km</desc>
<time>2011-02-13T12:19:50.10</time>
<name>565</name>
</trkpt>
<trkpt lat="51.769738" lon="19.497553">
<ele>265.0</ele>
<speed>10.3</speed>
<course>315.0</course>
<desc>Speed 10.3 km/h Distance 1.94 km</desc>
<time>2011-02-13T12:19:51.09</time>
<name>566</name>
</trkpt>
<trkpt lat="51.769760" lon="19.497518">
<ele>266.0</ele>
<speed>11.4</speed>
<course>319.4</course>
<desc>Speed 11.4 km/h Distance 1.94 km</desc>
<time>2011-02-13T12:19:52.09</time>
<name>567</name>
</trkpt>
<trkpt lat="51.769782" lon="19.497488">
<ele>266.5</ele>
<speed>10.3</speed>
<course>300.2</course>
<desc>Speed 10.3 km/h Distance 1.95 km</desc>
<time>2011-02-13T12:19:53.09</time>
<name>568</name>
</trkpt>
<trkpt lat="51.769797" lon="19.497447">
<ele>267.0</ele>
<speed>11.7</speed>
<course>320.4</course>
<desc>Speed 11.7 km/h Distance 1.95 km</desc>
<time>2011-02-13T12:19:54.09</time>
<name>569</name>
</trkpt>
<trkpt lat="51.769817" lon="19.497420">
<ele>266.5</ele>
<speed>10.0</speed>
<course>307.7</course>
<desc>Speed 10.0 km/h Distance 1.95 km</desc>
<time>2011-02-13T12:19:55.09</time>
<name>570</name>
</trkpt>
<trkpt lat="51.769835" lon="19.497382">
<ele>266.5</ele>
<speed>11.6</speed>
<course>308.9</course>
<desc>Speed 11.6 km/h Distance 1.95 km</desc>
<time>2011-02-13T12:19:56.09</time>
<name>571</name>
</trkpt>
<trkpt lat="51.769855" lon="19.497342">
<ele>266.5</ele>
<speed>12.4</speed>
<course>303.3</course>
<desc>Speed 12.4 km/h Distance 1.96 km</desc>
<time>2011-02-13T12:19:57.09</time>
<name>572</name>
</trkpt>
<trkpt lat="51.769873" lon="19.497297">
<ele>266.0</ele>
<speed>13.0</speed>
<course>313.7</course>
<desc>Speed 13.0 km/h Distance 1.96 km</desc>
<time>2011-02-13T12:19:58.09</time>
<name>573</name>
</trkpt>
<trkpt lat="51.769895" lon="19.497260">
<ele>266.5</ele>
<speed>11.8</speed>
<course>323.4</course>
<desc>Speed 11.8 km/h Distance 1.97 km</desc>
<time>2011-02-13T12:19:59.09</time>
<name>574</name>
</trkpt>
<trkpt lat="51.769920" lon="19.497230">
<ele>266.5</ele>
<speed>11.3</speed>
<course>310.0</course>
<desc>Speed 11.3 km/h Distance 1.97 km</desc>
<time>2011-02-13T12:20:00.09</time>
<name>575</name>
</trkpt>
<trkpt lat="51.769942" lon="19.497188">
<ele>267.0</ele>
<speed>12.1</speed>
<course>312.7</course>
<desc>Speed 12.1 km/h Distance 1.97 km</desc>
<time>2011-02-13T12:20:01.09</time>
<name>576</name>
</trkpt>
<trkpt lat="51.769962" lon="19.497153">
<ele>266.5</ele>
<speed>12.1</speed>
<course>316.3</course>
<desc>Speed 12.1 km/h Distance 1.98 km</desc>
<time>2011-02-13T12:20:02.09</time>
<name>577</name>
</trkpt>
<trkpt lat="51.769980" lon="19.497125">
<ele>266.0</ele>
<speed>9.9</speed>
<course>319.9</course>
<desc>Speed 9.9 km/h Distance 1.98 km</desc>
<time>2011-02-13T12:20:03.09</time>
<name>578</name>
</trkpt>
<trkpt lat="51.769998" lon="19.497100">
<ele>265.0</ele>
<speed>8.8</speed>
<course>306.3</course>
<desc>Speed 8.8 km/h Distance 1.98 km</desc>
<time>2011-02-13T12:20:04.09</time>
<name>579</name>
</trkpt>
<trkpt lat="51.770015" lon="19.497063">
<ele>264.0</ele>
<speed>10.3</speed>
<course>317.1</course>
<desc>Speed 10.3 km/h Distance 1.98 km</desc>
<time>2011-02-13T12:20:05.09</time>
<name>580</name>
</trkpt>
<trkpt lat="51.770035" lon="19.497033">
<ele>263.0</ele>
<speed>10.4</speed>
<course>288.6</course>
<desc>Speed 10.4 km/h Distance 1.99 km</desc>
<time>2011-02-13T12:20:06.09</time>
<name>581</name>
</trkpt>
<trkpt lat="51.770043" lon="19.496993">
<ele>263.0</ele>
<speed>10.1</speed>
<course>290.4</course>
<desc>Speed 10.1 km/h Distance 1.99 km</desc>
<time>2011-02-13T12:20:07.08</time>
<name>582</name>
</trkpt>
<trkpt lat="51.770053" lon="19.496950">
<ele>263.5</ele>
<speed>11.7</speed>
<course>286.7</course>
<desc>Speed 11.7 km/h Distance 1.99 km</desc>
<time>2011-02-13T12:20:08.09</time>
<name>583</name>
</trkpt>
<trkpt lat="51.770062" lon="19.496905">
<ele>264.0</ele>
<speed>11.3</speed>
<course>288.5</course>
<desc>Speed 11.3 km/h Distance 2.00 km</desc>
<time>2011-02-13T12:20:09.08</time>
<name>584</name>
</trkpt>
<trkpt lat="51.770072" lon="19.496857">
<ele>265.0</ele>
<speed>12.2</speed>
<course>296.5</course>
<desc>Speed 12.2 km/h Distance 2.00 km</desc>
<time>2011-02-13T12:20:10.09</time>
<name>585</name>
</trkpt>
<trkpt lat="51.770085" lon="19.496813">
<ele>264.5</ele>
<speed>11.4</speed>
<course>288.8</course>
<desc>Speed 11.4 km/h Distance 2.00 km</desc>
<time>2011-02-13T12:20:11.08</time>
<name>586</name>
</trkpt>
<trkpt lat="51.770092" lon="19.496782">
<ele>264.5</ele>
<speed>8.5</speed>
<course>280.6</course>
<desc>Speed 8.5 km/h Distance 2.01 km</desc>
<time>2011-02-13T12:20:12.09</time>
<name>587</name>
</trkpt>
<trkpt lat="51.770097" lon="19.496738">
<ele>265.5</ele>
<speed>10.6</speed>
<course>275.8</course>
<desc>Speed 10.6 km/h Distance 2.01 km</desc>
<time>2011-02-13T12:20:13.09</time>
<name>588</name>
</trkpt>
<trkpt lat="51.770100" lon="19.496685">
<ele>267.0</ele>
<speed>13.4</speed>
<course>295.3</course>
<desc>Speed 13.4 km/h Distance 2.01 km</desc>
<time>2011-02-13T12:20:14.09</time>
<name>589</name>
</trkpt>
<trkpt lat="51.770112" lon="19.496645">
<ele>267.0</ele>
<speed>10.8</speed>
<course>305.1</course>
<desc>Speed 10.8 km/h Distance 2.02 km</desc>
<time>2011-02-13T12:20:15.09</time>
<name>590</name>
</trkpt>
<trkpt lat="51.770128" lon="19.496607">
<ele>266.0</ele>
<speed>11.8</speed>
<course>297.3</course>
<desc>Speed 11.8 km/h Distance 2.02 km</desc>
<time>2011-02-13T12:20:16.09</time>
<name>591</name>
</trkpt>
<trkpt lat="51.770142" lon="19.496565">
<ele>265.5</ele>
<speed>11.4</speed>
<course>280.5</course>
<desc>Speed 11.4 km/h Distance 2.02 km</desc>
<time>2011-02-13T12:20:17.09</time>
<name>592</name>
</trkpt>
<trkpt lat="51.770148" lon="19.496507">
<ele>265.5</ele>
<speed>14.6</speed>
<course>282.6</course>
<desc>Speed 14.6 km/h Distance 2.03 km</desc>
<time>2011-02-13T12:20:18.09</time>
<name>593</name>
</trkpt>
<trkpt lat="51.770155" lon="19.496458">
<ele>265.5</ele>
<speed>12.2</speed>
<course>270.0</course>
<desc>Speed 12.2 km/h Distance 2.03 km</desc>
<time>2011-02-13T12:20:19.09</time>
<name>594</name>
</trkpt>
<trkpt lat="51.770155" lon="19.496415">
<ele>265.5</ele>
<speed>10.5</speed>
<course>264.4</course>
<desc>Speed 10.5 km/h Distance 2.03 km</desc>
<time>2011-02-13T12:20:20.08</time>
<name>595</name>
</trkpt>
<trkpt lat="51.770152" lon="19.496360">
<ele>267.0</ele>
<speed>12.7</speed>
<course>272.9</course>
<desc>Speed 12.7 km/h Distance 2.04 km</desc>
<time>2011-02-13T12:20:21.08</time>
<name>596</name>
</trkpt>
<trkpt lat="51.770153" lon="19.496307">
<ele>267.0</ele>
<speed>12.4</speed>
<course>270.0</course>
<desc>Speed 12.4 km/h Distance 2.04 km</desc>
<time>2011-02-13T12:20:22.08</time>
<name>597</name>
</trkpt>
<trkpt lat="51.770153" lon="19.496272">
<ele>267.0</ele>
<speed>8.7</speed>
<course>270.0</course>
<desc>Speed 8.7 km/h Distance 2.04 km</desc>
<time>2011-02-13T12:20:23.09</time>
<name>598</name>
</trkpt>
<trkpt lat="51.770153" lon="19.496217">
<ele>267.5</ele>
<speed>13.2</speed>
<course>276.4</course>
<desc>Speed 13.2 km/h Distance 2.05 km</desc>
<time>2011-02-13T12:20:24.09</time>
<name>599</name>
</trkpt>
<trkpt lat="51.770157" lon="19.496168">
<ele>267.5</ele>
<speed>11.4</speed>
<course>275.3</course>
<desc>Speed 11.4 km/h Distance 2.05 km</desc>
<time>2011-02-13T12:20:25.08</time>
<name>600</name>
</trkpt>
<trkpt lat="51.770160" lon="19.496110">
<ele>268.5</ele>
<speed>13.9</speed>
<course>273.6</course>
<desc>Speed 13.9 km/h Distance 2.05 km</desc>
<time>2011-02-13T12:20:26.09</time>
<name>601</name>
</trkpt>
<trkpt lat="51.770162" lon="19.496067">
<ele>269.0</ele>
<speed>10.3</speed>
<course>273.3</course>
<desc>Speed 10.3 km/h Distance 2.06 km</desc>
<time>2011-02-13T12:20:27.08</time>
<name>602</name>
</trkpt>
<trkpt lat="51.770163" lon="19.496020">
<ele>268.5</ele>
<speed>12.3</speed>
<course>270.0</course>
<desc>Speed 12.3 km/h Distance 2.06 km</desc>
<time>2011-02-13T12:20:28.08</time>
<name>603</name>
</trkpt>
<trkpt lat="51.770163" lon="19.495977">
<ele>268.5</ele>
<speed>10.9</speed>
<course>258.6</course>
<desc>Speed 10.9 km/h Distance 2.06 km</desc>
<time>2011-02-13T12:20:29.08</time>
<name>604</name>
</trkpt>
<trkpt lat="51.770157" lon="19.495923">
<ele>269.5</ele>
<speed>14.0</speed>
<course>262.0</course>
<desc>Speed 14.0 km/h Distance 2.07 km</desc>
<time>2011-02-13T12:20:30.09</time>
<name>605</name>
</trkpt>
<trkpt lat="51.770153" lon="19.495885">
<ele>269.5</ele>
<speed>9.8</speed>
<course>234.1</course>
<desc>Speed 9.8 km/h Distance 2.07 km</desc>
<time>2011-02-13T12:20:31.09</time>
<name>606</name>
</trkpt>
<trkpt lat="51.770132" lon="19.495837">
<ele>271.5</ele>
<speed>15.6</speed>
<course>294.8</course>
<desc>Speed 15.6 km/h Distance 2.07 km</desc>
<time>2011-02-13T12:20:32.09</time>
<name>607</name>
</trkpt>
<trkpt lat="51.770142" lon="19.495802">
<ele>269.0</ele>
<speed>10.0</speed>
<course>255.4</course>
<desc>Speed 10.0 km/h Distance 2.08 km</desc>
<time>2011-02-13T12:20:33.10</time>
<name>608</name>
</trkpt>
<trkpt lat="51.770133" lon="19.495750">
<ele>269.5</ele>
<speed>13.6</speed>
<course>270.0</course>
<desc>Speed 13.6 km/h Distance 2.08 km</desc>
<time>2011-02-13T12:20:34.09</time>
<name>609</name>
</trkpt>
<trkpt lat="51.770133" lon="19.495707">
<ele>269.5</ele>
<speed>11.2</speed>
<course>289.3</course>
<desc>Speed 11.2 km/h Distance 2.08 km</desc>
<time>2011-02-13T12:20:35.08</time>
<name>610</name>
</trkpt>
<trkpt lat="51.770142" lon="19.495668">
<ele>267.5</ele>
<speed>10.4</speed>
<course>270.0</course>
<desc>Speed 10.4 km/h Distance 2.09 km</desc>
<time>2011-02-13T12:20:36.09</time>
<name>611</name>
</trkpt>
<trkpt lat="51.770142" lon="19.495612">
<ele>268.0</ele>
<speed>15.2</speed>
<course>257.0</course>
<desc>Speed 15.2 km/h Distance 2.09 km</desc>
<time>2011-02-13T12:20:37.09</time>
<name>612</name>
</trkpt>
<trkpt lat="51.770135" lon="19.495565">
<ele>268.0</ele>
<speed>10.9</speed>
<course>263.9</course>
<desc>Speed 10.9 km/h Distance 2.09 km</desc>
<time>2011-02-13T12:20:38.09</time>
<name>613</name>
</trkpt>
<trkpt lat="51.770132" lon="19.495515">
<ele>268.5</ele>
<speed>11.5</speed>
<course>262.5</course>
<desc>Speed 11.5 km/h Distance 2.10 km</desc>
<time>2011-02-13T12:20:39.09</time>
<name>614</name>
</trkpt>
<trkpt lat="51.770127" lon="19.495453">
<ele>268.5</ele>
<speed>13.9</speed>
<course>273.0</course>
<desc>Speed 13.9 km/h Distance 2.10 km</desc>
<time>2011-02-13T12:20:40.09</time>
<name>615</name>
</trkpt>
<trkpt lat="51.770128" lon="19.495402">
<ele>268.5</ele>
<speed>12.5</speed>
<course>267.0</course>
<desc>Speed 12.5 km/h Distance 2.10 km</desc>
<time>2011-02-13T12:20:41.09</time>
<name>616</name>
</trkpt>
<trkpt lat="51.770127" lon="19.495350">
<ele>268.5</ele>
<speed>13.1</speed>
<course>264.6</course>
<desc>Speed 13.1 km/h Distance 2.11 km</desc>
<time>2011-02-13T12:20:42.08</time>
<name>617</name>
</trkpt>
<trkpt lat="51.770123" lon="19.495293">
<ele>269.0</ele>
<speed>14.0</speed>
<course>258.9</course>
<desc>Speed 14.0 km/h Distance 2.11 km</desc>
<time>2011-02-13T12:20:43.09</time>
<name>618</name>
</trkpt>
<trkpt lat="51.770117" lon="19.495238">
<ele>270.0</ele>
<speed>14.4</speed>
<course>259.0</course>
<desc>Speed 14.4 km/h Distance 2.12 km</desc>
<time>2011-02-13T12:20:44.08</time>
<name>619</name>
</trkpt>
<trkpt lat="51.770112" lon="19.495197">
<ele>270.0</ele>
<speed>10.6</speed>
<course>249.2</course>
<desc>Speed 10.6 km/h Distance 2.12 km</desc>
<time>2011-02-13T12:20:45.08</time>
<name>620</name>
</trkpt>
<trkpt lat="51.770098" lon="19.495140">
<ele>271.5</ele>
<speed>14.5</speed>
<course>256.6</course>
<desc>Speed 14.5 km/h Distance 2.12 km</desc>
<time>2011-02-13T12:20:46.09</time>
<name>621</name>
</trkpt>
<trkpt lat="51.770090" lon="19.495083">
<ele>272.5</ele>
<speed>12.8</speed>
<course>242.9</course>
<desc>Speed 12.8 km/h Distance 2.13 km</desc>
<time>2011-02-13T12:20:47.09</time>
<name>622</name>
</trkpt>
<trkpt lat="51.770068" lon="19.495015">
<ele>275.5</ele>
<speed>15.6</speed>
<course>254.6</course>
<desc>Speed 15.6 km/h Distance 2.13 km</desc>
<time>2011-02-13T12:20:48.09</time>
<name>623</name>
</trkpt>
<trkpt lat="51.770057" lon="19.494947">
<ele>278.0</ele>
<speed>15.3</speed>
<course>264.0</course>
<desc>Speed 15.3 km/h Distance 2.14 km</desc>
<time>2011-02-13T12:20:49.09</time>
<name>624</name>
</trkpt>
<trkpt lat="51.770053" lon="19.494895">
<ele>278.0</ele>
<speed>13.2</speed>
<course>261.9</course>
<desc>Speed 13.2 km/h Distance 2.14 km</desc>
<time>2011-02-13T12:20:50.09</time>
<name>625</name>
</trkpt>
<trkpt lat="51.770048" lon="19.494838">
<ele>278.5</ele>
<speed>14.0</speed>
<course>254.1</course>
<desc>Speed 14.0 km/h Distance 2.14 km</desc>
<time>2011-02-13T12:20:51.09</time>
<name>626</name>
</trkpt>
<trkpt lat="51.770038" lon="19.494782">
<ele>279.5</ele>
<speed>15.2</speed>
<course>254.5</course>
<desc>Speed 15.2 km/h Distance 2.15 km</desc>
<time>2011-02-13T12:20:52.09</time>
<name>627</name>
</trkpt>
<trkpt lat="51.770028" lon="19.494723">
<ele>280.0</ele>
<speed>14.1</speed>
<course>253.4</course>
<desc>Speed 14.1 km/h Distance 2.15 km</desc>
<time>2011-02-13T12:20:53.09</time>
<name>628</name>
</trkpt>
<trkpt lat="51.770017" lon="19.494660">
<ele>281.5</ele>
<speed>15.1</speed>
<course>260.5</course>
<desc>Speed 15.1 km/h Distance 2.16 km</desc>
<time>2011-02-13T12:20:54.09</time>
<name>629</name>
</trkpt>
<trkpt lat="51.770012" lon="19.494612">
<ele>281.5</ele>
<speed>12.7</speed>
<course>258.6</course>
<desc>Speed 12.7 km/h Distance 2.16 km</desc>
<time>2011-02-13T12:20:55.09</time>
<name>630</name>
</trkpt>
<trkpt lat="51.770005" lon="19.494558">
<ele>281.0</ele>
<speed>13.9</speed>
<course>270.0</course>
<desc>Speed 13.9 km/h Distance 2.16 km</desc>
<time>2011-02-13T12:20:56.09</time>
<name>631</name>
</trkpt>
<trkpt lat="51.770005" lon="19.494508">
<ele>280.5</ele>
<speed>13.0</speed>
<course>276.4</course>
<desc>Speed 13.0 km/h Distance 2.17 km</desc>
<time>2011-02-13T12:20:57.09</time>
<name>632</name>
</trkpt>
<trkpt lat="51.770008" lon="19.494460">
<ele>279.5</ele>
<speed>13.2</speed>
<course>266.8</course>
<desc>Speed 13.2 km/h Distance 2.17 km</desc>
<time>2011-02-13T12:20:58.09</time>
<name>633</name>
</trkpt>
<trkpt lat="51.770007" lon="19.494412">
<ele>279.0</ele>
<speed>13.4</speed>
<course>260.2</course>
<desc>Speed 13.4 km/h Distance 2.17 km</desc>
<time>2011-02-13T12:20:59.09</time>
<name>634</name>
</trkpt>
<trkpt lat="51.770002" lon="19.494365">
<ele>278.5</ele>
<speed>12.3</speed>
<course>249.6</course>
<desc>Speed 12.3 km/h Distance 2.18 km</desc>
<time>2011-02-13T12:21:00.09</time>
<name>635</name>
</trkpt>
<trkpt lat="51.769987" lon="19.494300">
<ele>280.5</ele>
<speed>16.1</speed>
<course>267.1</course>
<desc>Speed 16.1 km/h Distance 2.18 km</desc>
<time>2011-02-13T12:21:01.09</time>
<name>636</name>
</trkpt>
<trkpt lat="51.769985" lon="19.494247">
<ele>280.5</ele>
<speed>12.0</speed>
<course>267.2</course>
<desc>Speed 12.0 km/h Distance 2.19 km</desc>
<time>2011-02-13T12:21:02.09</time>
<name>637</name>
</trkpt>
<trkpt lat="51.769983" lon="19.494192">
<ele>279.5</ele>
<speed>13.4</speed>
<course>273.4</course>
<desc>Speed 13.4 km/h Distance 2.19 km</desc>
<time>2011-02-13T12:21:03.09</time>
<name>638</name>
</trkpt>
<trkpt lat="51.769985" lon="19.494147">
<ele>278.5</ele>
<speed>10.9</speed>
<course>272.8</course>
<desc>Speed 10.9 km/h Distance 2.19 km</desc>
<time>2011-02-13T12:21:04.09</time>
<name>639</name>
</trkpt>
<trkpt lat="51.769987" lon="19.494092">
<ele>278.0</ele>
<speed>14.0</speed>
<course>284.5</course>
<desc>Speed 14.0 km/h Distance 2.20 km</desc>
<time>2011-02-13T12:21:05.09</time>
<name>640</name>
</trkpt>
<trkpt lat="51.769993" lon="19.494050">
<ele>277.0</ele>
<speed>10.5</speed>
<course>283.8</course>
<desc>Speed 10.5 km/h Distance 2.20 km</desc>
<time>2011-02-13T12:21:06.08</time>
<name>641</name>
</trkpt>
<trkpt lat="51.770002" lon="19.493995">
<ele>276.5</ele>
<speed>14.1</speed>
<course>258.9</course>
<desc>Speed 14.1 km/h Distance 2.20 km</desc>
<time>2011-02-13T12:21:07.08</time>
<name>642</name>
</trkpt>
<trkpt lat="51.769995" lon="19.493940">
<ele>278.0</ele>
<speed>15.1</speed>
<course>257.3</course>
<desc>Speed 15.1 km/h Distance 2.21 km</desc>
<time>2011-02-13T12:21:08.09</time>
<name>643</name>
</trkpt>
<trkpt lat="51.769987" lon="19.493880">
<ele>279.0</ele>
<speed>15.3</speed>
<course>256.2</course>
<desc>Speed 15.3 km/h Distance 2.21 km</desc>
<time>2011-02-13T12:21:09.09</time>
<name>644</name>
</trkpt>
<trkpt lat="51.769978" lon="19.493825">
<ele>280.0</ele>
<speed>14.2</speed>
<course>267.1</course>
<desc>Speed 14.2 km/h Distance 2.22 km</desc>
<time>2011-02-13T12:21:10.08</time>
<name>645</name>
</trkpt>
<trkpt lat="51.769977" lon="19.493772">
<ele>279.5</ele>
<speed>13.2</speed>
<course>259.8</course>
<desc>Speed 13.2 km/h Distance 2.22 km</desc>
<time>2011-02-13T12:21:11.08</time>
<name>646</name>
</trkpt>
<trkpt lat="51.769972" lon="19.493727">
<ele>279.5</ele>
<speed>12.9</speed>
<course>263.6</course>
<desc>Speed 12.9 km/h Distance 2.22 km</desc>
<time>2011-02-13T12:21:12.08</time>
<name>647</name>
</trkpt>
<trkpt lat="51.769968" lon="19.493678">
<ele>279.0</ele>
<speed>12.3</speed>
<course>270.0</course>
<desc>Speed 12.3 km/h Distance 2.23 km</desc>
<time>2011-02-13T12:21:13.08</time>
<name>648</name>
</trkpt>
<trkpt lat="51.769968" lon="19.493632">
<ele>279.0</ele>
<speed>11.1</speed>
<course>266.8</course>
<desc>Speed 11.1 km/h Distance 2.23 km</desc>
<time>2011-02-13T12:21:14.08</time>
<name>649</name>
</trkpt>
<trkpt lat="51.769967" lon="19.493583">
<ele>279.0</ele>
<speed>11.4</speed>
<course>252.1</course>
<desc>Speed 11.4 km/h Distance 2.23 km</desc>
<time>2011-02-13T12:21:15.08</time>
<name>650</name>
</trkpt>
<trkpt lat="51.769955" lon="19.493525">
<ele>280.0</ele>
<speed>13.9</speed>
<course>249.7</course>
<desc>Speed 13.9 km/h Distance 2.24 km</desc>
<time>2011-02-13T12:21:16.09</time>
<name>651</name>
</trkpt>
<trkpt lat="51.769942" lon="19.493467">
<ele>281.0</ele>
<speed>15.0</speed>
<course>270.0</course>
<desc>Speed 15.0 km/h Distance 2.24 km</desc>
<time>2011-02-13T12:21:17.08</time>
<name>652</name>
</trkpt>
<trkpt lat="51.769942" lon="19.493418">
<ele>280.0</ele>
<speed>12.2</speed>
<course>258.3</course>
<desc>Speed 12.2 km/h Distance 2.24 km</desc>
<time>2011-02-13T12:21:18.08</time>
<name>653</name>
</trkpt>
<trkpt lat="51.769933" lon="19.493353">
<ele>280.5</ele>
<speed>16.9</speed>
<course>270.0</course>
<desc>Speed 16.9 km/h Distance 2.25 km</desc>
<time>2011-02-13T12:21:19.08</time>
<name>654</name>
</trkpt>
<trkpt lat="51.769933" lon="19.493310">
<ele>280.0</ele>
<speed>11.4</speed>
<course>254.9</course>
<desc>Speed 11.4 km/h Distance 2.25 km</desc>
<time>2011-02-13T12:21:20.09</time>
<name>655</name>
</trkpt>
<trkpt lat="51.769925" lon="19.493260">
<ele>280.5</ele>
<speed>13.5</speed>
<course>264.0</course>
<desc>Speed 13.5 km/h Distance 2.26 km</desc>
<time>2011-02-13T12:21:21.09</time>
<name>656</name>
</trkpt>
<trkpt lat="51.769922" lon="19.493208">
<ele>280.5</ele>
<speed>12.9</speed>
<course>266.9</course>
<desc>Speed 12.9 km/h Distance 2.26 km</desc>
<time>2011-02-13T12:21:22.08</time>
<name>657</name>
</trkpt>
<trkpt lat="51.769920" lon="19.493158">
<ele>280.5</ele>
<speed>12.3</speed>
<course>253.0</course>
<desc>Speed 12.3 km/h Distance 2.26 km</desc>
<time>2011-02-13T12:21:23.08</time>
<name>658</name>
</trkpt>
<trkpt lat="51.769908" lon="19.493097">
<ele>282.0</ele>
<speed>15.2</speed>
<course>257.7</course>
<desc>Speed 15.2 km/h Distance 2.27 km</desc>
<time>2011-02-13T12:21:24.09</time>
<name>659</name>
</trkpt>
<trkpt lat="51.769900" lon="19.493035">
<ele>283.5</ele>
<speed>13.9</speed>
<course>253.6</course>
<desc>Speed 13.9 km/h Distance 2.27 km</desc>
<time>2011-02-13T12:21:25.08</time>
<name>660</name>
</trkpt>
<trkpt lat="51.769890" lon="19.492980">
<ele>285.0</ele>
<speed>11.2</speed>
<course>257.4</course>
<desc>Speed 11.2 km/h Distance 2.28 km</desc>
<time>2011-02-13T12:21:26.08</time>
<name>661</name>
</trkpt>
<trkpt lat="51.769882" lon="19.492920">
<ele>286.0</ele>
<speed>13.9</speed>
<course>270.0</course>
<desc>Speed 13.9 km/h Distance 2.28 km</desc>
<time>2011-02-13T12:21:27.08</time>
<name>662</name>
</trkpt>
<trkpt lat="51.769882" lon="19.492873">
<ele>285.5</ele>
<speed>11.7</speed>
<course>270.0</course>
<desc>Speed 11.7 km/h Distance 2.28 km</desc>
<time>2011-02-13T12:21:28.08</time>
<name>663</name>
</trkpt>
<trkpt lat="51.769882" lon="19.492840">
<ele>284.5</ele>
<speed>8.4</speed>
<course>252.1</course>
<desc>Speed 8.4 km/h Distance 2.29 km</desc>
<time>2011-02-13T12:21:29.08</time>
<name>664</name>
</trkpt>
<trkpt lat="51.769875" lon="19.492807">
<ele>284.0</ele>
<speed>9.6</speed>
<course>258.6</course>
<desc>Speed 9.6 km/h Distance 2.29 km</desc>
<time>2011-02-13T12:21:30.08</time>
<name>665</name>
</trkpt>
<trkpt lat="51.769872" lon="19.492780">
<ele>283.5</ele>
<speed>9.6</speed>
<course>250.3</course>
<desc>Speed 9.6 km/h Distance 2.29 km</desc>
<time>2011-02-13T12:21:31.08</time>
<name>666</name>
</trkpt>
<trkpt lat="51.769858" lon="19.492720">
<ele>285.5</ele>
<speed>15.9</speed>
<course>257.0</course>
<desc>Speed 15.9 km/h Distance 2.29 km</desc>
<time>2011-02-13T12:21:32.08</time>
<name>667</name>
</trkpt>
<trkpt lat="51.769850" lon="19.492662">
<ele>286.5</ele>
<speed>15.8</speed>
<course>262.1</course>
<desc>Speed 15.8 km/h Distance 2.30 km</desc>
<time>2011-02-13T12:21:33.08</time>
<name>668</name>
</trkpt>
<trkpt lat="51.769845" lon="19.492603">
<ele>287.0</ele>
<speed>13.5</speed>
<course>264.0</course>
<desc>Speed 13.5 km/h Distance 2.30 km</desc>
<time>2011-02-13T12:21:34.08</time>
<name>669</name>
</trkpt>
<trkpt lat="51.769842" lon="19.492552">
<ele>287.0</ele>
<speed>11.9</speed>
<course>262.3</course>
<desc>Speed 11.9 km/h Distance 2.31 km</desc>
<time>2011-02-13T12:21:35.09</time>
<name>670</name>
</trkpt>
<trkpt lat="51.769837" lon="19.492492">
<ele>287.5</ele>
<speed>13.2</speed>
<course>254.2</course>
<desc>Speed 13.2 km/h Distance 2.31 km</desc>
<time>2011-02-13T12:21:36.08</time>
<name>671</name>
</trkpt>
<trkpt lat="51.769825" lon="19.492425">
<ele>289.0</ele>
<speed>15.4</speed>
<course>270.0</course>
<desc>Speed 15.4 km/h Distance 2.31 km</desc>
<time>2011-02-13T12:21:37.08</time>
<name>672</name>
</trkpt>
<trkpt lat="51.769825" lon="19.492363">
<ele>289.0</ele>
<speed>12.8</speed>
<course>262.7</course>
<desc>Speed 12.8 km/h Distance 2.32 km</desc>
<time>2011-02-13T12:21:38.08</time>
<name>673</name>
</trkpt>
<trkpt lat="51.769820" lon="19.492300">
<ele>290.0</ele>
<speed>13.0</speed>
<course>276.8</course>
<desc>Speed 13.0 km/h Distance 2.32 km</desc>
<time>2011-02-13T12:21:39.08</time>
<name>674</name>
</trkpt>
<trkpt lat="51.769823" lon="19.492255">
<ele>288.0</ele>
<speed>10.2</speed>
<course>264.2</course>
<desc>Speed 10.2 km/h Distance 2.33 km</desc>
<time>2011-02-13T12:21:40.08</time>
<name>675</name>
</trkpt>
<trkpt lat="51.769820" lon="19.492202">
<ele>288.0</ele>
<speed>12.0</speed>
<course>255.8</course>
<desc>Speed 12.0 km/h Distance 2.33 km</desc>
<time>2011-02-13T12:21:41.08</time>
<name>676</name>
</trkpt>
<trkpt lat="51.769812" lon="19.492148">
<ele>288.0</ele>
<speed>12.9</speed>
<course>257.8</course>
<desc>Speed 12.9 km/h Distance 2.33 km</desc>
<time>2011-02-13T12:21:42.07</time>
<name>677</name>
</trkpt>
<trkpt lat="51.769805" lon="19.492098">
<ele>288.0</ele>
<speed>11.8</speed>
<course>250.7</course>
<desc>Speed 11.8 km/h Distance 2.34 km</desc>
<time>2011-02-13T12:21:43.08</time>
<name>678</name>
</trkpt>
<trkpt lat="51.769792" lon="19.492037">
<ele>289.0</ele>
<speed>15.5</speed>
<course>263.4</course>
<desc>Speed 15.5 km/h Distance 2.34 km</desc>
<time>2011-02-13T12:21:44.08</time>
<name>679</name>
</trkpt>
<trkpt lat="51.769788" lon="19.491990">
<ele>288.5</ele>
<speed>12.1</speed>
<course>259.8</course>
<desc>Speed 12.1 km/h Distance 2.35 km</desc>
<time>2011-02-13T12:21:45.08</time>
<name>680</name>
</trkpt>
<trkpt lat="51.769783" lon="19.491945">
<ele>288.0</ele>
<speed>11.2</speed>
<course>256.6</course>
<desc>Speed 11.2 km/h Distance 2.35 km</desc>
<time>2011-02-13T12:21:46.08</time>
<name>681</name>
</trkpt>
<trkpt lat="51.769775" lon="19.491888">
<ele>290.0</ele>
<speed>13.9</speed>
<course>254.9</course>
<desc>Speed 13.9 km/h Distance 2.35 km</desc>
<time>2011-02-13T12:21:47.08</time>
<name>682</name>
</trkpt>
<trkpt lat="51.769767" lon="19.491838">
<ele>289.5</ele>
<speed>13.0</speed>
<course>258.2</course>
<desc>Speed 13.0 km/h Distance 2.36 km</desc>
<time>2011-02-13T12:21:48.08</time>
<name>683</name>
</trkpt>
<trkpt lat="51.769760" lon="19.491787">
<ele>290.0</ele>
<speed>13.2</speed>
<course>270.0</course>
<desc>Speed 13.2 km/h Distance 2.36 km</desc>
<time>2011-02-13T12:21:49.08</time>
<name>684</name>
</trkpt>
<trkpt lat="51.769760" lon="19.491742">
<ele>288.5</ele>
<speed>11.3</speed>
<course>249.9</course>
<desc>Speed 11.3 km/h Distance 2.36 km</desc>
<time>2011-02-13T12:21:50.08</time>
<name>685</name>
</trkpt>
<trkpt lat="51.769748" lon="19.491690">
<ele>290.0</ele>
<speed>13.4</speed>
<course>251.7</course>
<desc>Speed 13.4 km/h Distance 2.37 km</desc>
<time>2011-02-13T12:21:51.08</time>
<name>686</name>
</trkpt>
<trkpt lat="51.769735" lon="19.491625">
<ele>291.5</ele>
<speed>16.1</speed>
<course>251.2</course>
<desc>Speed 16.1 km/h Distance 2.37 km</desc>
<time>2011-02-13T12:21:52.08</time>
<name>687</name>
</trkpt>
<trkpt lat="51.769722" lon="19.491562">
<ele>292.5</ele>
<speed>14.8</speed>
<course>266.7</course>
<desc>Speed 14.8 km/h Distance 2.38 km</desc>
<time>2011-02-13T12:21:53.07</time>
<name>688</name>
</trkpt>
<trkpt lat="51.769720" lon="19.491515">
<ele>292.5</ele>
<speed>12.1</speed>
<course>277.1</course>
<desc>Speed 12.1 km/h Distance 2.38 km</desc>
<time>2011-02-13T12:21:54.08</time>
<name>689</name>
</trkpt>
<trkpt lat="51.769723" lon="19.491472">
<ele>291.0</ele>
<speed>10.2</speed>
<course>259.5</course>
<desc>Speed 10.2 km/h Distance 2.38 km</desc>
<time>2011-02-13T12:21:55.08</time>
<name>690</name>
</trkpt>
<trkpt lat="51.769710" lon="19.491355">
<ele>293.0</ele>
<speed>12.3</speed>
<course>257.8</course>
<desc>Speed 12.3 km/h Distance 2.39 km</desc>
<time>2011-02-13T12:21:57.08</time>
<name>691</name>
</trkpt>
<trkpt lat="51.769703" lon="19.491305">
<ele>292.5</ele>
<speed>12.9</speed>
<course>260.1</course>
<desc>Speed 12.9 km/h Distance 2.39 km</desc>
<time>2011-02-13T12:21:58.08</time>
<name>692</name>
</trkpt>
<trkpt lat="51.769697" lon="19.491243">
<ele>294.0</ele>
<speed>15.6</speed>
<course>264.4</course>
<desc>Speed 15.6 km/h Distance 2.40 km</desc>
<time>2011-02-13T12:21:59.08</time>
<name>693</name>
</trkpt>
<trkpt lat="51.769693" lon="19.491188">
<ele>294.0</ele>
<speed>12.9</speed>
<course>257.0</course>
<desc>Speed 12.9 km/h Distance 2.40 km</desc>
<time>2011-02-13T12:22:00.07</time>
<name>694</name>
</trkpt>
<trkpt lat="51.769687" lon="19.491142">
<ele>294.5</ele>
<speed>12.6</speed>
<course>253.3</course>
<desc>Speed 12.6 km/h Distance 2.40 km</desc>
<time>2011-02-13T12:22:01.08</time>
<name>695</name>
</trkpt>
<trkpt lat="51.769678" lon="19.491097">
<ele>294.0</ele>
<speed>12.3</speed>
<course>262.3</course>
<desc>Speed 12.3 km/h Distance 2.41 km</desc>
<time>2011-02-13T12:22:02.07</time>
<name>696</name>
</trkpt>
<trkpt lat="51.769675" lon="19.491057">
<ele>293.5</ele>
<speed>10.3</speed>
<course>265.0</course>
<desc>Speed 10.3 km/h Distance 2.41 km</desc>
<time>2011-02-13T12:22:03.08</time>
<name>697</name>
</trkpt>
<trkpt lat="51.769672" lon="19.490995">
<ele>293.0</ele>
<speed>15.5</speed>
<course>273.7</course>
<desc>Speed 15.5 km/h Distance 2.42 km</desc>
<time>2011-02-13T12:22:04.08</time>
<name>698</name>
</trkpt>
<trkpt lat="51.769673" lon="19.490953">
<ele>291.5</ele>
<speed>10.7</speed>
<course>284.3</course>
<desc>Speed 10.7 km/h Distance 2.42 km</desc>
<time>2011-02-13T12:22:05.08</time>
<name>699</name>
</trkpt>
<trkpt lat="51.769678" lon="19.490922">
<ele>289.5</ele>
<speed>8.0</speed>
<course>257.4</course>
<desc>Speed 8.0 km/h Distance 2.42 km</desc>
<time>2011-02-13T12:22:06.08</time>
<name>700</name>
</trkpt>
<trkpt lat="51.769672" lon="19.490873">
<ele>289.5</ele>
<speed>11.7</speed>
<course>266.7</course>
<desc>Speed 11.7 km/h Distance 2.42 km</desc>
<time>2011-02-13T12:22:07.08</time>
<name>701</name>
</trkpt>
<trkpt lat="51.769670" lon="19.490827">
<ele>289.0</ele>
<speed>11.8</speed>
<course>256.7</course>
<desc>Speed 11.8 km/h Distance 2.43 km</desc>
<time>2011-02-13T12:22:08.08</time>
<name>702</name>
</trkpt>
<trkpt lat="51.769660" lon="19.490758">
<ele>291.0</ele>
<speed>15.9</speed>
<course>257.3</course>
<desc>Speed 15.9 km/h Distance 2.43 km</desc>
<time>2011-02-13T12:22:09.08</time>
<name>703</name>
</trkpt>
<trkpt lat="51.769650" lon="19.490687">
<ele>292.0</ele>
<speed>16.6</speed>
<course>252.5</course>
<desc>Speed 16.6 km/h Distance 2.44 km</desc>
<time>2011-02-13T12:22:10.07</time>
<name>704</name>
</trkpt>
<trkpt lat="51.769637" lon="19.490618">
<ele>294.0</ele>
<speed>16.5</speed>
<course>265.3</course>
<desc>Speed 16.5 km/h Distance 2.44 km</desc>
<time>2011-02-13T12:22:11.08</time>
<name>705</name>
</trkpt>
<trkpt lat="51.769633" lon="19.490553">
<ele>293.0</ele>
<speed>16.8</speed>
<course>264.4</course>
<desc>Speed 16.8 km/h Distance 2.45 km</desc>
<time>2011-02-13T12:22:12.08</time>
<name>706</name>
</trkpt>
<trkpt lat="51.769630" lon="19.490498">
<ele>293.0</ele>
<speed>14.4</speed>
<course>257.7</course>
<desc>Speed 14.4 km/h Distance 2.45 km</desc>
<time>2011-02-13T12:22:13.08</time>
<name>707</name>
</trkpt>
<trkpt lat="51.769622" lon="19.490437">
<ele>294.0</ele>
<speed>15.5</speed>
<course>252.1</course>
<desc>Speed 15.5 km/h Distance 2.45 km</desc>
<time>2011-02-13T12:22:14.08</time>
<name>708</name>
</trkpt>
<trkpt lat="51.769610" lon="19.490378">
<ele>295.5</ele>
<speed>14.7</speed>
<course>250.3</course>
<desc>Speed 14.7 km/h Distance 2.46 km</desc>
<time>2011-02-13T12:22:15.08</time>
<name>709</name>
</trkpt>
<trkpt lat="51.769597" lon="19.490318">
<ele>296.5</ele>
<speed>16.1</speed>
<course>266.7</course>
<desc>Speed 16.1 km/h Distance 2.46 km</desc>
<time>2011-02-13T12:22:16.07</time>
<name>710</name>
</trkpt>
<trkpt lat="51.769595" lon="19.490272">
<ele>295.5</ele>
<speed>11.8</speed>
<course>254.9</course>
<desc>Speed 11.8 km/h Distance 2.47 km</desc>
<time>2011-02-13T12:22:17.07</time>
<name>711</name>
</trkpt>
<trkpt lat="51.769587" lon="19.490222">
<ele>296.0</ele>
<speed>13.7</speed>
<course>267.2</course>
<desc>Speed 13.7 km/h Distance 2.47 km</desc>
<time>2011-02-13T12:22:18.07</time>
<name>712</name>
</trkpt>
<trkpt lat="51.769585" lon="19.490167">
<ele>295.0</ele>
<speed>14.7</speed>
<course>264.7</course>
<desc>Speed 14.7 km/h Distance 2.47 km</desc>
<time>2011-02-13T12:22:19.08</time>
<name>713</name>
</trkpt>
<trkpt lat="51.769582" lon="19.490108">
<ele>295.5</ele>
<speed>14.4</speed>
<course>270.0</course>
<desc>Speed 14.4 km/h Distance 2.48 km</desc>
<time>2011-02-13T12:22:20.08</time>
<name>714</name>
</trkpt>
<trkpt lat="51.769582" lon="19.490063">
<ele>294.5</ele>
<speed>12.0</speed>
<course>279.8</course>
<desc>Speed 12.0 km/h Distance 2.48 km</desc>
<time>2011-02-13T12:22:21.08</time>
<name>715</name>
</trkpt>
<trkpt lat="51.769587" lon="19.490017">
<ele>293.0</ele>
<speed>12.3</speed>
<course>264.4</course>
<desc>Speed 12.3 km/h Distance 2.48 km</desc>
<time>2011-02-13T12:22:22.08</time>
<name>716</name>
</trkpt>
<trkpt lat="51.769583" lon="19.489962">
<ele>293.0</ele>
<speed>13.9</speed>
<course>267.2</course>
<desc>Speed 13.9 km/h Distance 2.49 km</desc>
<time>2011-02-13T12:22:23.08</time>
<name>717</name>
</trkpt>
<trkpt lat="51.769582" lon="19.489907">
<ele>293.0</ele>
<speed>14.0</speed>
<course>257.3</course>
<desc>Speed 14.0 km/h Distance 2.49 km</desc>
<time>2011-02-13T12:22:24.08</time>
<name>718</name>
</trkpt>
<trkpt lat="51.769573" lon="19.489847">
<ele>293.5</ele>
<speed>14.8</speed>
<course>260.3</course>
<desc>Speed 14.8 km/h Distance 2.50 km</desc>
<time>2011-02-13T12:22:25.08</time>
<name>719</name>
</trkpt>
<trkpt lat="51.769567" lon="19.489783">
<ele>294.0</ele>
<speed>14.9</speed>
<course>252.9</course>
<desc>Speed 14.9 km/h Distance 2.50 km</desc>
<time>2011-02-13T12:22:26.08</time>
<name>720</name>
</trkpt>
<trkpt lat="51.769553" lon="19.489713">
<ele>296.0</ele>
<speed>16.5</speed>
<course>260.5</course>
<desc>Speed 16.5 km/h Distance 2.51 km</desc>
<time>2011-02-13T12:22:27.08</time>
<name>721</name>
</trkpt>
<trkpt lat="51.769548" lon="19.489665">
<ele>296.0</ele>
<speed>11.8</speed>
<course>270.0</course>
<desc>Speed 11.8 km/h Distance 2.51 km</desc>
<time>2011-02-13T12:22:28.08</time>
<name>722</name>
</trkpt>
<trkpt lat="51.769548" lon="19.489607">
<ele>295.5</ele>
<speed>14.5</speed>
<course>272.8</course>
<desc>Speed 14.5 km/h Distance 2.51 km</desc>
<time>2011-02-13T12:22:29.08</time>
<name>723</name>
</trkpt>
<trkpt lat="51.769550" lon="19.489552">
<ele>295.5</ele>
<speed>13.9</speed>
<course>267.2</course>
<desc>Speed 13.9 km/h Distance 2.52 km</desc>
<time>2011-02-13T12:22:30.08</time>
<name>724</name>
</trkpt>
<trkpt lat="51.769548" lon="19.489497">
<ele>295.5</ele>
<speed>13.8</speed>
<course>270.0</course>
<desc>Speed 13.8 km/h Distance 2.52 km</desc>
<time>2011-02-13T12:22:31.08</time>
<name>725</name>
</trkpt>
<trkpt lat="51.769548" lon="19.489443">
<ele>295.5</ele>
<speed>12.8</speed>
<course>260.6</course>
<desc>Speed 12.8 km/h Distance 2.52 km</desc>
<time>2011-02-13T12:22:32.08</time>
<name>726</name>
</trkpt>
<trkpt lat="51.769542" lon="19.489378">
<ele>296.0</ele>
<speed>16.7</speed>
<course>263.6</course>
<desc>Speed 16.7 km/h Distance 2.53 km</desc>
<time>2011-02-13T12:22:33.08</time>
<name>727</name>
</trkpt>
<trkpt lat="51.769538" lon="19.489330">
<ele>296.0</ele>
<speed>11.6</speed>
<course>266.6</course>
<desc>Speed 11.6 km/h Distance 2.53 km</desc>
<time>2011-02-13T12:22:34.08</time>
<name>728</name>
</trkpt>
<trkpt lat="51.769537" lon="19.489285">
<ele>295.0</ele>
<speed>10.9</speed>
<course>270.0</course>
<desc>Speed 10.9 km/h Distance 2.54 km</desc>
<time>2011-02-13T12:22:35.07</time>
<name>729</name>
</trkpt>
<trkpt lat="51.769537" lon="19.489247">
<ele>294.0</ele>
<speed>10.8</speed>
<course>277.1</course>
<desc>Speed 10.8 km/h Distance 2.54 km</desc>
<time>2011-02-13T12:22:36.08</time>
<name>730</name>
</trkpt>
<trkpt lat="51.769540" lon="19.489203">
<ele>292.5</ele>
<speed>12.2</speed>
<course>285.7</course>
<desc>Speed 12.2 km/h Distance 2.54 km</desc>
<time>2011-02-13T12:22:37.08</time>
<name>731</name>
</trkpt>
<trkpt lat="51.769547" lon="19.489165">
<ele>290.5</ele>
<speed>11.8</speed>
<course>270.0</course>
<desc>Speed 11.8 km/h Distance 2.54 km</desc>
<time>2011-02-13T12:22:38.08</time>
<name>732</name>
</trkpt>
<trkpt lat="51.769547" lon="19.489110">
<ele>289.5</ele>
<speed>15.3</speed>
<course>270.0</course>
<desc>Speed 15.3 km/h Distance 2.55 km</desc>
<time>2011-02-13T12:22:39.08</time>
<name>733</name>
</trkpt>
<trkpt lat="51.769547" lon="19.489073">
<ele>288.5</ele>
<speed>11.4</speed>
<course>293.8</course>
<desc>Speed 11.4 km/h Distance 2.55 km</desc>
<time>2011-02-13T12:22:40.08</time>
<name>734</name>
</trkpt>
<trkpt lat="51.769557" lon="19.489037">
<ele>286.0</ele>
<speed>11.6</speed>
<course>261.1</course>
<desc>Speed 11.6 km/h Distance 2.55 km</desc>
<time>2011-02-13T12:22:41.08</time>
<name>735</name>
</trkpt>
<trkpt lat="51.769552" lon="19.488985">
<ele>287.0</ele>
<speed>15.3</speed>
<course>251.6</course>
<desc>Speed 15.3 km/h Distance 2.56 km</desc>
<time>2011-02-13T12:22:42.08</time>
<name>736</name>
</trkpt>
<trkpt lat="51.769540" lon="19.488928">
<ele>287.5</ele>
<speed>15.3</speed>
<course>264.0</course>
<desc>Speed 15.3 km/h Distance 2.56 km</desc>
<time>2011-02-13T12:22:43.08</time>
<name>737</name>
</trkpt>
<trkpt lat="51.769537" lon="19.488877">
<ele>287.5</ele>
<speed>14.1</speed>
<course>262.9</course>
<desc>Speed 14.1 km/h Distance 2.56 km</desc>
<time>2011-02-13T12:22:44.08</time>
<name>738</name>
</trkpt>
<trkpt lat="51.769533" lon="19.488833">
<ele>287.0</ele>
<speed>12.1</speed>
<course>261.4</course>
<desc>Speed 12.1 km/h Distance 2.57 km</desc>
<time>2011-02-13T12:22:45.08</time>
<name>739</name>
</trkpt>
<trkpt lat="51.769528" lon="19.488780">
<ele>286.5</ele>
<speed>13.4</speed>
<course>260.8</course>
<desc>Speed 13.4 km/h Distance 2.57 km</desc>
<time>2011-02-13T12:22:46.08</time>
<name>740</name>
</trkpt>
<trkpt lat="51.769523" lon="19.488730">
<ele>286.5</ele>
<speed>12.6</speed>
<course>270.0</course>
<desc>Speed 12.6 km/h Distance 2.57 km</desc>
<time>2011-02-13T12:22:47.08</time>
<name>741</name>
</trkpt>
<trkpt lat="51.769523" lon="19.488683">
<ele>286.0</ele>
<speed>12.0</speed>
<course>278.4</course>
<desc>Speed 12.0 km/h Distance 2.58 km</desc>
<time>2011-02-13T12:22:48.08</time>
<name>742</name>
</trkpt>
<trkpt lat="51.769527" lon="19.488647">
<ele>285.0</ele>
<speed>8.0</speed>
<course>263.6</course>
<desc>Speed 8.0 km/h Distance 2.58 km</desc>
<time>2011-02-13T12:22:49.08</time>
<name>743</name>
</trkpt>
<trkpt lat="51.769523" lon="19.488598">
<ele>284.0</ele>
<speed>12.8</speed>
<course>278.4</course>
<desc>Speed 12.8 km/h Distance 2.58 km</desc>
<time>2011-02-13T12:22:50.08</time>
<name>744</name>
</trkpt>
<trkpt lat="51.769527" lon="19.488562">
<ele>282.5</ele>
<speed>10.1</speed>
<course>270.0</course>
<desc>Speed 10.1 km/h Distance 2.59 km</desc>
<time>2011-02-13T12:22:51.08</time>
<name>745</name>
</trkpt>
<trkpt lat="51.769527" lon="19.488515">
<ele>281.5</ele>
<speed>12.1</speed>
<course>263.9</course>
<desc>Speed 12.1 km/h Distance 2.59 km</desc>
<time>2011-02-13T12:22:52.08</time>
<name>746</name>
</trkpt>
<trkpt lat="51.769523" lon="19.488465">
<ele>282.0</ele>
<speed>12.6</speed>
<course>258.6</course>
<desc>Speed 12.6 km/h Distance 2.59 km</desc>
<time>2011-02-13T12:22:53.08</time>
<name>747</name>
</trkpt>
<trkpt lat="51.769517" lon="19.488412">
<ele>282.0</ele>
<speed>13.8</speed>
<course>270.0</course>
<desc>Speed 13.8 km/h Distance 2.60 km</desc>
<time>2011-02-13T12:22:54.08</time>
<name>748</name>
</trkpt>
<trkpt lat="51.769517" lon="19.488367">
<ele>281.0</ele>
<speed>11.4</speed>
<course>266.8</course>
<desc>Speed 11.4 km/h Distance 2.60 km</desc>
<time>2011-02-13T12:22:55.07</time>
<name>749</name>
</trkpt>
<trkpt lat="51.769515" lon="19.488318">
<ele>280.5</ele>
<speed>12.3</speed>
<course>254.5</course>
<desc>Speed 12.3 km/h Distance 2.60 km</desc>
<time>2011-02-13T12:22:56.08</time>
<name>750</name>
</trkpt>
<trkpt lat="51.769505" lon="19.488260">
<ele>282.0</ele>
<speed>14.8</speed>
<course>253.1</course>
<desc>Speed 14.8 km/h Distance 2.61 km</desc>
<time>2011-02-13T12:22:57.08</time>
<name>751</name>
</trkpt>
<trkpt lat="51.769495" lon="19.488207">
<ele>283.5</ele>
<speed>13.3</speed>
<course>254.9</course>
<desc>Speed 13.3 km/h Distance 2.61 km</desc>
<time>2011-02-13T12:22:58.07</time>
<name>752</name>
</trkpt>
<trkpt lat="51.769488" lon="19.488167">
<ele>283.5</ele>
<speed>9.9</speed>
<course>252.6</course>
<desc>Speed 9.9 km/h Distance 2.61 km</desc>
<time>2011-02-13T12:22:59.08</time>
<name>753</name>
</trkpt>
<trkpt lat="51.769477" lon="19.488107">
<ele>284.5</ele>
<speed>15.2</speed>
<course>257.8</course>
<desc>Speed 15.2 km/h Distance 2.62 km</desc>
<time>2011-02-13T12:23:00.07</time>
<name>754</name>
</trkpt>
<trkpt lat="51.769470" lon="19.488057">
<ele>285.5</ele>
<speed>12.6</speed>
<course>253.1</course>
<desc>Speed 12.6 km/h Distance 2.62 km</desc>
<time>2011-02-13T12:23:01.07</time>
<name>755</name>
</trkpt>
<trkpt lat="51.769460" lon="19.488003">
<ele>286.0</ele>
<speed>12.8</speed>
<course>255.8</course>
<desc>Speed 12.8 km/h Distance 2.63 km</desc>
<time>2011-02-13T12:23:02.07</time>
<name>756</name>
</trkpt>
<trkpt lat="51.769452" lon="19.487950">
<ele>286.5</ele>
<speed>11.6</speed>
<course>270.0</course>
<desc>Speed 11.6 km/h Distance 2.63 km</desc>
<time>2011-02-13T12:23:03.07</time>
<name>757</name>
</trkpt>
<trkpt lat="51.769452" lon="19.487900">
<ele>285.5</ele>
<speed>14.4</speed>
<course>270.0</course>
<desc>Speed 14.4 km/h Distance 2.63 km</desc>
<time>2011-02-13T12:23:04.08</time>
<name>758</name>
</trkpt>
<trkpt lat="51.769452" lon="19.487858">
<ele>284.5</ele>
<speed>11.0</speed>
<course>254.1</course>
<desc>Speed 11.0 km/h Distance 2.64 km</desc>
<time>2011-02-13T12:23:05.07</time>
<name>759</name>
</trkpt>
<trkpt lat="51.769442" lon="19.487802">
<ele>285.5</ele>
<speed>15.6</speed>
<course>317.1</course>
<desc>Speed 15.6 km/h Distance 2.64 km</desc>
<time>2011-02-13T12:23:06.07</time>
<name>760</name>
</trkpt>
<trkpt lat="51.769462" lon="19.487772">
<ele>285.0</ele>
<speed>10.4</speed>
<course>276.8</course>
<desc>Speed 10.4 km/h Distance 2.64 km</desc>
<time>2011-02-13T12:23:07.08</time>
<name>761</name>
</trkpt>
<trkpt lat="51.769465" lon="19.487727">
<ele>284.5</ele>
<speed>12.1</speed>
<course>263.2</course>
<desc>Speed 12.1 km/h Distance 2.65 km</desc>
<time>2011-02-13T12:23:08.07</time>
<name>762</name>
</trkpt>
<trkpt lat="51.769462" lon="19.487682">
<ele>284.0</ele>
<speed>11.6</speed>
<course>272.9</course>
<desc>Speed 11.6 km/h Distance 2.65 km</desc>
<time>2011-02-13T12:23:09.08</time>
<name>763</name>
</trkpt>
<trkpt lat="51.769463" lon="19.487628">
<ele>283.5</ele>
<speed>13.2</speed>
<course>257.4</course>
<desc>Speed 13.2 km/h Distance 2.65 km</desc>
<time>2011-02-13T12:23:10.07</time>
<name>764</name>
</trkpt>
<trkpt lat="51.769457" lon="19.487580">
<ele>283.5</ele>
<speed>13.8</speed>
<course>264.9</course>
<desc>Speed 13.8 km/h Distance 2.66 km</desc>
<time>2011-02-13T12:23:11.07</time>
<name>765</name>
</trkpt>
<trkpt lat="51.769453" lon="19.487520">
<ele>283.0</ele>
<speed>15.4</speed>
<course>270.0</course>
<desc>Speed 15.4 km/h Distance 2.66 km</desc>
<time>2011-02-13T12:23:12.08</time>
<name>766</name>
</trkpt>
<trkpt lat="51.769453" lon="19.487463">
<ele>282.5</ele>
<speed>14.6</speed>
<course>267.0</course>
<desc>Speed 14.6 km/h Distance 2.66 km</desc>
<time>2011-02-13T12:23:13.07</time>
<name>767</name>
</trkpt>
<trkpt lat="51.769452" lon="19.487412">
<ele>282.0</ele>
<speed>13.4</speed>
<course>256.2</course>
<desc>Speed 13.4 km/h Distance 2.67 km</desc>
<time>2011-02-13T12:23:14.07</time>
<name>768</name>
</trkpt>
<trkpt lat="51.769443" lon="19.487357">
<ele>282.5</ele>
<speed>15.3</speed>
<course>270.0</course>
<desc>Speed 15.3 km/h Distance 2.67 km</desc>
<time>2011-02-13T12:23:15.07</time>
<name>769</name>
</trkpt>
<trkpt lat="51.769443" lon="19.487318">
<ele>281.5</ele>
<speed>10.9</speed>
<course>263.4</course>
<desc>Speed 10.9 km/h Distance 2.67 km</desc>
<time>2011-02-13T12:23:16.08</time>
<name>770</name>
</trkpt>
<trkpt lat="51.769440" lon="19.487272">
<ele>280.5</ele>
<speed>12.7</speed>
<course>272.9</course>
<desc>Speed 12.7 km/h Distance 2.68 km</desc>
<time>2011-02-13T12:23:17.07</time>
<name>771</name>
</trkpt>
<trkpt lat="51.769442" lon="19.487218">
<ele>280.0</ele>
<speed>13.3</speed>
<course>259.8</course>
<desc>Speed 13.3 km/h Distance 2.68 km</desc>
<time>2011-02-13T12:23:18.07</time>
<name>772</name>
</trkpt>
<trkpt lat="51.769437" lon="19.487173">
<ele>280.5</ele>
<speed>12.1</speed>
<course>262.6</course>
<desc>Speed 12.1 km/h Distance 2.68 km</desc>
<time>2011-02-13T12:23:19.07</time>
<name>773</name>
</trkpt>
<trkpt lat="51.769433" lon="19.487132">
<ele>280.5</ele>
<speed>11.7</speed>
<course>260.1</course>
<desc>Speed 11.7 km/h Distance 2.69 km</desc>
<time>2011-02-13T12:23:20.07</time>
<name>774</name>
</trkpt>
<trkpt lat="51.769427" lon="19.487070">
<ele>281.0</ele>
<speed>16.6</speed>
<course>256.2</course>
<desc>Speed 16.6 km/h Distance 2.69 km</desc>
<time>2011-02-13T12:23:21.07</time>
<name>775</name>
</trkpt>
<trkpt lat="51.769418" lon="19.487015">
<ele>281.5</ele>
<speed>13.9</speed>
<course>261.1</course>
<desc>Speed 13.9 km/h Distance 2.69 km</desc>
<time>2011-02-13T12:23:22.08</time>
<name>776</name>
</trkpt>
<trkpt lat="51.769413" lon="19.486963">
<ele>281.0</ele>
<speed>13.2</speed>
<course>260.5</course>
<desc>Speed 13.2 km/h Distance 2.70 km</desc>
<time>2011-02-13T12:23:23.07</time>
<name>777</name>
</trkpt>
<trkpt lat="51.769408" lon="19.486915">
<ele>281.0</ele>
<speed>11.6</speed>
<course>263.6</course>
<desc>Speed 11.6 km/h Distance 2.70 km</desc>
<time>2011-02-13T12:23:24.07</time>
<name>778</name>
</trkpt>
<trkpt lat="51.769405" lon="19.486867">
<ele>281.0</ele>
<speed>12.5</speed>
<course>262.3</course>
<desc>Speed 12.5 km/h Distance 2.71 km</desc>
<time>2011-02-13T12:23:25.07</time>
<name>779</name>
</trkpt>
<trkpt lat="51.769402" lon="19.486827">
<ele>280.0</ele>
<speed>10.6</speed>
<course>266.8</course>
<desc>Speed 10.6 km/h Distance 2.71 km</desc>
<time>2011-02-13T12:23:26.07</time>
<name>780</name>
</trkpt>
<trkpt lat="51.769400" lon="19.486778">
<ele>279.0</ele>
<speed>12.3</speed>
<course>263.6</course>
<desc>Speed 12.3 km/h Distance 2.71 km</desc>
<time>2011-02-13T12:23:27.07</time>
<name>781</name>
</trkpt>
<trkpt lat="51.769397" lon="19.486730">
<ele>278.5</ele>
<speed>12.5</speed>
<course>270.0</course>
<desc>Speed 12.5 km/h Distance 2.71 km</desc>
<time>2011-02-13T12:23:28.07</time>
<name>782</name>
</trkpt>
<trkpt lat="51.769397" lon="19.486668">
<ele>278.0</ele>
<speed>15.3</speed>
<course>264.9</course>
<desc>Speed 15.3 km/h Distance 2.72 km</desc>
<time>2011-02-13T12:23:29.06</time>
<name>783</name>
</trkpt>
<trkpt lat="51.769393" lon="19.486608">
<ele>278.5</ele>
<speed>14.3</speed>
<course>270.0</course>
<desc>Speed 14.3 km/h Distance 2.72 km</desc>
<time>2011-02-13T12:23:30.07</time>
<name>784</name>
</trkpt>
<trkpt lat="51.769393" lon="19.486548">
<ele>278.5</ele>
<speed>14.1</speed>
<course>266.9</course>
<desc>Speed 14.1 km/h Distance 2.73 km</desc>
<time>2011-02-13T12:23:31.07</time>
<name>785</name>
</trkpt>
<trkpt lat="51.769392" lon="19.486498">
<ele>278.0</ele>
<speed>11.8</speed>
<course>260.1</course>
<desc>Speed 11.8 km/h Distance 2.73 km</desc>
<time>2011-02-13T12:23:32.07</time>
<name>786</name>
</trkpt>
<trkpt lat="51.769385" lon="19.486437">
<ele>278.5</ele>
<speed>15.7</speed>
<course>261.9</course>
<desc>Speed 15.7 km/h Distance 2.74 km</desc>
<time>2011-02-13T12:23:33.07</time>
<name>787</name>
</trkpt>
<trkpt lat="51.769380" lon="19.486380">
<ele>278.5</ele>
<speed>14.5</speed>
<course>258.6</course>
<desc>Speed 14.5 km/h Distance 2.74 km</desc>
<time>2011-02-13T12:23:34.07</time>
<name>788</name>
</trkpt>
<trkpt lat="51.769373" lon="19.486327">
<ele>278.0</ele>
<speed>13.8</speed>
<course>261.1</course>
<desc>Speed 13.8 km/h Distance 2.74 km</desc>
<time>2011-02-13T12:23:35.07</time>
<name>789</name>
</trkpt>
<trkpt lat="51.769368" lon="19.486275">
<ele>278.0</ele>
<speed>12.5</speed>
<course>260.8</course>
<desc>Speed 12.5 km/h Distance 2.75 km</desc>
<time>2011-02-13T12:23:36.07</time>
<name>790</name>
</trkpt>
<trkpt lat="51.769363" lon="19.486225">
<ele>277.5</ele>
<speed>13.0</speed>
<course>256.2</course>
<desc>Speed 13.0 km/h Distance 2.75 km</desc>
<time>2011-02-13T12:23:37.06</time>
<name>791</name>
</trkpt>
<trkpt lat="51.769355" lon="19.486170">
<ele>277.0</ele>
<speed>14.5</speed>
<course>257.8</course>
<desc>Speed 14.5 km/h Distance 2.75 km</desc>
<time>2011-02-13T12:23:38.07</time>
<name>792</name>
</trkpt>
<trkpt lat="51.769348" lon="19.486120">
<ele>276.5</ele>
<speed>13.4</speed>
<course>273.4</course>
<desc>Speed 13.4 km/h Distance 2.76 km</desc>
<time>2011-02-13T12:23:39.07</time>
<name>793</name>
</trkpt>
<trkpt lat="51.769350" lon="19.486075">
<ele>275.5</ele>
<speed>12.1</speed>
<course>258.2</course>
<desc>Speed 12.1 km/h Distance 2.76 km</desc>
<time>2011-02-13T12:23:40.07</time>
<name>794</name>
</trkpt>
<trkpt lat="51.769343" lon="19.486023">
<ele>275.0</ele>
<speed>12.7</speed>
<course>259.8</course>
<desc>Speed 12.7 km/h Distance 2.76 km</desc>
<time>2011-02-13T12:23:41.07</time>
<name>795</name>
</trkpt>
<trkpt lat="51.769337" lon="19.485963">
<ele>275.5</ele>
<speed>14.8</speed>
<course>277.1</course>
<desc>Speed 14.8 km/h Distance 2.77 km</desc>
<time>2011-02-13T12:23:42.07</time>
<name>796</name>
</trkpt>
<trkpt lat="51.769340" lon="19.485920">
<ele>273.5</ele>
<speed>10.4</speed>
<course>266.6</course>
<desc>Speed 10.4 km/h Distance 2.77 km</desc>
<time>2011-02-13T12:23:43.07</time>
<name>797</name>
</trkpt>
<trkpt lat="51.769338" lon="19.485875">
<ele>272.5</ele>
<speed>11.3</speed>
<course>254.9</course>
<desc>Speed 11.3 km/h Distance 2.77 km</desc>
<time>2011-02-13T12:23:44.07</time>
<name>798</name>
</trkpt>
<trkpt lat="51.769330" lon="19.485825">
<ele>272.5</ele>
<speed>13.2</speed>
<course>267.2</course>
<desc>Speed 13.2 km/h Distance 2.78 km</desc>
<time>2011-02-13T12:23:45.06</time>
<name>799</name>
</trkpt>
<trkpt lat="51.769328" lon="19.485770">
<ele>271.0</ele>
<speed>13.6</speed>
<course>262.7</course>
<desc>Speed 13.6 km/h Distance 2.78 km</desc>
<time>2011-02-13T12:23:46.07</time>
<name>800</name>
</trkpt>
<trkpt lat="51.769323" lon="19.485707">
<ele>271.0</ele>
<speed>15.8</speed>
<course>253.0</course>
<desc>Speed 15.8 km/h Distance 2.79 km</desc>
<time>2011-02-13T12:23:47.07</time>
<name>801</name>
</trkpt>
<trkpt lat="51.769312" lon="19.485645">
<ele>271.5</ele>
<speed>15.2</speed>
<course>255.4</course>
<desc>Speed 15.2 km/h Distance 2.79 km</desc>
<time>2011-02-13T12:23:48.07</time>
<name>802</name>
</trkpt>
<trkpt lat="51.769303" lon="19.485593">
<ele>271.0</ele>
<speed>12.0</speed>
<course>260.5</course>
<desc>Speed 12.0 km/h Distance 2.79 km</desc>
<time>2011-02-13T12:23:49.07</time>
<name>803</name>
</trkpt>
<trkpt lat="51.769298" lon="19.485545">
<ele>270.5</ele>
<speed>11.9</speed>
<course>259.5</course>
<desc>Speed 11.9 km/h Distance 2.80 km</desc>
<time>2011-02-13T12:23:50.07</time>
<name>804</name>
</trkpt>
<trkpt lat="51.769292" lon="19.485487">
<ele>270.5</ele>
<speed>14.1</speed>
<course>260.1</course>
<desc>Speed 14.1 km/h Distance 2.80 km</desc>
<time>2011-02-13T12:23:51.07</time>
<name>805</name>
</trkpt>
<trkpt lat="51.769285" lon="19.485425">
<ele>270.0</ele>
<speed>15.5</speed>
<course>258.0</course>
<desc>Speed 15.5 km/h Distance 2.81 km</desc>
<time>2011-02-13T12:23:52.07</time>
<name>806</name>
</trkpt>
<trkpt lat="51.769277" lon="19.485362">
<ele>270.5</ele>
<speed>14.9</speed>
<course>264.0</course>
<desc>Speed 14.9 km/h Distance 2.81 km</desc>
<time>2011-02-13T12:23:53.07</time>
<name>807</name>
</trkpt>
<trkpt lat="51.769273" lon="19.485310">
<ele>270.0</ele>
<speed>12.8</speed>
<course>261.1</course>
<desc>Speed 12.8 km/h Distance 2.81 km</desc>
<time>2011-02-13T12:23:54.07</time>
<name>808</name>
</trkpt>
<trkpt lat="51.769268" lon="19.485258">
<ele>269.5</ele>
<speed>12.7</speed>
<course>251.1</course>
<desc>Speed 12.7 km/h Distance 2.82 km</desc>
<time>2011-02-13T12:23:55.07</time>
<name>809</name>
</trkpt>
<trkpt lat="51.769257" lon="19.485203">
<ele>271.0</ele>
<speed>12.9</speed>
<course>258.2</course>
<desc>Speed 12.9 km/h Distance 2.82 km</desc>
<time>2011-02-13T12:23:56.07</time>
<name>810</name>
</trkpt>
<trkpt lat="51.769250" lon="19.485152">
<ele>270.5</ele>
<speed>13.4</speed>
<course>257.8</course>
<desc>Speed 13.4 km/h Distance 2.83 km</desc>
<time>2011-02-13T12:23:57.07</time>
<name>811</name>
</trkpt>
<trkpt lat="51.769243" lon="19.485102">
<ele>270.5</ele>
<speed>12.7</speed>
<course>252.1</course>
<desc>Speed 12.7 km/h Distance 2.83 km</desc>
<time>2011-02-13T12:23:58.07</time>
<name>812</name>
</trkpt>
<trkpt lat="51.769232" lon="19.485043">
<ele>271.0</ele>
<speed>15.0</speed>
<course>257.4</course>
<desc>Speed 15.0 km/h Distance 2.83 km</desc>
<time>2011-02-13T12:23:59.07</time>
<name>813</name>
</trkpt>
<trkpt lat="51.769225" lon="19.484995">
<ele>271.0</ele>
<speed>12.3</speed>
<course>253.9</course>
<desc>Speed 12.3 km/h Distance 2.84 km</desc>
<time>2011-02-13T12:24:00.07</time>
<name>814</name>
</trkpt>
<trkpt lat="51.769217" lon="19.484948">
<ele>270.5</ele>
<speed>11.5</speed>
<course>255.4</course>
<desc>Speed 11.5 km/h Distance 2.84 km</desc>
<time>2011-02-13T12:24:01.07</time>
<name>815</name>
</trkpt>
<trkpt lat="51.769208" lon="19.484897">
<ele>270.5</ele>
<speed>12.0</speed>
<course>251.7</course>
<desc>Speed 12.0 km/h Distance 2.84 km</desc>
<time>2011-02-13T12:24:02.06</time>
<name>816</name>
</trkpt>
<trkpt lat="51.769195" lon="19.484832">
<ele>271.5</ele>
<speed>16.1</speed>
<course>264.9</course>
<desc>Speed 16.1 km/h Distance 2.85 km</desc>
<time>2011-02-13T12:24:03.07</time>
<name>817</name>
</trkpt>
<trkpt lat="51.769192" lon="19.484772">
<ele>271.5</ele>
<speed>14.5</speed>
<course>261.9</course>
<desc>Speed 14.5 km/h Distance 2.85 km</desc>
<time>2011-02-13T12:24:04.07</time>
<name>818</name>
</trkpt>
<trkpt lat="51.769187" lon="19.484715">
<ele>271.0</ele>
<speed>14.2</speed>
<course>259.2</course>
<desc>Speed 14.2 km/h Distance 2.86 km</desc>
<time>2011-02-13T12:24:05.07</time>
<name>819</name>
</trkpt>
<trkpt lat="51.769180" lon="19.484658">
<ele>271.0</ele>
<speed>13.9</speed>
<course>248.5</course>
<desc>Speed 13.9 km/h Distance 2.86 km</desc>
<time>2011-02-13T12:24:06.07</time>
<name>820</name>
</trkpt>
<trkpt lat="51.769165" lon="19.484597">
<ele>272.5</ele>
<speed>15.3</speed>
<course>259.2</course>
<desc>Speed 15.3 km/h Distance 2.86 km</desc>
<time>2011-02-13T12:24:07.07</time>
<name>821</name>
</trkpt>
<trkpt lat="51.769158" lon="19.484540">
<ele>272.0</ele>
<speed>14.4</speed>
<course>246.4</course>
<desc>Speed 14.4 km/h Distance 2.87 km</desc>
<time>2011-02-13T12:24:08.07</time>
<name>822</name>
</trkpt>
<trkpt lat="51.769142" lon="19.484478">
<ele>273.5</ele>
<speed>16.6</speed>
<course>244.6</course>
<desc>Speed 16.6 km/h Distance 2.87 km</desc>
<time>2011-02-13T12:24:09.07</time>
<name>823</name>
</trkpt>
<trkpt lat="51.769125" lon="19.484422">
<ele>274.0</ele>
<speed>16.7</speed>
<course>267.2</course>
<desc>Speed 16.7 km/h Distance 2.88 km</desc>
<time>2011-02-13T12:24:10.07</time>
<name>824</name>
</trkpt>
<trkpt lat="51.769123" lon="19.484367">
<ele>273.5</ele>
<speed>9.1</speed>
<course>270.0</course>
<desc>Speed 9.1 km/h Distance 2.88 km</desc>
<time>2011-02-13T12:24:12.07</time>
<name>825</name>
</trkpt>
<trkpt lat="51.769123" lon="19.484348">
<ele>273.5</ele>
<speed>4.5</speed>
<course>189.0</course>
<desc>Speed 4.5 km/h Distance 2.88 km</desc>
<time>2011-02-13T12:24:13.07</time>
<name>826</name>
</trkpt>
<trkpt lat="51.769065" lon="19.484333">
<ele>273.0</ele>
<speed>9.8</speed>
<course>201.8</course>
<desc>Speed 9.8 km/h Distance 2.89 km</desc>
<time>2011-02-13T12:24:15.06</time>
<name>827</name>
</trkpt>
<trkpt lat="51.769037" lon="19.484315">
<ele>273.0</ele>
<speed>12.6</speed>
<course>193.1</course>
<desc>Speed 12.6 km/h Distance 2.89 km</desc>
<time>2011-02-13T12:24:16.06</time>
<name>828</name>
</trkpt>
<trkpt lat="51.769010" lon="19.484305">
<ele>273.5</ele>
<speed>10.7</speed>
<course>188.3</course>
<desc>Speed 10.7 km/h Distance 2.90 km</desc>
<time>2011-02-13T12:24:17.07</time>
<name>829</name>
</trkpt>
<trkpt lat="51.768975" lon="19.484297">
<ele>273.5</ele>
<speed>14.0</speed>
<course>177.8</course>
<desc>Speed 14.0 km/h Distance 2.90 km</desc>
<time>2011-02-13T12:24:18.07</time>
<name>830</name>
</trkpt>
<trkpt lat="51.768947" lon="19.484298">
<ele>272.0</ele>
<speed>11.7</speed>
<course>170.8</course>
<desc>Speed 11.7 km/h Distance 2.90 km</desc>
<time>2011-02-13T12:24:19.07</time>
<name>831</name>
</trkpt>
<trkpt lat="51.768922" lon="19.484305">
<ele>271.0</ele>
<speed>10.4</speed>
<course>139.4</course>
<desc>Speed 10.4 km/h Distance 2.91 km</desc>
<time>2011-02-13T12:24:20.07</time>
<name>832</name>
</trkpt>
<trkpt lat="51.768900" lon="19.484335">
<ele>269.0</ele>
<speed>11.7</speed>
<course>168.3</course>
<desc>Speed 11.7 km/h Distance 2.91 km</desc>
<time>2011-02-13T12:24:21.07</time>
<name>833</name>
</trkpt>
<trkpt lat="51.768870" lon="19.484345">
<ele>268.5</ele>
<speed>13.8</speed>
<course>181.7</course>
<desc>Speed 13.8 km/h Distance 2.91 km</desc>
<time>2011-02-13T12:24:22.07</time>
<name>834</name>
</trkpt>
<trkpt lat="51.768835" lon="19.484343">
<ele>269.5</ele>
<speed>15.8</speed>
<course>170.5</course>
<desc>Speed 15.8 km/h Distance 2.92 km</desc>
<time>2011-02-13T12:24:23.07</time>
<name>835</name>
</trkpt>
<trkpt lat="51.768798" lon="19.484353">
<ele>270.0</ele>
<speed>15.2</speed>
<course>127.5</course>
<desc>Speed 15.2 km/h Distance 2.92 km</desc>
<time>2011-02-13T12:24:24.07</time>
<name>836</name>
</trkpt>
<trkpt lat="51.768782" lon="19.484388">
<ele>269.5</ele>
<speed>11.2</speed>
<course>136.4</course>
<desc>Speed 11.2 km/h Distance 2.92 km</desc>
<time>2011-02-13T12:24:25.07</time>
<name>837</name>
</trkpt>
<trkpt lat="51.768760" lon="19.484422">
<ele>269.0</ele>
<speed>12.2</speed>
<course>148.2</course>
<desc>Speed 12.2 km/h Distance 2.93 km</desc>
<time>2011-02-13T12:24:26.07</time>
<name>838</name>
</trkpt>
<trkpt lat="51.768733" lon="19.484448">
<ele>268.5</ele>
<speed>13.1</speed>
<course>149.9</course>
<desc>Speed 13.1 km/h Distance 2.93 km</desc>
<time>2011-02-13T12:24:27.07</time>
<name>839</name>
</trkpt>
<trkpt lat="51.768707" lon="19.484473">
<ele>269.5</ele>
<speed>13.0</speed>
<course>146.7</course>
<desc>Speed 13.0 km/h Distance 2.93 km</desc>
<time>2011-02-13T12:24:28.07</time>
<name>840</name>
</trkpt>
<trkpt lat="51.768680" lon="19.484502">
<ele>269.5</ele>
<speed>13.5</speed>
<course>138.0</course>
<desc>Speed 13.5 km/h Distance 2.94 km</desc>
<time>2011-02-13T12:24:29.07</time>
<name>841</name>
</trkpt>
<trkpt lat="51.768662" lon="19.484528">
<ele>269.5</ele>
<speed>11.6</speed>
<course>119.1</course>
<desc>Speed 11.6 km/h Distance 2.94 km</desc>
<time>2011-02-13T12:24:30.07</time>
<name>842</name>
</trkpt>
<trkpt lat="51.768645" lon="19.484577">
<ele>268.0</ele>
<speed>14.4</speed>
<course>72.9</course>
<desc>Speed 14.4 km/h Distance 2.94 km</desc>
<time>2011-02-13T12:24:31.07</time>
<name>843</name>
</trkpt>
<trkpt lat="51.768652" lon="19.484612">
<ele>267.0</ele>
<speed>8.7</speed>
<course>125.7</course>
<desc>Speed 8.7 km/h Distance 2.95 km</desc>
<time>2011-02-13T12:24:32.07</time>
<name>844</name>
</trkpt>
<trkpt lat="51.768632" lon="19.484657">
<ele>267.0</ele>
<speed>14.0</speed>
<course>97.4</course>
<desc>Speed 14.0 km/h Distance 2.95 km</desc>
<time>2011-02-13T12:24:33.06</time>
<name>845</name>
</trkpt>
<trkpt lat="51.768628" lon="19.484698">
<ele>267.0</ele>
<speed>11.8</speed>
<course>83.4</course>
<desc>Speed 11.8 km/h Distance 2.95 km</desc>
<time>2011-02-13T12:24:34.07</time>
<name>846</name>
</trkpt>
<trkpt lat="51.768632" lon="19.484745">
<ele>267.0</ele>
<speed>13.0</speed>
<course>81.4</course>
<desc>Speed 13.0 km/h Distance 2.96 km</desc>
<time>2011-02-13T12:24:35.07</time>
<name>847</name>
</trkpt>
<trkpt lat="51.768637" lon="19.484798">
<ele>265.5</ele>
<speed>13.1</speed>
<course>90.0</course>
<desc>Speed 13.1 km/h Distance 2.96 km</desc>
<time>2011-02-13T12:24:36.07</time>
<name>848</name>
</trkpt>
<trkpt lat="51.768637" lon="19.484853">
<ele>264.0</ele>
<speed>13.4</speed>
<course>84.2</course>
<desc>Speed 13.4 km/h Distance 2.96 km</desc>
<time>2011-02-13T12:24:37.07</time>
<name>849</name>
</trkpt>
<trkpt lat="51.768640" lon="19.484907">
<ele>262.5</ele>
<speed>13.0</speed>
<course>74.1</course>
<desc>Speed 13.0 km/h Distance 2.97 km</desc>
<time>2011-02-13T12:24:38.06</time>
<name>850</name>
</trkpt>
<trkpt lat="51.768650" lon="19.484963">
<ele>260.5</ele>
<speed>14.5</speed>
<course>74.9</course>
<desc>Speed 14.5 km/h Distance 2.97 km</desc>
<time>2011-02-13T12:24:39.06</time>
<name>851</name>
</trkpt>
<trkpt lat="51.768657" lon="19.485003">
<ele>260.5</ele>
<speed>12.7</speed>
<course>72.7</course>
<desc>Speed 12.7 km/h Distance 2.97 km</desc>
<time>2011-02-13T12:24:40.06</time>
<name>852</name>
</trkpt>
<trkpt lat="51.768665" lon="19.485047">
<ele>261.0</ele>
<speed>12.9</speed>
<course>83.9</course>
<desc>Speed 12.9 km/h Distance 2.98 km</desc>
<time>2011-02-13T12:24:41.06</time>
<name>853</name>
</trkpt>
<trkpt lat="51.768668" lon="19.485097">
<ele>260.5</ele>
<speed>12.6</speed>
<course>83.8</course>
<desc>Speed 12.6 km/h Distance 2.98 km</desc>
<time>2011-02-13T12:24:42.06</time>
<name>854</name>
</trkpt>
<trkpt lat="51.768672" lon="19.485147">
<ele>259.5</ele>
<speed>12.8</speed>
<course>80.5</course>
<desc>Speed 12.8 km/h Distance 2.98 km</desc>
<time>2011-02-13T12:24:43.07</time>
<name>855</name>
</trkpt>
<trkpt lat="51.768677" lon="19.485195">
<ele>258.5</ele>
<speed>13.0</speed>
<course>87.0</course>
<desc>Speed 13.0 km/h Distance 2.99 km</desc>
<time>2011-02-13T12:24:44.06</time>
<name>856</name>
</trkpt>
<trkpt lat="51.768678" lon="19.485247">
<ele>256.0</ele>
<speed>13.5</speed>
<course>78.0</course>
<desc>Speed 13.5 km/h Distance 2.99 km</desc>
<time>2011-02-13T12:24:45.06</time>
<name>857</name>
</trkpt>
<trkpt lat="51.768687" lon="19.485310">
<ele>254.5</ele>
<speed>16.8</speed>
<course>80.8</course>
<desc>Speed 16.8 km/h Distance 3.00 km</desc>
<time>2011-02-13T12:24:46.07</time>
<name>858</name>
</trkpt>
<trkpt lat="51.768692" lon="19.485360">
<ele>255.0</ele>
<speed>15.1</speed>
<course>82.3</course>
<desc>Speed 15.1 km/h Distance 3.00 km</desc>
<time>2011-02-13T12:24:47.07</time>
<name>859</name>
</trkpt>
<trkpt lat="51.768695" lon="19.485400">
<ele>255.5</ele>
<speed>11.5</speed>
<course>86.7</course>
<desc>Speed 11.5 km/h Distance 3.00 km</desc>
<time>2011-02-13T12:24:48.06</time>
<name>860</name>
</trkpt>
<trkpt lat="51.768697" lon="19.485447">
<ele>256.0</ele>
<speed>12.7</speed>
<course>86.8</course>
<desc>Speed 12.7 km/h Distance 3.01 km</desc>
<time>2011-02-13T12:24:49.06</time>
<name>861</name>
</trkpt>
<trkpt lat="51.768698" lon="19.485495">
<ele>255.5</ele>
<speed>13.3</speed>
<course>97.7</course>
<desc>Speed 13.3 km/h Distance 3.01 km</desc>
<time>2011-02-13T12:24:50.06</time>
<name>862</name>
</trkpt>
<trkpt lat="51.768695" lon="19.485535">
<ele>255.5</ele>
<speed>11.5</speed>
<course>86.9</course>
<desc>Speed 11.5 km/h Distance 3.01 km</desc>
<time>2011-02-13T12:24:51.06</time>
<name>863</name>
</trkpt>
<trkpt lat="51.768697" lon="19.485585">
<ele>255.5</ele>
<speed>13.1</speed>
<course>90.0</course>
<desc>Speed 13.1 km/h Distance 3.01 km</desc>
<time>2011-02-13T12:24:52.06</time>
<name>864</name>
</trkpt>
<trkpt lat="51.768697" lon="19.485628">
<ele>255.5</ele>
<speed>11.6</speed>
<course>79.8</course>
<desc>Speed 11.6 km/h Distance 3.02 km</desc>
<time>2011-02-13T12:24:53.06</time>
<name>865</name>
</trkpt>
<trkpt lat="51.768702" lon="19.485673">
<ele>256.0</ele>
<speed>12.3</speed>
<course>81.6</course>
<desc>Speed 12.3 km/h Distance 3.02 km</desc>
<time>2011-02-13T12:24:54.06</time>
<name>866</name>
</trkpt>
<trkpt lat="51.768707" lon="19.485728">
<ele>255.0</ele>
<speed>14.7</speed>
<course>93.3</course>
<desc>Speed 14.7 km/h Distance 3.02 km</desc>
<time>2011-02-13T12:24:55.06</time>
<name>867</name>
</trkpt>
<trkpt lat="51.768705" lon="19.485775">
<ele>255.0</ele>
<speed>13.1</speed>
<course>90.0</course>
<desc>Speed 13.1 km/h Distance 3.03 km</desc>
<time>2011-02-13T12:24:56.06</time>
<name>868</name>
</trkpt>
<trkpt lat="51.768705" lon="19.485833">
<ele>253.5</ele>
<speed>15.0</speed>
<course>90.0</course>
<desc>Speed 15.0 km/h Distance 3.03 km</desc>
<time>2011-02-13T12:24:57.06</time>
<name>869</name>
</trkpt>
<trkpt lat="51.768705" lon="19.485885">
<ele>253.5</ele>
<speed>13.9</speed>
<course>98.4</course>
<desc>Speed 13.9 km/h Distance 3.04 km</desc>
<time>2011-02-13T12:24:58.06</time>
<name>870</name>
</trkpt>
<trkpt lat="51.768702" lon="19.485922">
<ele>253.5</ele>
<speed>10.4</speed>
<course>83.6</course>
<desc>Speed 10.4 km/h Distance 3.04 km</desc>
<time>2011-02-13T12:24:59.06</time>
<name>871</name>
</trkpt>
<trkpt lat="51.768705" lon="19.485970">
<ele>254.0</ele>
<speed>14.0</speed>
<course>75.7</course>
<desc>Speed 14.0 km/h Distance 3.04 km</desc>
<time>2011-02-13T12:25:00.06</time>
<name>872</name>
</trkpt>
<trkpt lat="51.768710" lon="19.486002">
<ele>255.5</ele>
<speed>9.5</speed>
<course>90.0</course>
<desc>Speed 9.5 km/h Distance 3.04 km</desc>
<time>2011-02-13T12:25:01.06</time>
<name>873</name>
</trkpt>
<trkpt lat="51.768710" lon="19.486042">
<ele>256.0</ele>
<speed>12.3</speed>
<course>81.6</course>
<desc>Speed 12.3 km/h Distance 3.05 km</desc>
<time>2011-02-13T12:25:02.07</time>
<name>874</name>
</trkpt>
<trkpt lat="51.768715" lon="19.486097">
<ele>254.5</ele>
<speed>14.9</speed>
<course>90.0</course>
<desc>Speed 14.9 km/h Distance 3.05 km</desc>
<time>2011-02-13T12:25:03.06</time>
<name>875</name>
</trkpt>
<trkpt lat="51.768715" lon="19.486153">
<ele>253.5</ele>
<speed>15.6</speed>
<course>98.4</course>
<desc>Speed 15.6 km/h Distance 3.05 km</desc>
<time>2011-02-13T12:25:04.06</time>
<name>876</name>
</trkpt>
<trkpt lat="51.768712" lon="19.486190">
<ele>254.0</ele>
<speed>10.6</speed>
<course>108.6</course>
<desc>Speed 10.6 km/h Distance 3.06 km</desc>
<time>2011-02-13T12:25:05.06</time>
<name>877</name>
</trkpt>
<trkpt lat="51.768703" lon="19.486230">
<ele>254.0</ele>
<speed>10.7</speed>
<course>111.0</course>
<desc>Speed 10.7 km/h Distance 3.06 km</desc>
<time>2011-02-13T12:25:06.06</time>
<name>878</name>
</trkpt>
<trkpt lat="51.768695" lon="19.486265">
<ele>254.0</ele>
<speed>10.5</speed>
<course>114.8</course>
<desc>Speed 10.5 km/h Distance 3.06 km</desc>
<time>2011-02-13T12:25:07.06</time>
<name>879</name>
</trkpt>
<trkpt lat="51.768682" lon="19.486312">
<ele>253.0</ele>
<speed>13.8</speed>
<course>93.7</course>
<desc>Speed 13.8 km/h Distance 3.07 km</desc>
<time>2011-02-13T12:25:08.06</time>
<name>880</name>
</trkpt>
<trkpt lat="51.768680" lon="19.486353">
<ele>253.0</ele>
<speed>11.5</speed>
<course>121.2</course>
<desc>Speed 11.5 km/h Distance 3.07 km</desc>
<time>2011-02-13T12:25:09.06</time>
<name>881</name>
</trkpt>
<trkpt lat="51.768665" lon="19.486393">
<ele>253.0</ele>
<speed>12.0</speed>
<course>78.6</course>
<desc>Speed 12.0 km/h Distance 3.07 km</desc>
<time>2011-02-13T12:25:10.06</time>
<name>882</name>
</trkpt>
<trkpt lat="51.768672" lon="19.486447">
<ele>253.5</ele>
<speed>14.3</speed>
<course>90.0</course>
<desc>Speed 14.3 km/h Distance 3.08 km</desc>
<time>2011-02-13T12:25:11.06</time>
<name>883</name>
</trkpt>
<trkpt lat="51.768672" lon="19.486502">
<ele>253.0</ele>
<speed>14.7</speed>
<course>99.2</course>
<desc>Speed 14.7 km/h Distance 3.08 km</desc>
<time>2011-02-13T12:25:12.06</time>
<name>884</name>
</trkpt>
<trkpt lat="51.768667" lon="19.486552">
<ele>252.0</ele>
<speed>13.4</speed>
<course>101.1</course>
<desc>Speed 13.4 km/h Distance 3.08 km</desc>
<time>2011-02-13T12:25:13.06</time>
<name>885</name>
</trkpt>
<trkpt lat="51.768660" lon="19.486607">
<ele>250.0</ele>
<speed>14.8</speed>
<course>102.6</course>
<desc>Speed 14.8 km/h Distance 3.09 km</desc>
<time>2011-02-13T12:25:14.06</time>
<name>886</name>
</trkpt>
<trkpt lat="51.768653" lon="19.486655">
<ele>249.0</ele>
<speed>13.6</speed>
<course>90.0</course>
<desc>Speed 13.6 km/h Distance 3.09 km</desc>
<time>2011-02-13T12:25:15.06</time>
<name>887</name>
</trkpt>
<trkpt lat="51.768653" lon="19.486700">
<ele>249.5</ele>
<speed>13.6</speed>
<course>86.6</course>
<desc>Speed 13.6 km/h Distance 3.09 km</desc>
<time>2011-02-13T12:25:16.06</time>
<name>888</name>
</trkpt>
<trkpt lat="51.768655" lon="19.486745">
<ele>249.5</ele>
<speed>12.2</speed>
<course>90.0</course>
<desc>Speed 12.2 km/h Distance 3.10 km</desc>
<time>2011-02-13T12:25:17.06</time>
<name>889</name>
</trkpt>
<trkpt lat="51.768655" lon="19.486793">
<ele>249.0</ele>
<speed>13.5</speed>
<course>103.0</course>
<desc>Speed 13.5 km/h Distance 3.10 km</desc>
<time>2011-02-13T12:25:18.06</time>
<name>890</name>
</trkpt>
<trkpt lat="51.768650" lon="19.486828">
<ele>250.0</ele>
<speed>10.5</speed>
<course>119.7</course>
<desc>Speed 10.5 km/h Distance 3.10 km</desc>
<time>2011-02-13T12:25:19.06</time>
<name>891</name>
</trkpt>
<trkpt lat="51.768640" lon="19.486857">
<ele>251.0</ele>
<speed>9.1</speed>
<course>127.2</course>
<desc>Speed 9.1 km/h Distance 3.10 km</desc>
<time>2011-02-13T12:25:20.06</time>
<name>892</name>
</trkpt>
<trkpt lat="51.768627" lon="19.486885">
<ele>250.5</ele>
<speed>9.2</speed>
<course>102.4</course>
<desc>Speed 9.2 km/h Distance 3.11 km</desc>
<time>2011-02-13T12:25:21.06</time>
<name>893</name>
</trkpt>
<trkpt lat="51.768622" lon="19.486922">
<ele>252.0</ele>
<speed>10.7</speed>
<course>93.4</course>
<desc>Speed 10.7 km/h Distance 3.11 km</desc>
<time>2011-02-13T12:25:22.06</time>
<name>894</name>
</trkpt>
<trkpt lat="51.768620" lon="19.486967">
<ele>252.0</ele>
<speed>11.2</speed>
<course>92.8</course>
<desc>Speed 11.2 km/h Distance 3.11 km</desc>
<time>2011-02-13T12:25:23.07</time>
<name>895</name>
</trkpt>
<trkpt lat="51.768618" lon="19.487022">
<ele>251.0</ele>
<speed>14.1</speed>
<course>90.0</course>
<desc>Speed 14.1 km/h Distance 3.12 km</desc>
<time>2011-02-13T12:25:24.06</time>
<name>896</name>
</trkpt>
<trkpt lat="51.768618" lon="19.487080">
<ele>250.0</ele>
<speed>14.9</speed>
<course>80.5</course>
<desc>Speed 14.9 km/h Distance 3.12 km</desc>
<time>2011-02-13T12:25:25.06</time>
<name>897</name>
</trkpt>
<trkpt lat="51.768623" lon="19.487128">
<ele>250.5</ele>
<speed>13.1</speed>
<course>96.0</course>
<desc>Speed 13.1 km/h Distance 3.12 km</desc>
<time>2011-02-13T12:25:26.06</time>
<name>898</name>
</trkpt>
<trkpt lat="51.768620" lon="19.487180">
<ele>249.5</ele>
<speed>14.0</speed>
<course>90.0</course>
<desc>Speed 14.0 km/h Distance 3.13 km</desc>
<time>2011-02-13T12:25:27.06</time>
<name>899</name>
</trkpt>
<trkpt lat="51.768620" lon="19.487235">
<ele>250.0</ele>
<speed>15.3</speed>
<course>96.4</course>
<desc>Speed 15.3 km/h Distance 3.13 km</desc>
<time>2011-02-13T12:25:28.06</time>
<name>900</name>
</trkpt>
<trkpt lat="51.768617" lon="19.487283">
<ele>250.0</ele>
<speed>13.8</speed>
<course>96.4</course>
<desc>Speed 13.8 km/h Distance 3.13 km</desc>
<time>2011-02-13T12:25:29.06</time>
<name>901</name>
</trkpt>
<trkpt lat="51.768613" lon="19.487332">
<ele>250.0</ele>
<speed>14.4</speed>
<course>99.5</course>
<desc>Speed 14.4 km/h Distance 3.14 km</desc>
<time>2011-02-13T12:25:30.06</time>
<name>902</name>
</trkpt>
<trkpt lat="51.768608" lon="19.487380">
<ele>249.0</ele>
<speed>13.3</speed>
<course>84.2</course>
<desc>Speed 13.3 km/h Distance 3.14 km</desc>
<time>2011-02-13T12:25:31.05</time>
<name>903</name>
</trkpt>
<trkpt lat="51.768612" lon="19.487433">
<ele>249.5</ele>
<speed>15.0</speed>
<course>84.4</course>
<desc>Speed 15.0 km/h Distance 3.14 km</desc>
<time>2011-02-13T12:25:32.05</time>
<name>904</name>
</trkpt>
<trkpt lat="51.768615" lon="19.487488">
<ele>249.0</ele>
<speed>15.1</speed>
<course>86.8</course>
<desc>Speed 15.1 km/h Distance 3.15 km</desc>
<time>2011-02-13T12:25:33.06</time>
<name>905</name>
</trkpt>
<trkpt lat="51.768617" lon="19.487537">
<ele>249.0</ele>
<speed>13.8</speed>
<course>83.8</course>
<desc>Speed 13.8 km/h Distance 3.15 km</desc>
<time>2011-02-13T12:25:34.05</time>
<name>906</name>
</trkpt>
<trkpt lat="51.768620" lon="19.487587">
<ele>248.5</ele>
<speed>13.0</speed>
<course>90.0</course>
<desc>Speed 13.0 km/h Distance 3.16 km</desc>
<time>2011-02-13T12:25:35.05</time>
<name>907</name>
</trkpt>
<trkpt lat="51.768620" lon="19.487633">
<ele>248.5</ele>
<speed>12.9</speed>
<course>77.0</course>
<desc>Speed 12.9 km/h Distance 3.16 km</desc>
<time>2011-02-13T12:25:36.05</time>
<name>908</name>
</trkpt>
<trkpt lat="51.768627" lon="19.487680">
<ele>248.0</ele>
<speed>13.2</speed>
<course>107.4</course>
<desc>Speed 13.2 km/h Distance 3.16 km</desc>
<time>2011-02-13T12:25:37.05</time>
<name>909</name>
</trkpt>
<trkpt lat="51.768617" lon="19.487732">
<ele>249.5</ele>
<speed>15.8</speed>
<course>93.3</course>
<desc>Speed 15.8 km/h Distance 3.17 km</desc>
<time>2011-02-13T12:25:38.06</time>
<name>910</name>
</trkpt>
<trkpt lat="51.768615" lon="19.487778">
<ele>250.5</ele>
<speed>13.4</speed>
<course>80.2</course>
<desc>Speed 13.4 km/h Distance 3.17 km</desc>
<time>2011-02-13T12:25:39.05</time>
<name>911</name>
</trkpt>
<trkpt lat="51.768620" lon="19.487825">
<ele>251.0</ele>
<speed>14.1</speed>
<course>90.0</course>
<desc>Speed 14.1 km/h Distance 3.17 km</desc>
<time>2011-02-13T12:25:40.06</time>
<name>912</name>
</trkpt>
<trkpt lat="51.768620" lon="19.487863">
<ele>251.5</ele>
<speed>10.4</speed>
<course>79.2</course>
<desc>Speed 10.4 km/h Distance 3.17 km</desc>
<time>2011-02-13T12:25:41.06</time>
<name>913</name>
</trkpt>
<trkpt lat="51.768627" lon="19.487920">
<ele>250.5</ele>
<speed>15.7</speed>
<course>74.5</course>
<desc>Speed 15.7 km/h Distance 3.18 km</desc>
<time>2011-02-13T12:25:42.06</time>
<name>914</name>
</trkpt>
<trkpt lat="51.768637" lon="19.487978">
<ele>249.5</ele>
<speed>17.1</speed>
<course>71.6</course>
<desc>Speed 17.1 km/h Distance 3.18 km</desc>
<time>2011-02-13T12:25:43.07</time>
<name>915</name>
</trkpt>
<trkpt lat="51.768648" lon="19.488035">
<ele>249.5</ele>
<speed>15.4</speed>
<course>83.4</course>
<desc>Speed 15.4 km/h Distance 3.19 km</desc>
<time>2011-02-13T12:25:44.06</time>
<name>916</name>
</trkpt>
<trkpt lat="51.768652" lon="19.488082">
<ele>250.0</ele>
<speed>12.5</speed>
<course>86.4</course>
<desc>Speed 12.5 km/h Distance 3.19 km</desc>
<time>2011-02-13T12:25:45.05</time>
<name>917</name>
</trkpt>
<trkpt lat="51.768653" lon="19.488125">
<ele>250.5</ele>
<speed>12.2</speed>
<course>105.9</course>
<desc>Speed 12.2 km/h Distance 3.19 km</desc>
<time>2011-02-13T12:25:46.06</time>
<name>918</name>
</trkpt>
<trkpt lat="51.768648" lon="19.488153">
<ele>251.0</ele>
<speed>8.7</speed>
<course>86.6</course>
<desc>Speed 8.7 km/h Distance 3.20 km</desc>
<time>2011-02-13T12:25:47.06</time>
<name>919</name>
</trkpt>
<trkpt lat="51.768650" lon="19.488198">
<ele>251.0</ele>
<speed>12.0</speed>
<course>73.6</course>
<desc>Speed 12.0 km/h Distance 3.20 km</desc>
<time>2011-02-13T12:25:48.06</time>
<name>920</name>
</trkpt>
<trkpt lat="51.768660" lon="19.488253">
<ele>251.0</ele>
<speed>15.2</speed>
<course>70.2</course>
<desc>Speed 15.2 km/h Distance 3.20 km</desc>
<time>2011-02-13T12:25:49.05</time>
<name>921</name>
</trkpt>
<trkpt lat="51.768673" lon="19.488313">
<ele>251.5</ele>
<speed>17.5</speed>
<course>79.8</course>
<desc>Speed 17.5 km/h Distance 3.21 km</desc>
<time>2011-02-13T12:25:50.05</time>
<name>922</name>
</trkpt>
<trkpt lat="51.768680" lon="19.488373">
<ele>250.0</ele>
<speed>16.4</speed>
<course>115.1</course>
<desc>Speed 16.4 km/h Distance 3.21 km</desc>
<time>2011-02-13T12:25:51.06</time>
<name>923</name>
</trkpt>
<trkpt lat="51.768665" lon="19.488425">
<ele>248.5</ele>
<speed>13.9</speed>
<course>100.2</course>
<desc>Speed 13.9 km/h Distance 3.22 km</desc>
<time>2011-02-13T12:25:52.06</time>
<name>924</name>
</trkpt>
<trkpt lat="51.768660" lon="19.488470">
<ele>249.0</ele>
<speed>12.2</speed>
<course>109.8</course>
<desc>Speed 12.2 km/h Distance 3.22 km</desc>
<time>2011-02-13T12:25:53.06</time>
<name>925</name>
</trkpt>
<trkpt lat="51.768650" lon="19.488515">
<ele>248.5</ele>
<speed>12.7</speed>
<course>117.2</course>
<desc>Speed 12.7 km/h Distance 3.22 km</desc>
<time>2011-02-13T12:25:54.06</time>
<name>926</name>
</trkpt>
<trkpt lat="51.768638" lon="19.488552">
<ele>249.5</ele>
<speed>11.3</speed>
<course>95.6</course>
<desc>Speed 11.3 km/h Distance 3.22 km</desc>
<time>2011-02-13T12:25:55.06</time>
<name>927</name>
</trkpt>
<trkpt lat="51.768635" lon="19.488607">
<ele>248.0</ele>
<speed>15.0</speed>
<course>97.1</course>
<desc>Speed 15.0 km/h Distance 3.23 km</desc>
<time>2011-02-13T12:25:56.05</time>
<name>928</name>
</trkpt>
<trkpt lat="51.768632" lon="19.488650">
<ele>249.0</ele>
<speed>13.8</speed>
<course>106.7</course>
<desc>Speed 13.8 km/h Distance 3.23 km</desc>
<time>2011-02-13T12:25:57.05</time>
<name>929</name>
</trkpt>
<trkpt lat="51.768623" lon="19.488695">
<ele>251.0</ele>
<speed>14.2</speed>
<course>98.0</course>
<desc>Speed 14.2 km/h Distance 3.23 km</desc>
<time>2011-02-13T12:25:58.06</time>
<name>930</name>
</trkpt>
<trkpt lat="51.768620" lon="19.488733">
<ele>252.0</ele>
<speed>10.2</speed>
<course>101.4</course>
<desc>Speed 10.2 km/h Distance 3.24 km</desc>
<time>2011-02-13T12:25:59.05</time>
<name>931</name>
</trkpt>
<trkpt lat="51.768613" lon="19.488787">
<ele>251.0</ele>
<speed>14.5</speed>
<course>97.7</course>
<desc>Speed 14.5 km/h Distance 3.24 km</desc>
<time>2011-02-13T12:26:00.06</time>
<name>932</name>
</trkpt>
<trkpt lat="51.768608" lon="19.488847">
<ele>249.5</ele>
<speed>15.3</speed>
<course>92.5</course>
<desc>Speed 15.3 km/h Distance 3.24 km</desc>
<time>2011-02-13T12:26:01.05</time>
<name>933</name>
</trkpt>
<trkpt lat="51.768607" lon="19.488908">
<ele>249.0</ele>
<speed>16.1</speed>
<course>92.9</course>
<desc>Speed 16.1 km/h Distance 3.25 km</desc>
<time>2011-02-13T12:26:02.05</time>
<name>934</name>
</trkpt>
<trkpt lat="51.768605" lon="19.488962">
<ele>248.5</ele>
<speed>14.1</speed>
<course>108.6</course>
<desc>Speed 14.1 km/h Distance 3.25 km</desc>
<time>2011-02-13T12:26:03.05</time>
<name>935</name>
</trkpt>
<trkpt lat="51.768597" lon="19.489002">
<ele>249.5</ele>
<speed>11.2</speed>
<course>102.2</course>
<desc>Speed 11.2 km/h Distance 3.26 km</desc>
<time>2011-02-13T12:26:04.06</time>
<name>936</name>
</trkpt>
<trkpt lat="51.768590" lon="19.489052">
<ele>249.0</ele>
<speed>13.8</speed>
<course>87.3</course>
<desc>Speed 13.8 km/h Distance 3.26 km</desc>
<time>2011-02-13T12:26:05.06</time>
<name>937</name>
</trkpt>
<trkpt lat="51.768592" lon="19.489108">
<ele>249.5</ele>
<speed>15.1</speed>
<course>90.0</course>
<desc>Speed 15.1 km/h Distance 3.26 km</desc>
<time>2011-02-13T12:26:06.06</time>
<name>938</name>
</trkpt>
<trkpt lat="51.768592" lon="19.489168">
<ele>248.5</ele>
<speed>16.2</speed>
<course>96.0</course>
<desc>Speed 16.2 km/h Distance 3.27 km</desc>
<time>2011-02-13T12:26:07.05</time>
<name>939</name>
</trkpt>
<trkpt lat="51.768588" lon="19.489220">
<ele>248.5</ele>
<speed>14.3</speed>
<course>101.1</course>
<desc>Speed 14.3 km/h Distance 3.27 km</desc>
<time>2011-02-13T12:26:08.05</time>
<name>940</name>
</trkpt>
<trkpt lat="51.768582" lon="19.489275">
<ele>248.0</ele>
<speed>13.9</speed>
<course>82.3</course>
<desc>Speed 13.9 km/h Distance 3.27 km</desc>
<time>2011-02-13T12:26:09.06</time>
<name>941</name>
</trkpt>
<trkpt lat="51.768587" lon="19.489335">
<ele>248.5</ele>
<speed>15.8</speed>
<course>98.6</course>
<desc>Speed 15.8 km/h Distance 3.28 km</desc>
<time>2011-02-13T12:26:10.05</time>
<name>942</name>
</trkpt>
<trkpt lat="51.768582" lon="19.489388">
<ele>248.0</ele>
<speed>14.2</speed>
<course>118.3</course>
<desc>Speed 14.2 km/h Distance 3.28 km</desc>
<time>2011-02-13T12:26:11.05</time>
<name>943</name>
</trkpt>
<trkpt lat="51.768568" lon="19.489428">
<ele>248.5</ele>
<speed>11.3</speed>
<course>104.5</course>
<desc>Speed 11.3 km/h Distance 3.29 km</desc>
<time>2011-02-13T12:26:12.06</time>
<name>944</name>
</trkpt>
<trkpt lat="51.768562" lon="19.489470">
<ele>248.0</ele>
<speed>11.8</speed>
<course>90.0</course>
<desc>Speed 11.8 km/h Distance 3.29 km</desc>
<time>2011-02-13T12:26:13.06</time>
<name>945</name>
</trkpt>
<trkpt lat="51.768562" lon="19.489513">
<ele>248.0</ele>
<speed>12.0</speed>
<course>113.5</course>
<desc>Speed 12.0 km/h Distance 3.29 km</desc>
<time>2011-02-13T12:26:14.05</time>
<name>946</name>
</trkpt>
<trkpt lat="51.768550" lon="19.489557">
<ele>248.0</ele>
<speed>11.9</speed>
<course>106.7</course>
<desc>Speed 11.9 km/h Distance 3.30 km</desc>
<time>2011-02-13T12:26:15.05</time>
<name>947</name>
</trkpt>
<trkpt lat="51.768542" lon="19.489602">
<ele>248.5</ele>
<speed>11.6</speed>
<course>98.6</course>
<desc>Speed 11.6 km/h Distance 3.30 km</desc>
<time>2011-02-13T12:26:16.06</time>
<name>948</name>
</trkpt>
<trkpt lat="51.768537" lon="19.489655">
<ele>247.5</ele>
<speed>14.0</speed>
<course>96.0</course>
<desc>Speed 14.0 km/h Distance 3.30 km</desc>
<time>2011-02-13T12:26:17.05</time>
<name>949</name>
</trkpt>
<trkpt lat="51.768533" lon="19.489707">
<ele>246.5</ele>
<speed>14.1</speed>
<course>92.9</course>
<desc>Speed 14.1 km/h Distance 3.31 km</desc>
<time>2011-02-13T12:26:18.05</time>
<name>950</name>
</trkpt>
<trkpt lat="51.768532" lon="19.489760">
<ele>247.5</ele>
<speed>14.2</speed>
<course>87.4</course>
<desc>Speed 14.2 km/h Distance 3.31 km</desc>
<time>2011-02-13T12:26:19.06</time>
<name>951</name>
</trkpt>
<trkpt lat="51.768533" lon="19.489818">
<ele>247.0</ele>
<speed>15.0</speed>
<course>90.0</course>
<desc>Speed 15.0 km/h Distance 3.31 km</desc>
<time>2011-02-13T12:26:20.05</time>
<name>952</name>
</trkpt>
<trkpt lat="51.768533" lon="19.489870">
<ele>247.5</ele>
<speed>13.6</speed>
<course>82.9</course>
<desc>Speed 13.6 km/h Distance 3.32 km</desc>
<time>2011-02-13T12:26:21.05</time>
<name>953</name>
</trkpt>
<trkpt lat="51.768538" lon="19.489935">
<ele>246.0</ele>
<speed>16.8</speed>
<course>92.9</course>
<desc>Speed 16.8 km/h Distance 3.32 km</desc>
<time>2011-02-13T12:26:22.06</time>
<name>954</name>
</trkpt>
<trkpt lat="51.768537" lon="19.489988">
<ele>246.0</ele>
<speed>13.7</speed>
<course>87.0</course>
<desc>Speed 13.7 km/h Distance 3.32 km</desc>
<time>2011-02-13T12:26:23.05</time>
<name>955</name>
</trkpt>
<trkpt lat="51.768538" lon="19.490040">
<ele>245.5</ele>
<speed>13.2</speed>
<course>92.5</course>
<desc>Speed 13.2 km/h Distance 3.33 km</desc>
<time>2011-02-13T12:26:24.05</time>
<name>956</name>
</trkpt>
<trkpt lat="51.768537" lon="19.490102">
<ele>244.5</ele>
<speed>15.6</speed>
<course>92.7</course>
<desc>Speed 15.6 km/h Distance 3.33 km</desc>
<time>2011-02-13T12:26:25.05</time>
<name>957</name>
</trkpt>
<trkpt lat="51.768535" lon="19.490158">
<ele>244.0</ele>
<speed>14.5</speed>
<course>93.0</course>
<desc>Speed 14.5 km/h Distance 3.34 km</desc>
<time>2011-02-13T12:26:26.06</time>
<name>958</name>
</trkpt>
<trkpt lat="51.768533" lon="19.490210">
<ele>244.0</ele>
<speed>13.6</speed>
<course>93.0</course>
<desc>Speed 13.6 km/h Distance 3.34 km</desc>
<time>2011-02-13T12:26:27.05</time>
<name>959</name>
</trkpt>
<trkpt lat="51.768532" lon="19.490262">
<ele>244.0</ele>
<speed>13.4</speed>
<course>90.0</course>
<desc>Speed 13.4 km/h Distance 3.34 km</desc>
<time>2011-02-13T12:26:28.06</time>
<name>960</name>
</trkpt>
<trkpt lat="51.768532" lon="19.490313">
<ele>244.0</ele>
<speed>13.3</speed>
<course>95.8</course>
<desc>Speed 13.3 km/h Distance 3.35 km</desc>
<time>2011-02-13T12:26:29.06</time>
<name>961</name>
</trkpt>
<trkpt lat="51.768528" lon="19.490367">
<ele>244.0</ele>
<speed>14.0</speed>
<course>98.6</course>
<desc>Speed 14.0 km/h Distance 3.35 km</desc>
<time>2011-02-13T12:26:30.05</time>
<name>962</name>
</trkpt>
<trkpt lat="51.768523" lon="19.490420">
<ele>243.5</ele>
<speed>13.6</speed>
<course>90.0</course>
<desc>Speed 13.6 km/h Distance 3.35 km</desc>
<time>2011-02-13T12:26:31.06</time>
<name>963</name>
</trkpt>
<trkpt lat="51.768523" lon="19.490482">
<ele>242.5</ele>
<speed>15.9</speed>
<course>112.7</course>
<desc>Speed 15.9 km/h Distance 3.36 km</desc>
<time>2011-02-13T12:26:32.05</time>
<name>964</name>
</trkpt>
<trkpt lat="51.768512" lon="19.490527">
<ele>243.5</ele>
<speed>12.5</speed>
<course>103.8</course>
<desc>Speed 12.5 km/h Distance 3.36 km</desc>
<time>2011-02-13T12:26:33.05</time>
<name>965</name>
</trkpt>
<trkpt lat="51.768503" lon="19.490582">
<ele>243.0</ele>
<speed>14.2</speed>
<course>113.5</course>
<desc>Speed 14.2 km/h Distance 3.37 km</desc>
<time>2011-02-13T12:26:34.05</time>
<name>966</name>
</trkpt>
<trkpt lat="51.768492" lon="19.490625">
<ele>243.5</ele>
<speed>12.2</speed>
<course>101.8</course>
<desc>Speed 12.2 km/h Distance 3.37 km</desc>
<time>2011-02-13T12:26:35.05</time>
<name>967</name>
</trkpt>
<trkpt lat="51.768485" lon="19.490677">
<ele>244.0</ele>
<speed>14.0</speed>
<course>123.5</course>
<desc>Speed 14.0 km/h Distance 3.37 km</desc>
<time>2011-02-13T12:26:36.05</time>
<name>968</name>
</trkpt>
<trkpt lat="51.768470" lon="19.490713">
<ele>244.0</ele>
<speed>10.5</speed>
<course>92.6</course>
<desc>Speed 10.5 km/h Distance 3.38 km</desc>
<time>2011-02-13T12:26:37.05</time>
<name>969</name>
</trkpt>
<trkpt lat="51.768468" lon="19.490772">
<ele>243.5</ele>
<speed>15.2</speed>
<course>93.0</course>
<desc>Speed 15.2 km/h Distance 3.38 km</desc>
<time>2011-02-13T12:26:38.05</time>
<name>970</name>
</trkpt>
<trkpt lat="51.768467" lon="19.490823">
<ele>243.0</ele>
<speed>13.5</speed>
<course>92.9</course>
<desc>Speed 13.5 km/h Distance 3.38 km</desc>
<time>2011-02-13T12:26:39.05</time>
<name>971</name>
</trkpt>
<trkpt lat="51.768465" lon="19.490877">
<ele>242.0</ele>
<speed>14.0</speed>
<course>81.1</course>
<desc>Speed 14.0 km/h Distance 3.39 km</desc>
<time>2011-02-13T12:26:40.05</time>
<name>972</name>
</trkpt>
<trkpt lat="51.768470" lon="19.490928">
<ele>242.5</ele>
<speed>13.8</speed>
<course>90.0</course>
<desc>Speed 13.8 km/h Distance 3.39 km</desc>
<time>2011-02-13T12:26:41.06</time>
<name>973</name>
</trkpt>
<trkpt lat="51.768470" lon="19.490972">
<ele>243.5</ele>
<speed>11.5</speed>
<course>83.6</course>
<desc>Speed 11.5 km/h Distance 3.39 km</desc>
<time>2011-02-13T12:26:42.05</time>
<name>974</name>
</trkpt>
<trkpt lat="51.768473" lon="19.491020">
<ele>243.5</ele>
<speed>12.2</speed>
<course>90.0</course>
<desc>Speed 12.2 km/h Distance 3.40 km</desc>
<time>2011-02-13T12:26:43.06</time>
<name>975</name>
</trkpt>
<trkpt lat="51.768473" lon="19.491063">
<ele>244.0</ele>
<speed>11.2</speed>
<course>83.2</course>
<desc>Speed 11.2 km/h Distance 3.40 km</desc>
<time>2011-02-13T12:26:44.05</time>
<name>976</name>
</trkpt>
<trkpt lat="51.768477" lon="19.491108">
<ele>244.5</ele>
<speed>11.8</speed>
<course>84.2</course>
<desc>Speed 11.8 km/h Distance 3.40 km</desc>
<time>2011-02-13T12:26:45.05</time>
<name>977</name>
</trkpt>
<trkpt lat="51.768480" lon="19.491162">
<ele>243.5</ele>
<speed>13.8</speed>
<course>109.8</course>
<desc>Speed 13.8 km/h Distance 3.41 km</desc>
<time>2011-02-13T12:26:46.06</time>
<name>978</name>
</trkpt>
<trkpt lat="51.768470" lon="19.491207">
<ele>242.5</ele>
<speed>11.8</speed>
<course>74.4</course>
<desc>Speed 11.8 km/h Distance 3.41 km</desc>
<time>2011-02-13T12:26:47.05</time>
<name>979</name>
</trkpt>
<trkpt lat="51.768478" lon="19.491255">
<ele>242.5</ele>
<speed>12.8</speed>
<course>81.1</course>
<desc>Speed 12.8 km/h Distance 3.41 km</desc>
<time>2011-02-13T12:26:48.05</time>
<name>980</name>
</trkpt>
<trkpt lat="51.768483" lon="19.491307">
<ele>243.0</ele>
<speed>13.8</speed>
<course>87.4</course>
<desc>Speed 13.8 km/h Distance 3.42 km</desc>
<time>2011-02-13T12:26:49.05</time>
<name>981</name>
</trkpt>
<trkpt lat="51.768485" lon="19.491367">
<ele>242.5</ele>
<speed>15.5</speed>
<course>80.3</course>
<desc>Speed 15.5 km/h Distance 3.42 km</desc>
<time>2011-02-13T12:26:50.05</time>
<name>982</name>
</trkpt>
<trkpt lat="51.768492" lon="19.491430">
<ele>241.0</ele>
<speed>16.5</speed>
<course>92.6</course>
<desc>Speed 16.5 km/h Distance 3.43 km</desc>
<time>2011-02-13T12:26:51.05</time>
<name>983</name>
</trkpt>
<trkpt lat="51.768490" lon="19.491490">
<ele>240.0</ele>
<speed>15.4</speed>
<course>74.9</course>
<desc>Speed 15.4 km/h Distance 3.43 km</desc>
<time>2011-02-13T12:26:52.06</time>
<name>984</name>
</trkpt>
<trkpt lat="51.768500" lon="19.491550">
<ele>241.0</ele>
<speed>16.1</speed>
<course>93.0</course>
<desc>Speed 16.1 km/h Distance 3.43 km</desc>
<time>2011-02-13T12:26:53.06</time>
<name>985</name>
</trkpt>
<trkpt lat="51.768498" lon="19.491602">
<ele>241.5</ele>
<speed>13.5</speed>
<course>119.3</course>
<desc>Speed 13.5 km/h Distance 3.44 km</desc>
<time>2011-02-13T12:26:54.05</time>
<name>986</name>
</trkpt>
<trkpt lat="51.768485" lon="19.491640">
<ele>242.0</ele>
<speed>10.6</speed>
<course>82.1</course>
<desc>Speed 10.6 km/h Distance 3.44 km</desc>
<time>2011-02-13T12:26:55.05</time>
<name>987</name>
</trkpt>
<trkpt lat="51.768490" lon="19.491698">
<ele>242.5</ele>
<speed>15.3</speed>
<course>103.8</course>
<desc>Speed 15.3 km/h Distance 3.45 km</desc>
<time>2011-02-13T12:26:56.05</time>
<name>988</name>
</trkpt>
<trkpt lat="51.768482" lon="19.491753">
<ele>241.5</ele>
<speed>14.1</speed>
<course>101.4</course>
<desc>Speed 14.1 km/h Distance 3.45 km</desc>
<time>2011-02-13T12:26:57.05</time>
<name>989</name>
</trkpt>
<trkpt lat="51.768475" lon="19.491807">
<ele>240.5</ele>
<speed>14.0</speed>
<course>85.1</course>
<desc>Speed 14.0 km/h Distance 3.45 km</desc>
<time>2011-02-13T12:26:58.05</time>
<name>990</name>
</trkpt>
<trkpt lat="51.768478" lon="19.491870">
<ele>239.0</ele>
<speed>15.9</speed>
<course>87.6</course>
<desc>Speed 15.9 km/h Distance 3.46 km</desc>
<time>2011-02-13T12:26:59.06</time>
<name>991</name>
</trkpt>
<trkpt lat="51.768480" lon="19.491933">
<ele>239.5</ele>
<speed>15.8</speed>
<course>95.6</course>
<desc>Speed 15.8 km/h Distance 3.46 km</desc>
<time>2011-02-13T12:27:00.05</time>
<name>992</name>
</trkpt>
<trkpt lat="51.768477" lon="19.491988">
<ele>238.5</ele>
<speed>14.6</speed>
<course>98.6</course>
<desc>Speed 14.6 km/h Distance 3.47 km</desc>
<time>2011-02-13T12:27:01.05</time>
<name>993</name>
</trkpt>
<trkpt lat="51.768472" lon="19.492042">
<ele>239.0</ele>
<speed>13.9</speed>
<course>100.5</course>
<desc>Speed 13.9 km/h Distance 3.47 km</desc>
<time>2011-02-13T12:27:02.05</time>
<name>994</name>
</trkpt>
<trkpt lat="51.768465" lon="19.492100">
<ele>239.0</ele>
<speed>15.8</speed>
<course>98.6</course>
<desc>Speed 15.8 km/h Distance 3.47 km</desc>
<time>2011-02-13T12:27:03.05</time>
<name>995</name>
</trkpt>
<trkpt lat="51.768460" lon="19.492153">
<ele>239.0</ele>
<speed>14.6</speed>
<course>87.4</course>
<desc>Speed 14.6 km/h Distance 3.48 km</desc>
<time>2011-02-13T12:27:04.06</time>
<name>996</name>
</trkpt>
<trkpt lat="51.768462" lon="19.492212">
<ele>240.0</ele>
<speed>15.1</speed>
<course>98.1</course>
<desc>Speed 15.1 km/h Distance 3.48 km</desc>
<time>2011-02-13T12:27:05.05</time>
<name>997</name>
</trkpt>
<trkpt lat="51.768457" lon="19.492268">
<ele>239.5</ele>
<speed>15.4</speed>
<course>87.3</course>
<desc>Speed 15.4 km/h Distance 3.48 km</desc>
<time>2011-02-13T12:27:06.05</time>
<name>998</name>
</trkpt>
<trkpt lat="51.768458" lon="19.492325">
<ele>240.5</ele>
<speed>15.0</speed>
<course>93.4</course>
<desc>Speed 15.0 km/h Distance 3.49 km</desc>
<time>2011-02-13T12:27:07.05</time>
<name>999</name>
</trkpt>
<trkpt lat="51.768457" lon="19.492370">
<ele>241.5</ele>
<speed>12.6</speed>
<course>92.7</course>
<desc>Speed 12.6 km/h Distance 3.49 km</desc>
<time>2011-02-13T12:27:08.05</time>
<name>1000</name>
</trkpt>
<trkpt lat="51.768455" lon="19.492427">
<ele>242.5</ele>
<speed>15.2</speed>
<course>100.8</course>
<desc>Speed 15.2 km/h Distance 3.50 km</desc>
<time>2011-02-13T12:27:09.05</time>
<name>1001</name>
</trkpt>
<trkpt lat="51.768448" lon="19.492483">
<ele>242.5</ele>
<speed>15.4</speed>
<course>105.1</course>
<desc>Speed 15.4 km/h Distance 3.50 km</desc>
<time>2011-02-13T12:27:10.05</time>
<name>1002</name>
</trkpt>
<trkpt lat="51.768440" lon="19.492533">
<ele>244.0</ele>
<speed>14.0</speed>
<course>93.1</course>
<desc>Speed 14.0 km/h Distance 3.50 km</desc>
<time>2011-02-13T12:27:11.05</time>
<name>1003</name>
</trkpt>
<trkpt lat="51.768438" lon="19.492583">
<ele>244.5</ele>
<speed>13.7</speed>
<course>96.4</course>
<desc>Speed 13.7 km/h Distance 3.51 km</desc>
<time>2011-02-13T12:27:12.05</time>
<name>1004</name>
</trkpt>
<trkpt lat="51.768435" lon="19.492632">
<ele>245.5</ele>
<speed>12.5</speed>
<course>101.8</course>
<desc>Speed 12.5 km/h Distance 3.51 km</desc>
<time>2011-02-13T12:27:13.05</time>
<name>1005</name>
</trkpt>
<trkpt lat="51.768428" lon="19.492683">
<ele>245.5</ele>
<speed>13.7</speed>
<course>107.9</course>
<desc>Speed 13.7 km/h Distance 3.51 km</desc>
<time>2011-02-13T12:27:14.04</time>
<name>1006</name>
</trkpt>
<trkpt lat="51.768418" lon="19.492733">
<ele>245.0</ele>
<speed>14.0</speed>
<course>107.9</course>
<desc>Speed 14.0 km/h Distance 3.52 km</desc>
<time>2011-02-13T12:27:15.05</time>
<name>1007</name>
</trkpt>
<trkpt lat="51.768410" lon="19.492775">
<ele>246.0</ele>
<speed>12.0</speed>
<course>73.6</course>
<desc>Speed 12.0 km/h Distance 3.52 km</desc>
<time>2011-02-13T12:27:16.05</time>
<name>1008</name>
</trkpt>
<trkpt lat="51.768420" lon="19.492830">
<ele>247.0</ele>
<speed>15.8</speed>
<course>76.2</course>
<desc>Speed 15.8 km/h Distance 3.52 km</desc>
<time>2011-02-13T12:27:17.04</time>
<name>1009</name>
</trkpt>
<trkpt lat="51.768428" lon="19.492885">
<ele>246.5</ele>
<speed>14.6</speed>
<course>77.4</course>
<desc>Speed 14.6 km/h Distance 3.53 km</desc>
<time>2011-02-13T12:27:18.05</time>
<name>1010</name>
</trkpt>
<trkpt lat="51.768437" lon="19.492945">
<ele>245.0</ele>
<speed>15.9</speed>
<course>102.6</course>
<desc>Speed 15.9 km/h Distance 3.53 km</desc>
<time>2011-02-13T12:27:19.05</time>
<name>1011</name>
</trkpt>
<trkpt lat="51.768430" lon="19.492993">
<ele>245.5</ele>
<speed>12.7</speed>
<course>97.9</course>
<desc>Speed 12.7 km/h Distance 3.54 km</desc>
<time>2011-02-13T12:27:20.05</time>
<name>1012</name>
</trkpt>
<trkpt lat="51.768425" lon="19.493052">
<ele>245.0</ele>
<speed>15.0</speed>
<course>96.4</course>
<desc>Speed 15.0 km/h Distance 3.54 km</desc>
<time>2011-02-13T12:27:21.05</time>
<name>1013</name>
</trkpt>
<trkpt lat="51.768422" lon="19.493100">
<ele>245.0</ele>
<speed>12.5</speed>
<course>114.4</course>
<desc>Speed 12.5 km/h Distance 3.54 km</desc>
<time>2011-02-13T12:27:22.04</time>
<name>1014</name>
</trkpt>
<trkpt lat="51.768410" lon="19.493142">
<ele>245.0</ele>
<speed>11.2</speed>
<course>104.6</course>
<desc>Speed 11.2 km/h Distance 3.55 km</desc>
<time>2011-02-13T12:27:23.05</time>
<name>1015</name>
</trkpt>
<trkpt lat="51.768402" lon="19.493193">
<ele>243.5</ele>
<speed>13.5</speed>
<course>95.4</course>
<desc>Speed 13.5 km/h Distance 3.55 km</desc>
<time>2011-02-13T12:27:24.05</time>
<name>1016</name>
</trkpt>
<trkpt lat="51.768398" lon="19.493250">
<ele>241.5</ele>
<speed>14.9</speed>
<course>92.7</course>
<desc>Speed 14.9 km/h Distance 3.55 km</desc>
<time>2011-02-13T12:27:25.04</time>
<name>1017</name>
</trkpt>
<trkpt lat="51.768397" lon="19.493307">
<ele>240.0</ele>
<speed>14.8</speed>
<course>102.2</course>
<desc>Speed 14.8 km/h Distance 3.56 km</desc>
<time>2011-02-13T12:27:26.05</time>
<name>1018</name>
</trkpt>
<trkpt lat="51.768390" lon="19.493357">
<ele>239.5</ele>
<speed>12.6</speed>
<course>98.1</course>
<desc>Speed 12.6 km/h Distance 3.56 km</desc>
<time>2011-02-13T12:27:27.04</time>
<name>1019</name>
</trkpt>
<trkpt lat="51.768385" lon="19.493413">
<ele>238.5</ele>
<speed>14.4</speed>
<course>120.2</course>
<desc>Speed 14.4 km/h Distance 3.57 km</desc>
<time>2011-02-13T12:27:28.05</time>
<name>1020</name>
</trkpt>
<trkpt lat="51.768370" lon="19.493455">
<ele>238.5</ele>
<speed>12.2</speed>
<course>96.2</course>
<desc>Speed 12.2 km/h Distance 3.57 km</desc>
<time>2011-02-13T12:27:29.05</time>
<name>1021</name>
</trkpt>
<trkpt lat="51.768367" lon="19.493505">
<ele>237.5</ele>
<speed>13.2</speed>
<course>103.0</course>
<desc>Speed 13.2 km/h Distance 3.57 km</desc>
<time>2011-02-13T12:27:30.04</time>
<name>1022</name>
</trkpt>
<trkpt lat="51.768360" lon="19.493552">
<ele>238.0</ele>
<speed>12.7</speed>
<course>100.2</course>
<desc>Speed 12.7 km/h Distance 3.58 km</desc>
<time>2011-02-13T12:27:31.04</time>
<name>1023</name>
</trkpt>
<trkpt lat="51.768355" lon="19.493597">
<ele>238.5</ele>
<speed>11.8</speed>
<course>92.8</course>
<desc>Speed 11.8 km/h Distance 3.58 km</desc>
<time>2011-02-13T12:27:32.04</time>
<name>1024</name>
</trkpt>
<trkpt lat="51.768353" lon="19.493652">
<ele>239.0</ele>
<speed>14.9</speed>
<course>95.8</course>
<desc>Speed 14.9 km/h Distance 3.58 km</desc>
<time>2011-02-13T12:27:33.05</time>
<name>1025</name>
</trkpt>
<trkpt lat="51.768350" lon="19.493705">
<ele>240.0</ele>
<speed>13.9</speed>
<course>92.8</course>
<desc>Speed 13.9 km/h Distance 3.59 km</desc>
<time>2011-02-13T12:27:34.05</time>
<name>1026</name>
</trkpt>
<trkpt lat="51.768348" lon="19.493760">
<ele>239.0</ele>
<speed>14.2</speed>
<course>92.9</course>
<desc>Speed 14.2 km/h Distance 3.59 km</desc>
<time>2011-02-13T12:27:35.04</time>
<name>1027</name>
</trkpt>
<trkpt lat="51.768347" lon="19.493813">
<ele>237.5</ele>
<speed>13.6</speed>
<course>100.2</course>
<desc>Speed 13.6 km/h Distance 3.59 km</desc>
<time>2011-02-13T12:27:36.05</time>
<name>1028</name>
</trkpt>
<trkpt lat="51.768342" lon="19.493858">
<ele>238.5</ele>
<speed>12.3</speed>
<course>90.0</course>
<desc>Speed 12.3 km/h Distance 3.60 km</desc>
<time>2011-02-13T12:27:37.05</time>
<name>1029</name>
</trkpt>
<trkpt lat="51.768342" lon="19.493908">
<ele>238.5</ele>
<speed>13.6</speed>
<course>93.2</course>
<desc>Speed 13.6 km/h Distance 3.60 km</desc>
<time>2011-02-13T12:27:38.04</time>
<name>1030</name>
</trkpt>
<trkpt lat="51.768340" lon="19.493957">
<ele>239.5</ele>
<speed>13.1</speed>
<course>87.3</course>
<desc>Speed 13.1 km/h Distance 3.60 km</desc>
<time>2011-02-13T12:27:39.04</time>
<name>1031</name>
</trkpt>
<trkpt lat="51.768342" lon="19.494013">
<ele>239.0</ele>
<speed>14.1</speed>
<course>98.0</course>
<desc>Speed 14.1 km/h Distance 3.61 km</desc>
<time>2011-02-13T12:27:40.05</time>
<name>1032</name>
</trkpt>
<trkpt lat="51.768338" lon="19.494052">
<ele>240.5</ele>
<speed>11.7</speed>
<course>111.0</course>
<desc>Speed 11.7 km/h Distance 3.61 km</desc>
<time>2011-02-13T12:27:41.04</time>
<name>1033</name>
</trkpt>
<trkpt lat="51.768330" lon="19.494087">
<ele>242.5</ele>
<speed>10.5</speed>
<course>104.5</course>
<desc>Speed 10.5 km/h Distance 3.61 km</desc>
<time>2011-02-13T12:27:42.05</time>
<name>1034</name>
</trkpt>
<trkpt lat="51.768323" lon="19.494128">
<ele>243.5</ele>
<speed>11.5</speed>
<course>102.6</course>
<desc>Speed 11.5 km/h Distance 3.62 km</desc>
<time>2011-02-13T12:27:43.05</time>
<name>1035</name>
</trkpt>
<trkpt lat="51.768317" lon="19.494177">
<ele>243.0</ele>
<speed>12.6</speed>
<course>90.0</course>
<desc>Speed 12.6 km/h Distance 3.62 km</desc>
<time>2011-02-13T12:27:44.05</time>
<name>1036</name>
</trkpt>
<trkpt lat="51.768317" lon="19.494225">
<ele>243.5</ele>
<speed>13.3</speed>
<course>80.5</course>
<desc>Speed 13.3 km/h Distance 3.62 km</desc>
<time>2011-02-13T12:27:45.04</time>
<name>1037</name>
</trkpt>
<trkpt lat="51.768322" lon="19.494273">
<ele>244.5</ele>
<speed>13.1</speed>
<course>98.8</course>
<desc>Speed 13.1 km/h Distance 3.63 km</desc>
<time>2011-02-13T12:27:46.04</time>
<name>1038</name>
</trkpt>
<trkpt lat="51.768318" lon="19.494308">
<ele>246.0</ele>
<speed>9.3</speed>
<course>104.6</course>
<desc>Speed 9.3 km/h Distance 3.63 km</desc>
<time>2011-02-13T12:27:47.05</time>
<name>1039</name>
</trkpt>
<trkpt lat="51.768310" lon="19.494360">
<ele>244.5</ele>
<speed>13.9</speed>
<course>103.6</course>
<desc>Speed 13.9 km/h Distance 3.63 km</desc>
<time>2011-02-13T12:27:48.05</time>
<name>1040</name>
</trkpt>
<trkpt lat="51.768305" lon="19.494393">
<ele>244.5</ele>
<speed>9.6</speed>
<course>92.9</course>
<desc>Speed 9.6 km/h Distance 3.63 km</desc>
<time>2011-02-13T12:27:49.04</time>
<name>1041</name>
</trkpt>
<trkpt lat="51.768303" lon="19.494447">
<ele>243.5</ele>
<speed>13.2</speed>
<course>105.7</course>
<desc>Speed 13.2 km/h Distance 3.64 km</desc>
<time>2011-02-13T12:27:50.05</time>
<name>1042</name>
</trkpt>
<trkpt lat="51.768297" lon="19.494485">
<ele>244.0</ele>
<speed>10.2</speed>
<course>102.6</course>
<desc>Speed 10.2 km/h Distance 3.64 km</desc>
<time>2011-02-13T12:27:51.05</time>
<name>1043</name>
</trkpt>
<trkpt lat="51.768290" lon="19.494533">
<ele>243.0</ele>
<speed>12.7</speed>
<course>87.4</course>
<desc>Speed 12.7 km/h Distance 3.64 km</desc>
<time>2011-02-13T12:27:52.04</time>
<name>1044</name>
</trkpt>
<trkpt lat="51.768292" lon="19.494593">
<ele>241.5</ele>
<speed>15.6</speed>
<course>96.8</course>
<desc>Speed 15.6 km/h Distance 3.65 km</desc>
<time>2011-02-13T12:27:53.05</time>
<name>1045</name>
</trkpt>
<trkpt lat="51.768288" lon="19.494638">
<ele>241.5</ele>
<speed>12.2</speed>
<course>90.0</course>
<desc>Speed 12.2 km/h Distance 3.65 km</desc>
<time>2011-02-13T12:27:54.04</time>
<name>1046</name>
</trkpt>
<trkpt lat="51.768288" lon="19.494698">
<ele>241.0</ele>
<speed>16.7</speed>
<course>99.2</course>
<desc>Speed 16.7 km/h Distance 3.66 km</desc>
<time>2011-02-13T12:27:55.05</time>
<name>1047</name>
</trkpt>
<trkpt lat="51.768283" lon="19.494748">
<ele>241.5</ele>
<speed>13.3</speed>
<course>90.0</course>
<desc>Speed 13.3 km/h Distance 3.66 km</desc>
<time>2011-02-13T12:27:56.05</time>
<name>1048</name>
</trkpt>
<trkpt lat="51.768283" lon="19.494798">
<ele>240.5</ele>
<speed>13.1</speed>
<course>87.2</course>
<desc>Speed 13.1 km/h Distance 3.66 km</desc>
<time>2011-02-13T12:27:57.04</time>
<name>1049</name>
</trkpt>
<trkpt lat="51.768285" lon="19.494853">
<ele>238.5</ele>
<speed>14.3</speed>
<course>109.3</course>
<desc>Speed 14.3 km/h Distance 3.67 km</desc>
<time>2011-02-13T12:27:58.05</time>
<name>1050</name>
</trkpt>
<trkpt lat="51.768277" lon="19.494892">
<ele>237.0</ele>
<speed>10.5</speed>
<course>80.2</course>
<desc>Speed 10.5 km/h Distance 3.67 km</desc>
<time>2011-02-13T12:27:59.05</time>
<name>1051</name>
</trkpt>
<trkpt lat="51.768282" lon="19.494938">
<ele>238.5</ele>
<speed>12.1</speed>
<course>86.6</course>
<desc>Speed 12.1 km/h Distance 3.67 km</desc>
<time>2011-02-13T12:28:00.05</time>
<name>1052</name>
</trkpt>
<trkpt lat="51.768283" lon="19.494983">
<ele>239.0</ele>
<speed>11.8</speed>
<course>122.9</course>
<desc>Speed 11.8 km/h Distance 3.68 km</desc>
<time>2011-02-13T12:28:01.04</time>
<name>1053</name>
</trkpt>
<trkpt lat="51.768270" lon="19.495017">
<ele>238.5</ele>
<speed>9.4</speed>
<course>95.3</course>
<desc>Speed 9.4 km/h Distance 3.68 km</desc>
<time>2011-02-13T12:28:02.05</time>
<name>1054</name>
</trkpt>
<trkpt lat="51.768267" lon="19.495075">
<ele>237.0</ele>
<speed>15.0</speed>
<course>79.5</course>
<desc>Speed 15.0 km/h Distance 3.68 km</desc>
<time>2011-02-13T12:28:03.05</time>
<name>1055</name>
</trkpt>
<trkpt lat="51.768273" lon="19.495133">
<ele>237.5</ele>
<speed>15.4</speed>
<course>90.0</course>
<desc>Speed 15.4 km/h Distance 3.69 km</desc>
<time>2011-02-13T12:28:04.05</time>
<name>1056</name>
</trkpt>
<trkpt lat="51.768273" lon="19.495188">
<ele>237.0</ele>
<speed>14.3</speed>
<course>115.6</course>
<desc>Speed 14.3 km/h Distance 3.69 km</desc>
<time>2011-02-13T12:28:05.05</time>
<name>1057</name>
</trkpt>
<trkpt lat="51.768260" lon="19.495233">
<ele>236.5</ele>
<speed>12.4</speed>
<course>114.8</course>
<desc>Speed 12.4 km/h Distance 3.69 km</desc>
<time>2011-02-13T12:28:06.05</time>
<name>1058</name>
</trkpt>
<trkpt lat="51.768247" lon="19.495280">
<ele>236.0</ele>
<speed>12.2</speed>
<course>87.2</course>
<desc>Speed 12.2 km/h Distance 3.70 km</desc>
<time>2011-02-13T12:28:07.04</time>
<name>1059</name>
</trkpt>
<trkpt lat="51.768248" lon="19.495335">
<ele>235.0</ele>
<speed>14.3</speed>
<course>85.0</course>
<desc>Speed 14.3 km/h Distance 3.70 km</desc>
<time>2011-02-13T12:28:08.05</time>
<name>1060</name>
</trkpt>
<trkpt lat="51.768252" lon="19.495397">
<ele>233.5</ele>
<speed>15.8</speed>
<course>90.0</course>
<desc>Speed 15.8 km/h Distance 3.71 km</desc>
<time>2011-02-13T12:28:09.04</time>
<name>1061</name>
</trkpt>
<trkpt lat="51.768252" lon="19.495448">
<ele>232.0</ele>
<speed>13.1</speed>
<course>150.0</course>
<desc>Speed 13.1 km/h Distance 3.71 km</desc>
<time>2011-02-13T12:28:10.05</time>
<name>1062</name>
</trkpt>
<trkpt lat="51.768227" lon="19.495472">
<ele>232.0</ele>
<speed>10.5</speed>
<course>93.3</course>
<desc>Speed 10.5 km/h Distance 3.71 km</desc>
<time>2011-02-13T12:28:11.04</time>
<name>1063</name>
</trkpt>
<trkpt lat="51.768225" lon="19.495518">
<ele>232.5</ele>
<speed>12.7</speed>
<course>84.7</course>
<desc>Speed 12.7 km/h Distance 3.72 km</desc>
<time>2011-02-13T12:28:12.04</time>
<name>1064</name>
</trkpt>
<trkpt lat="51.768228" lon="19.495577">
<ele>233.5</ele>
<speed>15.4</speed>
<course>104.0</course>
<desc>Speed 15.4 km/h Distance 3.72 km</desc>
<time>2011-02-13T12:28:13.05</time>
<name>1065</name>
</trkpt>
<trkpt lat="51.768222" lon="19.495620">
<ele>235.0</ele>
<speed>12.2</speed>
<course>95.4</course>
<desc>Speed 12.2 km/h Distance 3.72 km</desc>
<time>2011-02-13T12:28:14.05</time>
<name>1066</name>
</trkpt>
<trkpt lat="51.768218" lon="19.495677">
<ele>235.0</ele>
<speed>15.9</speed>
<course>87.3</course>
<desc>Speed 15.9 km/h Distance 3.73 km</desc>
<time>2011-02-13T12:28:15.05</time>
<name>1067</name>
</trkpt>
<trkpt lat="51.768220" lon="19.495733">
<ele>235.0</ele>
<speed>14.1</speed>
<course>87.2</course>
<desc>Speed 14.1 km/h Distance 3.73 km</desc>
<time>2011-02-13T12:28:16.05</time>
<name>1068</name>
</trkpt>
<trkpt lat="51.768222" lon="19.495788">
<ele>234.5</ele>
<speed>14.4</speed>
<course>90.0</course>
<desc>Speed 14.4 km/h Distance 3.73 km</desc>
<time>2011-02-13T12:28:17.05</time>
<name>1069</name>
</trkpt>
<trkpt lat="51.768222" lon="19.495845">
<ele>234.0</ele>
<speed>14.7</speed>
<course>97.3</course>
<desc>Speed 14.7 km/h Distance 3.74 km</desc>
<time>2011-02-13T12:28:18.04</time>
<name>1070</name>
</trkpt>
<trkpt lat="51.768217" lon="19.495908">
<ele>233.5</ele>
<speed>16.5</speed>
<course>84.6</course>
<desc>Speed 16.5 km/h Distance 3.74 km</desc>
<time>2011-02-13T12:28:19.05</time>
<name>1071</name>
</trkpt>
<trkpt lat="51.768220" lon="19.495965">
<ele>233.5</ele>
<speed>14.4</speed>
<course>103.8</course>
<desc>Speed 14.4 km/h Distance 3.75 km</desc>
<time>2011-02-13T12:28:20.04</time>
<name>1072</name>
</trkpt>
<trkpt lat="51.768212" lon="19.496020">
<ele>234.0</ele>
<speed>15.3</speed>
<course>117.4</course>
<desc>Speed 15.3 km/h Distance 3.75 km</desc>
<time>2011-02-13T12:28:21.04</time>
<name>1073</name>
</trkpt>
<trkpt lat="51.768197" lon="19.496067">
<ele>235.5</ele>
<speed>13.4</speed>
<course>110.8</course>
<desc>Speed 13.4 km/h Distance 3.75 km</desc>
<time>2011-02-13T12:28:22.04</time>
<name>1074</name>
</trkpt>
<trkpt lat="51.768183" lon="19.496123">
<ele>235.5</ele>
<speed>15.9</speed>
<course>104.0</course>
<desc>Speed 15.9 km/h Distance 3.76 km</desc>
<time>2011-02-13T12:28:23.04</time>
<name>1075</name>
</trkpt>
<trkpt lat="51.768177" lon="19.496167">
<ele>237.0</ele>
<speed>12.5</speed>
<course>96.8</course>
<desc>Speed 12.5 km/h Distance 3.76 km</desc>
<time>2011-02-13T12:28:24.04</time>
<name>1076</name>
</trkpt>
<trkpt lat="51.768173" lon="19.496212">
<ele>238.0</ele>
<speed>11.7</speed>
<course>87.1</course>
<desc>Speed 11.7 km/h Distance 3.76 km</desc>
<time>2011-02-13T12:28:25.04</time>
<name>1077</name>
</trkpt>
<trkpt lat="51.768175" lon="19.496265">
<ele>238.5</ele>
<speed>13.6</speed>
<course>84.7</course>
<desc>Speed 13.6 km/h Distance 3.77 km</desc>
<time>2011-02-13T12:28:26.04</time>
<name>1078</name>
</trkpt>
<trkpt lat="51.768178" lon="19.496323">
<ele>238.5</ele>
<speed>14.8</speed>
<course>96.4</course>
<desc>Speed 14.8 km/h Distance 3.77 km</desc>
<time>2011-02-13T12:28:27.04</time>
<name>1079</name>
</trkpt>
<trkpt lat="51.768175" lon="19.496372">
<ele>238.0</ele>
<speed>12.6</speed>
<course>95.8</course>
<desc>Speed 12.6 km/h Distance 3.78 km</desc>
<time>2011-02-13T12:28:28.04</time>
<name>1080</name>
</trkpt>
<trkpt lat="51.768172" lon="19.496425">
<ele>236.5</ele>
<speed>14.4</speed>
<course>80.8</course>
<desc>Speed 14.4 km/h Distance 3.78 km</desc>
<time>2011-02-13T12:28:29.04</time>
<name>1081</name>
</trkpt>
<trkpt lat="51.768177" lon="19.496475">
<ele>236.5</ele>
<speed>13.2</speed>
<course>86.9</course>
<desc>Speed 13.2 km/h Distance 3.78 km</desc>
<time>2011-02-13T12:28:30.04</time>
<name>1082</name>
</trkpt>
<trkpt lat="51.768178" lon="19.496525">
<ele>236.5</ele>
<speed>13.0</speed>
<course>72.1</course>
<desc>Speed 13.0 km/h Distance 3.79 km</desc>
<time>2011-02-13T12:28:31.04</time>
<name>1083</name>
</trkpt>
<trkpt lat="51.768188" lon="19.496575">
<ele>237.0</ele>
<speed>13.8</speed>
<course>83.8</course>
<desc>Speed 13.8 km/h Distance 3.79 km</desc>
<time>2011-02-13T12:28:32.04</time>
<name>1084</name>
</trkpt>
<trkpt lat="51.768192" lon="19.496625">
<ele>236.0</ele>
<speed>13.9</speed>
<course>70.0</course>
<desc>Speed 13.9 km/h Distance 3.79 km</desc>
<time>2011-02-13T12:28:33.04</time>
<name>1085</name>
</trkpt>
<trkpt lat="51.768203" lon="19.496677">
<ele>235.5</ele>
<speed>14.3</speed>
<course>78.2</course>
<desc>Speed 14.3 km/h Distance 3.80 km</desc>
<time>2011-02-13T12:28:34.04</time>
<name>1086</name>
</trkpt>
<trkpt lat="51.768210" lon="19.496728">
<ele>235.5</ele>
<speed>13.8</speed>
<course>83.4</course>
<desc>Speed 13.8 km/h Distance 3.80 km</desc>
<time>2011-02-13T12:28:35.04</time>
<name>1087</name>
</trkpt>
<trkpt lat="51.768213" lon="19.496775">
<ele>235.0</ele>
<speed>12.6</speed>
<course>56.6</course>
<desc>Speed 12.6 km/h Distance 3.80 km</desc>
<time>2011-02-13T12:28:36.05</time>
<name>1088</name>
</trkpt>
<trkpt lat="51.768232" lon="19.496820">
<ele>237.5</ele>
<speed>14.9</speed>
<course>68.0</course>
<desc>Speed 14.9 km/h Distance 3.81 km</desc>
<time>2011-02-13T12:28:37.04</time>
<name>1089</name>
</trkpt>
<trkpt lat="51.768242" lon="19.496860">
<ele>238.5</ele>
<speed>12.7</speed>
<course>107.1</course>
<desc>Speed 12.7 km/h Distance 3.81 km</desc>
<time>2011-02-13T12:28:38.04</time>
<name>1090</name>
</trkpt>
<trkpt lat="51.768235" lon="19.496895">
<ele>238.5</ele>
<speed>9.8</speed>
<course>103.0</course>
<desc>Speed 9.8 km/h Distance 3.81 km</desc>
<time>2011-02-13T12:28:39.04</time>
<name>1091</name>
</trkpt>
<trkpt lat="51.768230" lon="19.496930">
<ele>239.5</ele>
<speed>9.4</speed>
<course>82.9</course>
<desc>Speed 9.4 km/h Distance 3.82 km</desc>
<time>2011-02-13T12:28:40.04</time>
<name>1092</name>
</trkpt>
<trkpt lat="51.768233" lon="19.496973">
<ele>239.5</ele>
<speed>11.3</speed>
<course>96.6</course>
<desc>Speed 11.3 km/h Distance 3.82 km</desc>
<time>2011-02-13T12:28:41.04</time>
<name>1093</name>
</trkpt>
<trkpt lat="51.768230" lon="19.497020">
<ele>239.5</ele>
<speed>11.9</speed>
<course>78.2</course>
<desc>Speed 11.9 km/h Distance 3.82 km</desc>
<time>2011-02-13T12:28:42.04</time>
<name>1094</name>
</trkpt>
<trkpt lat="51.768237" lon="19.497072">
<ele>241.0</ele>
<speed>14.3</speed>
<course>101.1</course>
<desc>Speed 14.3 km/h Distance 3.82 km</desc>
<time>2011-02-13T12:28:43.05</time>
<name>1095</name>
</trkpt>
<trkpt lat="51.768230" lon="19.497127">
<ele>240.0</ele>
<speed>14.3</speed>
<course>78.2</course>
<desc>Speed 14.3 km/h Distance 3.83 km</desc>
<time>2011-02-13T12:28:44.04</time>
<name>1096</name>
</trkpt>
<trkpt lat="51.768237" lon="19.497178">
<ele>241.0</ele>
<speed>14.6</speed>
<course>81.1</course>
<desc>Speed 14.6 km/h Distance 3.83 km</desc>
<time>2011-02-13T12:28:45.04</time>
<name>1097</name>
</trkpt>
<trkpt lat="51.768242" lon="19.497230">
<ele>242.0</ele>
<speed>13.3</speed>
<course>121.5</course>
<desc>Speed 13.3 km/h Distance 3.84 km</desc>
<time>2011-02-13T12:28:46.04</time>
<name>1098</name>
</trkpt>
<trkpt lat="51.768223" lon="19.497278">
<ele>243.0</ele>
<speed>13.9</speed>
<course>130.9</course>
<desc>Speed 13.9 km/h Distance 3.84 km</desc>
<time>2011-02-13T12:28:47.04</time>
<name>1099</name>
</trkpt>
<trkpt lat="51.768198" lon="19.497325">
<ele>244.0</ele>
<speed>14.4</speed>
<course>136.5</course>
<desc>Speed 14.4 km/h Distance 3.84 km</desc>
<time>2011-02-13T12:28:48.04</time>
<name>1100</name>
</trkpt>
<trkpt lat="51.768173" lon="19.497363">
<ele>244.0</ele>
<speed>14.0</speed>
<course>128.9</course>
<desc>Speed 14.0 km/h Distance 3.85 km</desc>
<time>2011-02-13T12:28:49.05</time>
<name>1101</name>
</trkpt>
<trkpt lat="51.768155" lon="19.497400">
<ele>245.0</ele>
<speed>12.7</speed>
<course>128.9</course>
<desc>Speed 12.7 km/h Distance 3.85 km</desc>
<time>2011-02-13T12:28:50.04</time>
<name>1102</name>
</trkpt>
<trkpt lat="51.768135" lon="19.497440">
<ele>245.5</ele>
<speed>13.2</speed>
<course>118.3</course>
<desc>Speed 13.2 km/h Distance 3.85 km</desc>
<time>2011-02-13T12:28:51.04</time>
<name>1103</name>
</trkpt>
<trkpt lat="51.768120" lon="19.497485">
<ele>245.5</ele>
<speed>12.9</speed>
<course>123.4</course>
<desc>Speed 12.9 km/h Distance 3.86 km</desc>
<time>2011-02-13T12:28:52.04</time>
<name>1104</name>
</trkpt>
<trkpt lat="51.768102" lon="19.497530">
<ele>246.0</ele>
<speed>13.0</speed>
<course>112.0</course>
<desc>Speed 13.0 km/h Distance 3.86 km</desc>
<time>2011-02-13T12:28:53.04</time>
<name>1105</name>
</trkpt>
<trkpt lat="51.768090" lon="19.497577">
<ele>246.5</ele>
<speed>13.1</speed>
<course>92.8</course>
<desc>Speed 13.1 km/h Distance 3.87 km</desc>
<time>2011-02-13T12:28:54.04</time>
<name>1106</name>
</trkpt>
<trkpt lat="51.768088" lon="19.497632">
<ele>246.5</ele>
<speed>15.0</speed>
<course>87.2</course>
<desc>Speed 15.0 km/h Distance 3.87 km</desc>
<time>2011-02-13T12:28:55.04</time>
<name>1107</name>
</trkpt>
<trkpt lat="51.768090" lon="19.497687">
<ele>247.0</ele>
<speed>15.5</speed>
<course>96.0</course>
<desc>Speed 15.5 km/h Distance 3.87 km</desc>
<time>2011-02-13T12:28:56.04</time>
<name>1108</name>
</trkpt>
<trkpt lat="51.768087" lon="19.497738">
<ele>247.0</ele>
<speed>14.3</speed>
<course>100.5</course>
<desc>Speed 14.3 km/h Distance 3.88 km</desc>
<time>2011-02-13T12:28:57.04</time>
<name>1109</name>
</trkpt>
<trkpt lat="51.768080" lon="19.497797">
<ele>246.5</ele>
<speed>15.3</speed>
<course>67.4</course>
<desc>Speed 15.3 km/h Distance 3.88 km</desc>
<time>2011-02-13T12:28:58.04</time>
<name>1110</name>
</trkpt>
<trkpt lat="51.768095" lon="19.497855">
<ele>246.5</ele>
<speed>17.7</speed>
<course>58.0</course>
<desc>Speed 17.7 km/h Distance 3.89 km</desc>
<time>2011-02-13T12:28:59.04</time>
<name>1111</name>
</trkpt>
<trkpt lat="51.768115" lon="19.497907">
<ele>246.5</ele>
<speed>17.7</speed>
<course>90.0</course>
<desc>Speed 17.7 km/h Distance 3.89 km</desc>
<time>2011-02-13T12:29:00.04</time>
<name>1112</name>
</trkpt>
<trkpt lat="51.768115" lon="19.497958">
<ele>246.5</ele>
<speed>13.2</speed>
<course>76.5</course>
<desc>Speed 13.2 km/h Distance 3.89 km</desc>
<time>2011-02-13T12:29:01.05</time>
<name>1113</name>
</trkpt>
<trkpt lat="51.768122" lon="19.498003">
<ele>247.5</ele>
<speed>12.6</speed>
<course>57.6</course>
<desc>Speed 12.6 km/h Distance 3.90 km</desc>
<time>2011-02-13T12:29:02.04</time>
<name>1114</name>
</trkpt>
<trkpt lat="51.768140" lon="19.498050">
<ele>247.5</ele>
<speed>15.7</speed>
<course>73.9</course>
<desc>Speed 15.7 km/h Distance 3.90 km</desc>
<time>2011-02-13T12:29:03.04</time>
<name>1115</name>
</trkpt>
<trkpt lat="51.768148" lon="19.498097">
<ele>247.5</ele>
<speed>14.4</speed>
<course>73.3</course>
<desc>Speed 14.4 km/h Distance 3.90 km</desc>
<time>2011-02-13T12:29:04.03</time>
<name>1116</name>
</trkpt>
<trkpt lat="51.768157" lon="19.498142">
<ele>247.5</ele>
<speed>14.5</speed>
<course>70.3</course>
<desc>Speed 14.5 km/h Distance 3.91 km</desc>
<time>2011-02-13T12:29:05.04</time>
<name>1117</name>
</trkpt>
<trkpt lat="51.768167" lon="19.498187">
<ele>247.5</ele>
<speed>15.0</speed>
<course>68.7</course>
<desc>Speed 15.0 km/h Distance 3.91 km</desc>
<time>2011-02-13T12:29:06.04</time>
<name>1118</name>
</trkpt>
<trkpt lat="51.768178" lon="19.498235">
<ele>246.5</ele>
<speed>16.9</speed>
<course>70.3</course>
<desc>Speed 16.9 km/h Distance 3.91 km</desc>
<time>2011-02-13T12:29:07.03</time>
<name>1119</name>
</trkpt>
<trkpt lat="51.768192" lon="19.498295">
<ele>245.0</ele>
<speed>17.4</speed>
<course>76.3</course>
<desc>Speed 17.4 km/h Distance 3.92 km</desc>
<time>2011-02-13T12:29:08.04</time>
<name>1120</name>
</trkpt>
<trkpt lat="51.768205" lon="19.498383">
<ele>245.0</ele>
<speed>13.0</speed>
<course>96.4</course>
<desc>Speed 13.0 km/h Distance 3.92 km</desc>
<time>2011-02-13T12:29:10.04</time>
<name>1121</name>
</trkpt>
<trkpt lat="51.768202" lon="19.498432">
<ele>245.5</ele>
<speed>12.4</speed>
<course>108.4</course>
<desc>Speed 12.4 km/h Distance 3.93 km</desc>
<time>2011-02-13T12:29:11.04</time>
<name>1122</name>
</trkpt>
<trkpt lat="51.768190" lon="19.498488">
<ele>244.0</ele>
<speed>15.2</speed>
<course>107.9</course>
<desc>Speed 15.2 km/h Distance 3.93 km</desc>
<time>2011-02-13T12:29:12.04</time>
<name>1123</name>
</trkpt>
<trkpt lat="51.768178" lon="19.498547">
<ele>242.0</ele>
<speed>15.7</speed>
<course>127.8</course>
<desc>Speed 15.7 km/h Distance 3.94 km</desc>
<time>2011-02-13T12:29:13.03</time>
<name>1124</name>
</trkpt>
<trkpt lat="51.768158" lon="19.498588">
<ele>242.0</ele>
<speed>12.5</speed>
<course>119.2</course>
<desc>Speed 12.5 km/h Distance 3.94 km</desc>
<time>2011-02-13T12:29:14.03</time>
<name>1125</name>
</trkpt>
<trkpt lat="51.768143" lon="19.498632">
<ele>242.5</ele>
<speed>12.2</speed>
<course>130.2</course>
<desc>Speed 12.2 km/h Distance 3.94 km</desc>
<time>2011-02-13T12:29:15.04</time>
<name>1126</name>
</trkpt>
<trkpt lat="51.768125" lon="19.498667">
<ele>243.5</ele>
<speed>10.9</speed>
<course>130.2</course>
<desc>Speed 10.9 km/h Distance 3.95 km</desc>
<time>2011-02-13T12:29:16.04</time>
<name>1127</name>
</trkpt>
<trkpt lat="51.768107" lon="19.498702">
<ele>244.0</ele>
<speed>10.9</speed>
<course>128.9</course>
<desc>Speed 10.9 km/h Distance 3.95 km</desc>
<time>2011-02-13T12:29:17.03</time>
<name>1128</name>
</trkpt>
<trkpt lat="51.768085" lon="19.498745">
<ele>243.5</ele>
<speed>13.9</speed>
<course>109.8</course>
<desc>Speed 13.9 km/h Distance 3.95 km</desc>
<time>2011-02-13T12:29:18.03</time>
<name>1129</name>
</trkpt>
<trkpt lat="51.768075" lon="19.498790">
<ele>243.0</ele>
<speed>12.2</speed>
<course>115.9</course>
<desc>Speed 12.2 km/h Distance 3.96 km</desc>
<time>2011-02-13T12:29:19.04</time>
<name>1130</name>
</trkpt>
<trkpt lat="51.768065" lon="19.498823">
<ele>245.0</ele>
<speed>9.4</speed>
<course>104.0</course>
<desc>Speed 9.4 km/h Distance 3.96 km</desc>
<time>2011-02-13T12:29:20.04</time>
<name>1131</name>
</trkpt>
<trkpt lat="51.768058" lon="19.498867">
<ele>246.0</ele>
<speed>12.4</speed>
<course>104.0</course>
<desc>Speed 12.4 km/h Distance 3.96 km</desc>
<time>2011-02-13T12:29:21.04</time>
<name>1132</name>
</trkpt>
<trkpt lat="51.768052" lon="19.498910">
<ele>247.0</ele>
<speed>12.5</speed>
<course>90.0</course>
<desc>Speed 12.5 km/h Distance 3.96 km</desc>
<time>2011-02-13T12:29:22.03</time>
<name>1133</name>
</trkpt>
<trkpt lat="51.768052" lon="19.498960">
<ele>246.5</ele>
<speed>14.7</speed>
<course>96.4</course>
<desc>Speed 14.7 km/h Distance 3.97 km</desc>
<time>2011-02-13T12:29:23.04</time>
<name>1134</name>
</trkpt>
<trkpt lat="51.768048" lon="19.499008">
<ele>247.0</ele>
<speed>15.3</speed>
<course>100.6</course>
<desc>Speed 15.3 km/h Distance 3.97 km</desc>
<time>2011-02-13T12:29:24.03</time>
<name>1135</name>
</trkpt>
<trkpt lat="51.768043" lon="19.499052">
<ele>247.5</ele>
<speed>12.7</speed>
<course>90.0</course>
<desc>Speed 12.7 km/h Distance 3.97 km</desc>
<time>2011-02-13T12:29:25.04</time>
<name>1136</name>
</trkpt>
<trkpt lat="51.768043" lon="19.499105">
<ele>246.5</ele>
<speed>15.3</speed>
<course>96.8</course>
<desc>Speed 15.3 km/h Distance 3.98 km</desc>
<time>2011-02-13T12:29:26.04</time>
<name>1137</name>
</trkpt>
<trkpt lat="51.768040" lon="19.499150">
<ele>247.0</ele>
<speed>12.9</speed>
<course>98.6</course>
<desc>Speed 12.9 km/h Distance 3.98 km</desc>
<time>2011-02-13T12:29:27.04</time>
<name>1138</name>
</trkpt>
<trkpt lat="51.768035" lon="19.499203">
<ele>246.0</ele>
<speed>14.0</speed>
<course>77.0</course>
<desc>Speed 14.0 km/h Distance 3.99 km</desc>
<time>2011-02-13T12:29:28.03</time>
<name>1139</name>
</trkpt>
<trkpt lat="51.768040" lon="19.499238">
<ele>246.0</ele>
<speed>10.2</speed>
<course>82.6</course>
<desc>Speed 10.2 km/h Distance 3.99 km</desc>
<time>2011-02-13T12:29:29.04</time>
<name>1140</name>
</trkpt>
<trkpt lat="51.768043" lon="19.499280">
<ele>246.5</ele>
<speed>12.4</speed>
<course>100.6</course>
<desc>Speed 12.4 km/h Distance 3.99 km</desc>
<time>2011-02-13T12:29:30.04</time>
<name>1141</name>
</trkpt>
<trkpt lat="51.768038" lon="19.499323">
<ele>247.0</ele>
<speed>10.9</speed>
<course>104.6</course>
<desc>Speed 10.9 km/h Distance 3.99 km</desc>
<time>2011-02-13T12:29:31.04</time>
<name>1142</name>
</trkpt>
<trkpt lat="51.768030" lon="19.499375">
<ele>246.5</ele>
<speed>13.7</speed>
<course>126.1</course>
<desc>Speed 13.7 km/h Distance 4.00 km</desc>
<time>2011-02-13T12:29:32.04</time>
<name>1143</name>
</trkpt>
<trkpt lat="51.768007" lon="19.499427">
<ele>244.5</ele>
<speed>14.7</speed>
<course>116.4</course>
<desc>Speed 14.7 km/h Distance 4.00 km</desc>
<time>2011-02-13T12:29:33.03</time>
<name>1144</name>
</trkpt>
<trkpt lat="51.767993" lon="19.499470">
<ele>245.5</ele>
<speed>12.6</speed>
<course>113.8</course>
<desc>Speed 12.6 km/h Distance 4.01 km</desc>
<time>2011-02-13T12:29:34.04</time>
<name>1145</name>
</trkpt>
<trkpt lat="51.767978" lon="19.499525">
<ele>245.0</ele>
<speed>14.4</speed>
<course>120.9</course>
<desc>Speed 14.4 km/h Distance 4.01 km</desc>
<time>2011-02-13T12:29:35.04</time>
<name>1146</name>
</trkpt>
<trkpt lat="51.767962" lon="19.499570">
<ele>245.0</ele>
<speed>13.2</speed>
<course>106.9</course>
<desc>Speed 13.2 km/h Distance 4.01 km</desc>
<time>2011-02-13T12:29:36.04</time>
<name>1147</name>
</trkpt>
<trkpt lat="51.767952" lon="19.499623">
<ele>245.5</ele>
<speed>14.2</speed>
<course>112.0</course>
<desc>Speed 14.2 km/h Distance 4.02 km</desc>
<time>2011-02-13T12:29:37.03</time>
<name>1148</name>
</trkpt>
<trkpt lat="51.767938" lon="19.499677">
<ele>245.5</ele>
<speed>14.2</speed>
<course>119.0</course>
<desc>Speed 14.2 km/h Distance 4.02 km</desc>
<time>2011-02-13T12:29:38.03</time>
<name>1149</name>
</trkpt>
<trkpt lat="51.767920" lon="19.499730">
<ele>245.5</ele>
<speed>14.7</speed>
<course>115.9</course>
<desc>Speed 14.7 km/h Distance 4.02 km</desc>
<time>2011-02-13T12:29:39.04</time>
<name>1150</name>
</trkpt>
<trkpt lat="51.767905" lon="19.499780">
<ele>245.5</ele>
<speed>14.1</speed>
<course>103.8</course>
<desc>Speed 14.1 km/h Distance 4.03 km</desc>
<time>2011-02-13T12:29:40.03</time>
<name>1151</name>
</trkpt>
<trkpt lat="51.767897" lon="19.499835">
<ele>246.0</ele>
<speed>14.4</speed>
<course>102.6</course>
<desc>Speed 14.4 km/h Distance 4.03 km</desc>
<time>2011-02-13T12:29:41.03</time>
<name>1152</name>
</trkpt>
<trkpt lat="51.767890" lon="19.499883">
<ele>247.0</ele>
<speed>13.4</speed>
<course>112.0</course>
<desc>Speed 13.4 km/h Distance 4.04 km</desc>
<time>2011-02-13T12:29:42.04</time>
<name>1153</name>
</trkpt>
<trkpt lat="51.767878" lon="19.499930">
<ele>247.5</ele>
<speed>14.1</speed>
<course>115.2</course>
<desc>Speed 14.1 km/h Distance 4.04 km</desc>
<time>2011-02-13T12:29:43.04</time>
<name>1154</name>
</trkpt>
<trkpt lat="51.767867" lon="19.499970">
<ele>248.5</ele>
<speed>12.8</speed>
<course>108.4</course>
<desc>Speed 12.8 km/h Distance 4.04 km</desc>
<time>2011-02-13T12:29:44.03</time>
<name>1155</name>
</trkpt>
<trkpt lat="51.767855" lon="19.500027">
<ele>247.5</ele>
<speed>15.0</speed>
<course>102.2</course>
<desc>Speed 15.0 km/h Distance 4.05 km</desc>
<time>2011-02-13T12:29:45.04</time>
<name>1156</name>
</trkpt>
<trkpt lat="51.767848" lon="19.500077">
<ele>248.0</ele>
<speed>13.8</speed>
<course>110.0</course>
<desc>Speed 13.8 km/h Distance 4.05 km</desc>
<time>2011-02-13T12:29:46.03</time>
<name>1157</name>
</trkpt>
<trkpt lat="51.767837" lon="19.500128">
<ele>247.5</ele>
<speed>15.0</speed>
<course>114.0</course>
<desc>Speed 15.0 km/h Distance 4.05 km</desc>
<time>2011-02-13T12:29:47.03</time>
<name>1158</name>
</trkpt>
<trkpt lat="51.767823" lon="19.500177">
<ele>248.0</ele>
<speed>14.4</speed>
<course>101.4</course>
<desc>Speed 14.4 km/h Distance 4.06 km</desc>
<time>2011-02-13T12:29:48.03</time>
<name>1159</name>
</trkpt>
<trkpt lat="51.767817" lon="19.500230">
<ele>248.0</ele>
<speed>15.2</speed>
<course>93.1</course>
<desc>Speed 15.2 km/h Distance 4.06 km</desc>
<time>2011-02-13T12:29:49.03</time>
<name>1160</name>
</trkpt>
<trkpt lat="51.767815" lon="19.500280">
<ele>247.0</ele>
<speed>15.0</speed>
<course>99.5</course>
<desc>Speed 15.0 km/h Distance 4.06 km</desc>
<time>2011-02-13T12:29:50.04</time>
<name>1161</name>
</trkpt>
<trkpt lat="51.767810" lon="19.500328">
<ele>247.5</ele>
<speed>15.2</speed>
<course>93.0</course>
<desc>Speed 15.2 km/h Distance 4.07 km</desc>
<time>2011-02-13T12:29:51.03</time>
<name>1162</name>
</trkpt>
<trkpt lat="51.767808" lon="19.500380">
<ele>248.0</ele>
<speed>13.5</speed>
<course>90.0</course>
<desc>Speed 13.5 km/h Distance 4.07 km</desc>
<time>2011-02-13T12:29:52.04</time>
<name>1163</name>
</trkpt>
<trkpt lat="51.767808" lon="19.500433">
<ele>249.0</ele>
<speed>14.5</speed>
<course>79.8</course>
<desc>Speed 14.5 km/h Distance 4.08 km</desc>
<time>2011-02-13T12:29:53.03</time>
<name>1164</name>
</trkpt>
<trkpt lat="51.767815" lon="19.500493">
<ele>249.0</ele>
<speed>16.4</speed>
<course>103.4</course>
<desc>Speed 16.4 km/h Distance 4.08 km</desc>
<time>2011-02-13T12:29:54.03</time>
<name>1165</name>
</trkpt>
<trkpt lat="51.767807" lon="19.500550">
<ele>247.5</ele>
<speed>14.7</speed>
<course>110.8</course>
<desc>Speed 14.7 km/h Distance 4.08 km</desc>
<time>2011-02-13T12:29:55.04</time>
<name>1166</name>
</trkpt>
<trkpt lat="51.767793" lon="19.500607">
<ele>246.5</ele>
<speed>14.9</speed>
<course>103.4</course>
<desc>Speed 14.9 km/h Distance 4.09 km</desc>
<time>2011-02-13T12:29:56.03</time>
<name>1167</name>
</trkpt>
<trkpt lat="51.767785" lon="19.500663">
<ele>245.5</ele>
<speed>15.2</speed>
<course>98.6</course>
<desc>Speed 15.2 km/h Distance 4.09 km</desc>
<time>2011-02-13T12:29:57.03</time>
<name>1168</name>
</trkpt>
<trkpt lat="51.767780" lon="19.500717">
<ele>244.5</ele>
<speed>15.1</speed>
<course>111.2</course>
<desc>Speed 15.1 km/h Distance 4.10 km</desc>
<time>2011-02-13T12:29:58.04</time>
<name>1169</name>
</trkpt>
<trkpt lat="51.767770" lon="19.500758">
<ele>245.5</ele>
<speed>12.1</speed>
<course>108.5</course>
<desc>Speed 12.1 km/h Distance 4.10 km</desc>
<time>2011-02-13T12:29:59.04</time>
<name>1170</name>
</trkpt>
<trkpt lat="51.767760" lon="19.500807">
<ele>246.0</ele>
<speed>14.2</speed>
<course>99.5</course>
<desc>Speed 14.2 km/h Distance 4.10 km</desc>
<time>2011-02-13T12:30:00.03</time>
<name>1171</name>
</trkpt>
<trkpt lat="51.767755" lon="19.500855">
<ele>247.5</ele>
<speed>14.9</speed>
<course>92.9</course>
<desc>Speed 14.9 km/h Distance 4.11 km</desc>
<time>2011-02-13T12:30:01.03</time>
<name>1172</name>
</trkpt>
<trkpt lat="51.767753" lon="19.500908">
<ele>247.0</ele>
<speed>13.7</speed>
<course>134.1</course>
<desc>Speed 13.7 km/h Distance 4.11 km</desc>
<time>2011-02-13T12:30:02.03</time>
<name>1173</name>
</trkpt>
<trkpt lat="51.767733" lon="19.500942">
<ele>247.0</ele>
<speed>11.7</speed>
<course>95.8</course>
<desc>Speed 11.7 km/h Distance 4.11 km</desc>
<time>2011-02-13T12:30:03.03</time>
<name>1174</name>
</trkpt>
<trkpt lat="51.767730" lon="19.500995">
<ele>246.5</ele>
<speed>13.6</speed>
<course>118.3</course>
<desc>Speed 13.6 km/h Distance 4.12 km</desc>
<time>2011-02-13T12:30:04.03</time>
<name>1175</name>
</trkpt>
<trkpt lat="51.767720" lon="19.501025">
<ele>248.0</ele>
<speed>9.3</speed>
<course>99.8</course>
<desc>Speed 9.3 km/h Distance 4.12 km</desc>
<time>2011-02-13T12:30:05.03</time>
<name>1176</name>
</trkpt>
<trkpt lat="51.767715" lon="19.501072">
<ele>247.5</ele>
<speed>13.1</speed>
<course>146.5</course>
<desc>Speed 13.1 km/h Distance 4.12 km</desc>
<time>2011-02-13T12:30:06.03</time>
<name>1177</name>
</trkpt>
<trkpt lat="51.767692" lon="19.501097">
<ele>248.0</ele>
<speed>10.8</speed>
<course>92.8</course>
<desc>Speed 10.8 km/h Distance 4.12 km</desc>
<time>2011-02-13T12:30:07.04</time>
<name>1178</name>
</trkpt>
<trkpt lat="51.767690" lon="19.501152">
<ele>248.5</ele>
<speed>14.0</speed>
<course>114.4</course>
<desc>Speed 14.0 km/h Distance 4.13 km</desc>
<time>2011-02-13T12:30:08.03</time>
<name>1179</name>
</trkpt>
<trkpt lat="51.767678" lon="19.501193">
<ele>247.5</ele>
<speed>11.9</speed>
<course>86.9</course>
<desc>Speed 11.9 km/h Distance 4.13 km</desc>
<time>2011-02-13T12:30:09.03</time>
<name>1180</name>
</trkpt>
<trkpt lat="51.767680" lon="19.501243">
<ele>248.0</ele>
<speed>14.1</speed>
<course>49.4</course>
<desc>Speed 14.1 km/h Distance 4.14 km</desc>
<time>2011-02-13T12:30:10.03</time>
<name>1181</name>
</trkpt>
<trkpt lat="51.767695" lon="19.501272">
<ele>249.0</ele>
<speed>11.5</speed>
<course>37.3</course>
<desc>Speed 11.5 km/h Distance 4.14 km</desc>
<time>2011-02-13T12:30:11.04</time>
<name>1182</name>
</trkpt>
<trkpt lat="51.767717" lon="19.501298">
<ele>250.0</ele>
<speed>13.8</speed>
<course>349.6</course>
<desc>Speed 13.8 km/h Distance 4.14 km</desc>
<time>2011-02-13T12:30:12.03</time>
<name>1183</name>
</trkpt>
<trkpt lat="51.767733" lon="19.501293">
<ele>252.0</ele>
<speed>8.6</speed>
<course>338.6</course>
<desc>Speed 8.6 km/h Distance 4.14 km</desc>
<time>2011-02-13T12:30:13.03</time>
<name>1184</name>
</trkpt>
<trkpt lat="51.767752" lon="19.501282">
<ele>251.5</ele>
<speed>9.7</speed>
<course>307.6</course>
<desc>Speed 9.7 km/h Distance 4.14 km</desc>
<time>2011-02-13T12:30:14.03</time>
<name>1185</name>
</trkpt>
<trkpt lat="51.767768" lon="19.501247">
<ele>251.0</ele>
<speed>11.9</speed>
<course>289.3</course>
<desc>Speed 11.9 km/h Distance 4.15 km</desc>
<time>2011-02-13T12:30:15.03</time>
<name>1186</name>
</trkpt>
<trkpt lat="51.767777" lon="19.501208">
<ele>250.0</ele>
<speed>11.0</speed>
<course>275.6</course>
<desc>Speed 11.0 km/h Distance 4.15 km</desc>
<time>2011-02-13T12:30:16.04</time>
<name>1187</name>
</trkpt>
<trkpt lat="51.767780" lon="19.501153">
<ele>250.0</ele>
<speed>12.9</speed>
<course>267.3</course>
<desc>Speed 12.9 km/h Distance 4.15 km</desc>
<time>2011-02-13T12:30:17.03</time>
<name>1188</name>
</trkpt>
<trkpt lat="51.767778" lon="19.501097">
<ele>249.5</ele>
<speed>12.8</speed>
<course>275.8</course>
<desc>Speed 12.8 km/h Distance 4.16 km</desc>
<time>2011-02-13T12:30:18.03</time>
<name>1189</name>
</trkpt>
<trkpt lat="51.767782" lon="19.501043">
<ele>249.0</ele>
<speed>13.3</speed>
<course>259.2</course>
<desc>Speed 13.3 km/h Distance 4.16 km</desc>
<time>2011-02-13T12:30:19.03</time>
<name>1190</name>
</trkpt>
<trkpt lat="51.767775" lon="19.500987">
<ele>250.0</ele>
<speed>14.2</speed>
<course>267.1</course>
<desc>Speed 14.2 km/h Distance 4.17 km</desc>
<time>2011-02-13T12:30:20.04</time>
<name>1191</name>
</trkpt>
<trkpt lat="51.767773" lon="19.500933">
<ele>249.5</ele>
<speed>12.4</speed>
<course>267.0</course>
<desc>Speed 12.4 km/h Distance 4.17 km</desc>
<time>2011-02-13T12:30:21.03</time>
<name>1192</name>
</trkpt>
<trkpt lat="51.767772" lon="19.500882">
<ele>248.0</ele>
<speed>11.7</speed>
<course>261.9</course>
<desc>Speed 11.7 km/h Distance 4.17 km</desc>
<time>2011-02-13T12:30:22.03</time>
<name>1193</name>
</trkpt>
<trkpt lat="51.767767" lon="19.500825">
<ele>247.0</ele>
<speed>12.8</speed>
<course>267.3</course>
<desc>Speed 12.8 km/h Distance 4.18 km</desc>
<time>2011-02-13T12:30:23.03</time>
<name>1194</name>
</trkpt>
<trkpt lat="51.767765" lon="19.500768">
<ele>247.0</ele>
<speed>14.1</speed>
<course>282.6</course>
<desc>Speed 14.1 km/h Distance 4.18 km</desc>
<time>2011-02-13T12:30:24.03</time>
<name>1195</name>
</trkpt>
<trkpt lat="51.767772" lon="19.500720">
<ele>246.5</ele>
<speed>12.2</speed>
<course>278.9</course>
<desc>Speed 12.2 km/h Distance 4.18 km</desc>
<time>2011-02-13T12:30:25.03</time>
<name>1196</name>
</trkpt>
<trkpt lat="51.767777" lon="19.500668">
<ele>244.5</ele>
<speed>12.7</speed>
<course>286.1</course>
<desc>Speed 12.7 km/h Distance 4.19 km</desc>
<time>2011-02-13T12:30:26.03</time>
<name>1197</name>
</trkpt>
<trkpt lat="51.767785" lon="19.500622">
<ele>243.5</ele>
<speed>12.0</speed>
<course>281.8</course>
<desc>Speed 12.0 km/h Distance 4.19 km</desc>
<time>2011-02-13T12:30:27.03</time>
<name>1198</name>
</trkpt>
<trkpt lat="51.767792" lon="19.500570">
<ele>242.5</ele>
<speed>12.7</speed>
<course>270.0</course>
<desc>Speed 12.7 km/h Distance 4.20 km</desc>
<time>2011-02-13T12:30:28.03</time>
<name>1199</name>
</trkpt>
<trkpt lat="51.767792" lon="19.500517">
<ele>242.5</ele>
<speed>12.7</speed>
<course>258.3</course>
<desc>Speed 12.7 km/h Distance 4.20 km</desc>
<time>2011-02-13T12:30:29.03</time>
<name>1200</name>
</trkpt>
<trkpt lat="51.767783" lon="19.500452">
<ele>243.5</ele>
<speed>15.2</speed>
<course>261.4</course>
<desc>Speed 15.2 km/h Distance 4.20 km</desc>
<time>2011-02-13T12:30:30.03</time>
<name>1201</name>
</trkpt>
<trkpt lat="51.767778" lon="19.500398">
<ele>244.0</ele>
<speed>11.8</speed>
<course>267.0</course>
<desc>Speed 11.8 km/h Distance 4.21 km</desc>
<time>2011-02-13T12:30:31.03</time>
<name>1202</name>
</trkpt>
<trkpt lat="51.767777" lon="19.500347">
<ele>244.5</ele>
<speed>12.4</speed>
<course>273.6</course>
<desc>Speed 12.4 km/h Distance 4.21 km</desc>
<time>2011-02-13T12:30:32.03</time>
<name>1203</name>
</trkpt>
<trkpt lat="51.767778" lon="19.500303">
<ele>244.0</ele>
<speed>10.8</speed>
<course>270.0</course>
<desc>Speed 10.8 km/h Distance 4.21 km</desc>
<time>2011-02-13T12:30:33.03</time>
<name>1204</name>
</trkpt>
<trkpt lat="51.767778" lon="19.500248">
<ele>244.0</ele>
<speed>12.9</speed>
<course>286.7</course>
<desc>Speed 12.9 km/h Distance 4.22 km</desc>
<time>2011-02-13T12:30:34.03</time>
<name>1205</name>
</trkpt>
<trkpt lat="51.767787" lon="19.500203">
<ele>243.5</ele>
<speed>11.7</speed>
<course>304.0</course>
<desc>Speed 11.7 km/h Distance 4.22 km</desc>
<time>2011-02-13T12:30:35.03</time>
<name>1206</name>
</trkpt>
<trkpt lat="51.767803" lon="19.500163">
<ele>243.0</ele>
<speed>12.6</speed>
<course>306.3</course>
<desc>Speed 12.6 km/h Distance 4.22 km</desc>
<time>2011-02-13T12:30:36.03</time>
<name>1207</name>
</trkpt>
<trkpt lat="51.767820" lon="19.500127">
<ele>243.0</ele>
<speed>11.6</speed>
<course>292.0</course>
<desc>Speed 11.6 km/h Distance 4.23 km</desc>
<time>2011-02-13T12:30:37.03</time>
<name>1208</name>
</trkpt>
<trkpt lat="51.767833" lon="19.500073">
<ele>244.5</ele>
<speed>14.3</speed>
<course>301.9</course>
<desc>Speed 14.3 km/h Distance 4.23 km</desc>
<time>2011-02-13T12:30:38.03</time>
<name>1209</name>
</trkpt>
<trkpt lat="51.767850" lon="19.500030">
<ele>244.5</ele>
<speed>12.9</speed>
<course>307.8</course>
<desc>Speed 12.9 km/h Distance 4.23 km</desc>
<time>2011-02-13T12:30:39.04</time>
<name>1210</name>
</trkpt>
<trkpt lat="51.767870" lon="19.499988">
<ele>244.5</ele>
<speed>13.0</speed>
<course>307.7</course>
<desc>Speed 13.0 km/h Distance 4.24 km</desc>
<time>2011-02-13T12:30:40.03</time>
<name>1211</name>
</trkpt>
<trkpt lat="51.767888" lon="19.499950">
<ele>245.0</ele>
<speed>12.7</speed>
<course>290.8</course>
<desc>Speed 12.7 km/h Distance 4.24 km</desc>
<time>2011-02-13T12:30:41.03</time>
<name>1212</name>
</trkpt>
<trkpt lat="51.767902" lon="19.499893">
<ele>246.5</ele>
<speed>15.6</speed>
<course>307.7</course>
<desc>Speed 15.6 km/h Distance 4.25 km</desc>
<time>2011-02-13T12:30:42.02</time>
<name>1213</name>
</trkpt>
<trkpt lat="51.767920" lon="19.499855">
<ele>247.0</ele>
<speed>12.2</speed>
<course>307.7</course>
<desc>Speed 12.2 km/h Distance 4.25 km</desc>
<time>2011-02-13T12:30:43.03</time>
<name>1214</name>
</trkpt>
<trkpt lat="51.767938" lon="19.499817">
<ele>246.5</ele>
<speed>12.5</speed>
<course>301.2</course>
<desc>Speed 12.5 km/h Distance 4.25 km</desc>
<time>2011-02-13T12:30:44.03</time>
<name>1215</name>
</trkpt>
<trkpt lat="51.767953" lon="19.499777">
<ele>246.5</ele>
<speed>12.3</speed>
<course>295.1</course>
<desc>Speed 12.3 km/h Distance 4.26 km</desc>
<time>2011-02-13T12:30:45.03</time>
<name>1216</name>
</trkpt>
<trkpt lat="51.767968" lon="19.499725">
<ele>247.0</ele>
<speed>14.5</speed>
<course>307.7</course>
<desc>Speed 14.5 km/h Distance 4.26 km</desc>
<time>2011-02-13T12:30:46.03</time>
<name>1217</name>
</trkpt>
<trkpt lat="51.767987" lon="19.499687">
<ele>246.5</ele>
<speed>12.2</speed>
<course>306.7</course>
<desc>Speed 12.2 km/h Distance 4.26 km</desc>
<time>2011-02-13T12:30:47.03</time>
<name>1218</name>
</trkpt>
<trkpt lat="51.768007" lon="19.499643">
<ele>246.5</ele>
<speed>13.8</speed>
<course>277.9</course>
<desc>Speed 13.8 km/h Distance 4.27 km</desc>
<time>2011-02-13T12:30:48.03</time>
<name>1219</name>
</trkpt>
<trkpt lat="51.768012" lon="19.499585">
<ele>250.0</ele>
<speed>13.5</speed>
<course>284.6</course>
<desc>Speed 13.5 km/h Distance 4.27 km</desc>
<time>2011-02-13T12:30:49.03</time>
<name>1220</name>
</trkpt>
<trkpt lat="51.768020" lon="19.499533">
<ele>251.5</ele>
<speed>13.5</speed>
<course>298.3</course>
<desc>Speed 13.5 km/h Distance 4.27 km</desc>
<time>2011-02-13T12:30:50.03</time>
<name>1221</name>
</trkpt>
<trkpt lat="51.768035" lon="19.499488">
<ele>252.5</ele>
<speed>12.8</speed>
<course>297.4</course>
<desc>Speed 12.8 km/h Distance 4.28 km</desc>
<time>2011-02-13T12:30:51.03</time>
<name>1222</name>
</trkpt>
<trkpt lat="51.768050" lon="19.499442">
<ele>253.5</ele>
<speed>13.5</speed>
<course>306.5</course>
<desc>Speed 13.5 km/h Distance 4.28 km</desc>
<time>2011-02-13T12:30:52.03</time>
<name>1223</name>
</trkpt>
<trkpt lat="51.768068" lon="19.499402">
<ele>254.5</ele>
<speed>12.5</speed>
<course>301.5</course>
<desc>Speed 12.5 km/h Distance 4.28 km</desc>
<time>2011-02-13T12:30:53.03</time>
<name>1224</name>
</trkpt>
<trkpt lat="51.768087" lon="19.499353">
<ele>255.0</ele>
<speed>14.6</speed>
<course>293.3</course>
<desc>Speed 14.6 km/h Distance 4.29 km</desc>
<time>2011-02-13T12:30:54.03</time>
<name>1225</name>
</trkpt>
<trkpt lat="51.768100" lon="19.499303">
<ele>256.0</ele>
<speed>13.7</speed>
<course>310.1</course>
<desc>Speed 13.7 km/h Distance 4.29 km</desc>
<time>2011-02-13T12:30:55.02</time>
<name>1226</name>
</trkpt>
<trkpt lat="51.768122" lon="19.499262">
<ele>256.5</ele>
<speed>13.5</speed>
<course>312.7</course>
<desc>Speed 13.5 km/h Distance 4.30 km</desc>
<time>2011-02-13T12:30:56.02</time>
<name>1227</name>
</trkpt>
<trkpt lat="51.768142" lon="19.499227">
<ele>257.0</ele>
<speed>12.0</speed>
<course>311.7</course>
<desc>Speed 12.0 km/h Distance 4.30 km</desc>
<time>2011-02-13T12:30:57.03</time>
<name>1228</name>
</trkpt>
<trkpt lat="51.768160" lon="19.499193">
<ele>255.0</ele>
<speed>10.9</speed>
<course>305.1</course>
<desc>Speed 10.9 km/h Distance 4.30 km</desc>
<time>2011-02-13T12:30:58.02</time>
<name>1229</name>
</trkpt>
<trkpt lat="51.768177" lon="19.499155">
<ele>255.0</ele>
<speed>11.7</speed>
<course>306.3</course>
<desc>Speed 11.7 km/h Distance 4.31 km</desc>
<time>2011-02-13T12:30:59.03</time>
<name>1230</name>
</trkpt>
<trkpt lat="51.768193" lon="19.499118">
<ele>254.5</ele>
<speed>11.7</speed>
<course>304.4</course>
<desc>Speed 11.7 km/h Distance 4.31 km</desc>
<time>2011-02-13T12:31:00.03</time>
<name>1231</name>
</trkpt>
<trkpt lat="51.768212" lon="19.499075">
<ele>254.5</ele>
<speed>12.7</speed>
<course>311.2</course>
<desc>Speed 12.7 km/h Distance 4.31 km</desc>
<time>2011-02-13T12:31:01.04</time>
<name>1232</name>
</trkpt>
<trkpt lat="51.768233" lon="19.499035">
<ele>255.0</ele>
<speed>13.2</speed>
<course>300.2</course>
<desc>Speed 13.2 km/h Distance 4.32 km</desc>
<time>2011-02-13T12:31:02.02</time>
<name>1233</name>
</trkpt>
<trkpt lat="51.768248" lon="19.498993">
<ele>256.5</ele>
<speed>11.7</speed>
<course>331.8</course>
<desc>Speed 11.7 km/h Distance 4.32 km</desc>
<time>2011-02-13T12:31:03.03</time>
<name>1234</name>
</trkpt>
<trkpt lat="51.768273" lon="19.498972">
<ele>256.5</ele>
<speed>11.8</speed>
<course>330.0</course>
<desc>Speed 11.8 km/h Distance 4.32 km</desc>
<time>2011-02-13T12:31:04.02</time>
<name>1235</name>
</trkpt>
<trkpt lat="51.768298" lon="19.498948">
<ele>257.5</ele>
<speed>11.6</speed>
<course>311.4</course>
<desc>Speed 11.6 km/h Distance 4.33 km</desc>
<time>2011-02-13T12:31:05.03</time>
<name>1236</name>
</trkpt>
<trkpt lat="51.768318" lon="19.498912">
<ele>259.0</ele>
<speed>12.0</speed>
<course>330.4</course>
<desc>Speed 12.0 km/h Distance 4.33 km</desc>
<time>2011-02-13T12:31:06.02</time>
<name>1237</name>
</trkpt>
<trkpt lat="51.768338" lon="19.498893">
<ele>258.0</ele>
<speed>9.1</speed>
<course>285.6</course>
<desc>Speed 9.1 km/h Distance 4.33 km</desc>
<time>2011-02-13T12:31:07.03</time>
<name>1238</name>
</trkpt>
<trkpt lat="51.768347" lon="19.498845">
<ele>258.0</ele>
<speed>12.5</speed>
<course>278.4</course>
<desc>Speed 12.5 km/h Distance 4.34 km</desc>
<time>2011-02-13T12:31:08.03</time>
<name>1239</name>
</trkpt>
<trkpt lat="51.768352" lon="19.498790">
<ele>258.5</ele>
<speed>14.0</speed>
<course>275.0</course>
<desc>Speed 14.0 km/h Distance 4.34 km</desc>
<time>2011-02-13T12:31:09.02</time>
<name>1240</name>
</trkpt>
<trkpt lat="51.768355" lon="19.498728">
<ele>259.0</ele>
<speed>15.4</speed>
<course>283.8</course>
<desc>Speed 15.4 km/h Distance 4.34 km</desc>
<time>2011-02-13T12:31:10.03</time>
<name>1241</name>
</trkpt>
<trkpt lat="51.768363" lon="19.498673">
<ele>259.0</ele>
<speed>13.5</speed>
<course>286.1</course>
<desc>Speed 13.5 km/h Distance 4.35 km</desc>
<time>2011-02-13T12:31:11.03</time>
<name>1242</name>
</trkpt>
<trkpt lat="51.768372" lon="19.498627">
<ele>259.0</ele>
<speed>12.1</speed>
<course>307.2</course>
<desc>Speed 12.1 km/h Distance 4.35 km</desc>
<time>2011-02-13T12:31:12.03</time>
<name>1243</name>
</trkpt>
<trkpt lat="51.768385" lon="19.498598">
<ele>257.0</ele>
<speed>8.5</speed>
<course>286.1</course>
<desc>Speed 8.5 km/h Distance 4.35 km</desc>
<time>2011-02-13T12:31:13.03</time>
<name>1244</name>
</trkpt>
<trkpt lat="51.768393" lon="19.498552">
<ele>257.0</ele>
<speed>12.1</speed>
<course>281.8</course>
<desc>Speed 12.1 km/h Distance 4.36 km</desc>
<time>2011-02-13T12:31:14.03</time>
<name>1245</name>
</trkpt>
<trkpt lat="51.768400" lon="19.498500">
<ele>257.0</ele>
<speed>13.0</speed>
<course>300.9</course>
<desc>Speed 13.0 km/h Distance 4.36 km</desc>
<time>2011-02-13T12:31:15.03</time>
<name>1246</name>
</trkpt>
<trkpt lat="51.768417" lon="19.498455">
<ele>257.0</ele>
<speed>13.1</speed>
<course>304.4</course>
<desc>Speed 13.1 km/h Distance 4.36 km</desc>
<time>2011-02-13T12:31:16.03</time>
<name>1247</name>
</trkpt>
<trkpt lat="51.768435" lon="19.498412">
<ele>257.0</ele>
<speed>13.0</speed>
<course>341.4</course>
<desc>Speed 13.0 km/h Distance 4.37 km</desc>
<time>2011-02-13T12:31:17.02</time>
<name>1248</name>
</trkpt>
<trkpt lat="51.768472" lon="19.498392">
<ele>258.5</ele>
<speed>15.4</speed>
<course>348.3</course>
<desc>Speed 15.4 km/h Distance 4.37 km</desc>
<time>2011-02-13T12:31:18.03</time>
<name>1249</name>
</trkpt>
<trkpt lat="51.768502" lon="19.498382">
<ele>258.0</ele>
<speed>12.2</speed>
<course>351.9</course>
<desc>Speed 12.2 km/h Distance 4.38 km</desc>
<time>2011-02-13T12:31:19.03</time>
<name>1250</name>
</trkpt>
<trkpt lat="51.768532" lon="19.498375">
<ele>258.0</ele>
<speed>12.1</speed>
<course>331.6</course>
<desc>Speed 12.1 km/h Distance 4.38 km</desc>
<time>2011-02-13T12:31:20.02</time>
<name>1251</name>
</trkpt>
<trkpt lat="51.768558" lon="19.498352">
<ele>259.0</ele>
<speed>12.3</speed>
<course>338.2</course>
<desc>Speed 12.3 km/h Distance 4.38 km</desc>
<time>2011-02-13T12:31:21.03</time>
<name>1252</name>
</trkpt>
<trkpt lat="51.768587" lon="19.498333">
<ele>258.5</ele>
<speed>12.4</speed>
<course>259.0</course>
<desc>Speed 12.4 km/h Distance 4.39 km</desc>
<time>2011-02-13T12:31:22.03</time>
<name>1253</name>
</trkpt>
<trkpt lat="51.768582" lon="19.498292">
<ele>260.0</ele>
<speed>11.2</speed>
<course>310.4</course>
<desc>Speed 11.2 km/h Distance 4.39 km</desc>
<time>2011-02-13T12:31:23.03</time>
<name>1254</name>
</trkpt>
<trkpt lat="51.768598" lon="19.498260">
<ele>259.5</ele>
<speed>9.9</speed>
<course>331.8</course>
<desc>Speed 9.9 km/h Distance 4.39 km</desc>
<time>2011-02-13T12:31:24.03</time>
<name>1255</name>
</trkpt>
<trkpt lat="51.768623" lon="19.498238">
<ele>259.5</ele>
<speed>10.7</speed>
<course>359.0</course>
<desc>Speed 10.7 km/h Distance 4.39 km</desc>
<time>2011-02-13T12:31:25.03</time>
<name>1256</name>
</trkpt>
<trkpt lat="51.768660" lon="19.498237">
<ele>258.5</ele>
<speed>13.5</speed>
<course>330.1</course>
<desc>Speed 13.5 km/h Distance 4.40 km</desc>
<time>2011-02-13T12:31:26.03</time>
<name>1257</name>
</trkpt>
<trkpt lat="51.768685" lon="19.498213">
<ele>259.0</ele>
<speed>11.7</speed>
<course>325.0</course>
<desc>Speed 11.7 km/h Distance 4.40 km</desc>
<time>2011-02-13T12:31:27.03</time>
<name>1258</name>
</trkpt>
<trkpt lat="51.768710" lon="19.498185">
<ele>260.0</ele>
<speed>11.6</speed>
<course>324.9</course>
<desc>Speed 11.6 km/h Distance 4.40 km</desc>
<time>2011-02-13T12:31:28.03</time>
<name>1259</name>
</trkpt>
<trkpt lat="51.768735" lon="19.498157">
<ele>261.0</ele>
<speed>11.4</speed>
<course>336.4</course>
<desc>Speed 11.4 km/h Distance 4.41 km</desc>
<time>2011-02-13T12:31:29.03</time>
<name>1260</name>
</trkpt>
<trkpt lat="51.768763" lon="19.498137">
<ele>261.5</ele>
<speed>12.2</speed>
<course>339.3</course>
<desc>Speed 12.2 km/h Distance 4.41 km</desc>
<time>2011-02-13T12:31:30.02</time>
<name>1261</name>
</trkpt>
<trkpt lat="51.768793" lon="19.498118">
<ele>262.0</ele>
<speed>12.3</speed>
<course>342.7</course>
<desc>Speed 12.3 km/h Distance 4.42 km</desc>
<time>2011-02-13T12:31:31.02</time>
<name>1262</name>
</trkpt>
<trkpt lat="51.768823" lon="19.498103">
<ele>262.0</ele>
<speed>12.2</speed>
<course>341.9</course>
<desc>Speed 12.2 km/h Distance 4.42 km</desc>
<time>2011-02-13T12:31:32.02</time>
<name>1263</name>
</trkpt>
<trkpt lat="51.768855" lon="19.498087">
<ele>261.5</ele>
<speed>12.9</speed>
<course>342.7</course>
<desc>Speed 12.9 km/h Distance 4.42 km</desc>
<time>2011-02-13T12:31:33.02</time>
<name>1264</name>
</trkpt>
<trkpt lat="51.768885" lon="19.498072">
<ele>261.5</ele>
<speed>11.6</speed>
<course>339.0</course>
<desc>Speed 11.6 km/h Distance 4.43 km</desc>
<time>2011-02-13T12:31:34.02</time>
<name>1265</name>
</trkpt>
<trkpt lat="51.768920" lon="19.498050">
<ele>262.0</ele>
<speed>13.2</speed>
<course>334.7</course>
<desc>Speed 13.2 km/h Distance 4.43 km</desc>
<time>2011-02-13T12:31:35.02</time>
<name>1266</name>
</trkpt>
<trkpt lat="51.768948" lon="19.498028">
<ele>262.5</ele>
<speed>11.4</speed>
<course>333.0</course>
<desc>Speed 11.4 km/h Distance 4.43 km</desc>
<time>2011-02-13T12:31:36.03</time>
<name>1267</name>
</trkpt>
<trkpt lat="51.768977" lon="19.498005">
<ele>263.0</ele>
<speed>12.2</speed>
<course>323.1</course>
<desc>Speed 12.2 km/h Distance 4.44 km</desc>
<time>2011-02-13T12:31:37.03</time>
<name>1268</name>
</trkpt>
<trkpt lat="51.769000" lon="19.497977">
<ele>264.0</ele>
<speed>11.0</speed>
<course>342.0</course>
<desc>Speed 11.0 km/h Distance 4.44 km</desc>
<time>2011-02-13T12:31:38.03</time>
<name>1269</name>
</trkpt>
<trkpt lat="51.769032" lon="19.497960">
<ele>264.5</ele>
<speed>12.7</speed>
<course>346.6</course>
<desc>Speed 12.7 km/h Distance 4.44 km</desc>
<time>2011-02-13T12:31:39.02</time>
<name>1270</name>
</trkpt>
<trkpt lat="51.769062" lon="19.497948">
<ele>264.5</ele>
<speed>10.9</speed>
<course>349.0</course>
<desc>Speed 10.9 km/h Distance 4.45 km</desc>
<time>2011-02-13T12:31:40.03</time>
<name>1271</name>
</trkpt>
<trkpt lat="51.769093" lon="19.497938">
<ele>263.0</ele>
<speed>12.2</speed>
<course>344.6</course>
<desc>Speed 12.2 km/h Distance 4.45 km</desc>
<time>2011-02-13T12:31:41.03</time>
<name>1272</name>
</trkpt>
<trkpt lat="51.769123" lon="19.497925">
<ele>262.5</ele>
<speed>11.7</speed>
<course>343.7</course>
<desc>Speed 11.7 km/h Distance 4.45 km</desc>
<time>2011-02-13T12:31:42.03</time>
<name>1273</name>
</trkpt>
<trkpt lat="51.769155" lon="19.497910">
<ele>263.0</ele>
<speed>12.0</speed>
<course>346.7</course>
<desc>Speed 12.0 km/h Distance 4.46 km</desc>
<time>2011-02-13T12:31:43.03</time>
<name>1274</name>
</trkpt>
<trkpt lat="51.769190" lon="19.497897">
<ele>262.0</ele>
<speed>12.7</speed>
<course>341.2</course>
<desc>Speed 12.7 km/h Distance 4.46 km</desc>
<time>2011-02-13T12:31:44.03</time>
<name>1275</name>
</trkpt>
<trkpt lat="51.769223" lon="19.497878">
<ele>262.0</ele>
<speed>12.7</speed>
<course>332.5</course>
<desc>Speed 12.7 km/h Distance 4.47 km</desc>
<time>2011-02-13T12:31:45.02</time>
<name>1276</name>
</trkpt>
<trkpt lat="51.769255" lon="19.497852">
<ele>262.5</ele>
<speed>13.5</speed>
<course>325.2</course>
<desc>Speed 13.5 km/h Distance 4.47 km</desc>
<time>2011-02-13T12:31:46.02</time>
<name>1277</name>
</trkpt>
<trkpt lat="51.769282" lon="19.497822">
<ele>264.0</ele>
<speed>11.8</speed>
<course>347.8</course>
<desc>Speed 11.8 km/h Distance 4.47 km</desc>
<time>2011-02-13T12:31:47.03</time>
<name>1278</name>
</trkpt>
<trkpt lat="51.769315" lon="19.497810">
<ele>263.5</ele>
<speed>12.7</speed>
<course>334.7</course>
<desc>Speed 12.7 km/h Distance 4.48 km</desc>
<time>2011-02-13T12:31:48.02</time>
<name>1279</name>
</trkpt>
<trkpt lat="51.769343" lon="19.497788">
<ele>264.5</ele>
<speed>12.0</speed>
<course>316.5</course>
<desc>Speed 12.0 km/h Distance 4.48 km</desc>
<time>2011-02-13T12:31:49.02</time>
<name>1280</name>
</trkpt>
<trkpt lat="51.769368" lon="19.497750">
<ele>266.0</ele>
<speed>12.7</speed>
<course>320.9</course>
<desc>Speed 12.7 km/h Distance 4.49 km</desc>
<time>2011-02-13T12:31:50.02</time>
<name>1281</name>
</trkpt>
<trkpt lat="51.769395" lon="19.497715">
<ele>267.5</ele>
<speed>12.6</speed>
<course>332.7</course>
<desc>Speed 12.6 km/h Distance 4.49 km</desc>
<time>2011-02-13T12:31:51.02</time>
<name>1282</name>
</trkpt>
<trkpt lat="51.769425" lon="19.497690">
<ele>267.5</ele>
<speed>12.8</speed>
<course>335.1</course>
<desc>Speed 12.8 km/h Distance 4.49 km</desc>
<time>2011-02-13T12:31:52.02</time>
<name>1283</name>
</trkpt>
<trkpt lat="51.769452" lon="19.497670">
<ele>268.0</ele>
<speed>10.9</speed>
<course>320.9</course>
<desc>Speed 10.9 km/h Distance 4.50 km</desc>
<time>2011-02-13T12:31:53.02</time>
<name>1284</name>
</trkpt>
<trkpt lat="51.769478" lon="19.497635">
<ele>269.0</ele>
<speed>13.6</speed>
<course>340.7</course>
<desc>Speed 13.6 km/h Distance 4.50 km</desc>
<time>2011-02-13T12:31:54.03</time>
<name>1285</name>
</trkpt>
<trkpt lat="51.769505" lon="19.497620">
<ele>269.0</ele>
<speed>11.2</speed>
<course>334.7</course>
<desc>Speed 11.2 km/h Distance 4.50 km</desc>
<time>2011-02-13T12:31:55.02</time>
<name>1286</name>
</trkpt>
<trkpt lat="51.769533" lon="19.497598">
<ele>269.5</ele>
<speed>11.6</speed>
<course>322.7</course>
<desc>Speed 11.6 km/h Distance 4.51 km</desc>
<time>2011-02-13T12:31:56.02</time>
<name>1287</name>
</trkpt>
<trkpt lat="51.769555" lon="19.497572">
<ele>270.5</ele>
<speed>10.6</speed>
<course>315.0</course>
<desc>Speed 10.6 km/h Distance 4.51 km</desc>
<time>2011-02-13T12:31:57.02</time>
<name>1288</name>
</trkpt>
<trkpt lat="51.769577" lon="19.497537">
<ele>272.5</ele>
<speed>12.1</speed>
<course>319.4</course>
<desc>Speed 12.1 km/h Distance 4.51 km</desc>
<time>2011-02-13T12:31:58.02</time>
<name>1289</name>
</trkpt>
<trkpt lat="51.769598" lon="19.497507">
<ele>274.0</ele>
<speed>11.1</speed>
<course>325.1</course>
<desc>Speed 11.1 km/h Distance 4.52 km</desc>
<time>2011-02-13T12:31:59.02</time>
<name>1290</name>
</trkpt>
<trkpt lat="51.769625" lon="19.497477">
<ele>275.0</ele>
<speed>12.5</speed>
<course>307.7</course>
<desc>Speed 12.5 km/h Distance 4.52 km</desc>
<time>2011-02-13T12:32:00.03</time>
<name>1291</name>
</trkpt>
<trkpt lat="51.769643" lon="19.497438">
<ele>276.5</ele>
<speed>12.1</speed>
<course>335.1</course>
<desc>Speed 12.1 km/h Distance 4.52 km</desc>
<time>2011-02-13T12:32:01.02</time>
<name>1292</name>
</trkpt>
<trkpt lat="51.769670" lon="19.497418">
<ele>276.0</ele>
<speed>10.7</speed>
<course>339.2</course>
<desc>Speed 10.7 km/h Distance 4.53 km</desc>
<time>2011-02-13T12:32:02.02</time>
<name>1293</name>
</trkpt>
<trkpt lat="51.769700" lon="19.497400">
<ele>275.5</ele>
<speed>11.7</speed>
<course>307.8</course>
<desc>Speed 11.7 km/h Distance 4.53 km</desc>
<time>2011-02-13T12:32:03.02</time>
<name>1294</name>
</trkpt>
<trkpt lat="51.769720" lon="19.497358">
<ele>276.0</ele>
<speed>13.0</speed>
<course>326.5</course>
<desc>Speed 13.0 km/h Distance 4.53 km</desc>
<time>2011-02-13T12:32:04.02</time>
<name>1295</name>
</trkpt>
<trkpt lat="51.769745" lon="19.497332">
<ele>276.0</ele>
<speed>11.4</speed>
<course>328.3</course>
<desc>Speed 11.4 km/h Distance 4.54 km</desc>
<time>2011-02-13T12:32:05.02</time>
<name>1296</name>
</trkpt>
<trkpt lat="51.769772" lon="19.497305">
<ele>275.5</ele>
<speed>11.8</speed>
<course>315.0</course>
<desc>Speed 11.8 km/h Distance 4.54 km</desc>
<time>2011-02-13T12:32:06.02</time>
<name>1297</name>
</trkpt>
<trkpt lat="51.769793" lon="19.497270">
<ele>276.0</ele>
<speed>11.9</speed>
<course>311.4</course>
<desc>Speed 11.9 km/h Distance 4.54 km</desc>
<time>2011-02-13T12:32:07.02</time>
<name>1298</name>
</trkpt>
<trkpt lat="51.769813" lon="19.497233">
<ele>276.0</ele>
<speed>12.9</speed>
<course>304.4</course>
<desc>Speed 12.9 km/h Distance 4.55 km</desc>
<time>2011-02-13T12:32:08.02</time>
<name>1299</name>
</trkpt>
<trkpt lat="51.769832" lon="19.497190">
<ele>276.5</ele>
<speed>13.1</speed>
<course>294.0</course>
<desc>Speed 13.1 km/h Distance 4.55 km</desc>
<time>2011-02-13T12:32:09.03</time>
<name>1300</name>
</trkpt>
<trkpt lat="51.769845" lon="19.497142">
<ele>277.0</ele>
<speed>13.4</speed>
<course>314.6</course>
<desc>Speed 13.4 km/h Distance 4.55 km</desc>
<time>2011-02-13T12:32:10.02</time>
<name>1301</name>
</trkpt>
<trkpt lat="51.769863" lon="19.497112">
<ele>277.0</ele>
<speed>10.4</speed>
<course>311.4</course>
<desc>Speed 10.4 km/h Distance 4.56 km</desc>
<time>2011-02-13T12:32:11.02</time>
<name>1302</name>
</trkpt>
<trkpt lat="51.769883" lon="19.497075">
<ele>278.0</ele>
<speed>12.3</speed>
<course>293.8</course>
<desc>Speed 12.3 km/h Distance 4.56 km</desc>
<time>2011-02-13T12:32:12.02</time>
<name>1303</name>
</trkpt>
<trkpt lat="51.769898" lon="19.497020">
<ele>279.5</ele>
<speed>14.8</speed>
<course>304.4</course>
<desc>Speed 14.8 km/h Distance 4.56 km</desc>
<time>2011-02-13T12:32:13.02</time>
<name>1304</name>
</trkpt>
<trkpt lat="51.769917" lon="19.496977">
<ele>280.5</ele>
<speed>12.8</speed>
<course>313.7</course>
<desc>Speed 12.8 km/h Distance 4.57 km</desc>
<time>2011-02-13T12:32:14.02</time>
<name>1305</name>
</trkpt>
<trkpt lat="51.769938" lon="19.496940">
<ele>280.0</ele>
<speed>12.4</speed>
<course>303.3</course>
<desc>Speed 12.4 km/h Distance 4.57 km</desc>
<time>2011-02-13T12:32:15.02</time>
<name>1306</name>
</trkpt>
<trkpt lat="51.769957" lon="19.496895">
<ele>280.0</ele>
<speed>13.5</speed>
<course>291.4</course>
<desc>Speed 13.5 km/h Distance 4.58 km</desc>
<time>2011-02-13T12:32:16.02</time>
<name>1307</name>
</trkpt>
<trkpt lat="51.769970" lon="19.496840">
<ele>281.0</ele>
<speed>14.5</speed>
<course>311.7</course>
<desc>Speed 14.5 km/h Distance 4.58 km</desc>
<time>2011-02-13T12:32:17.02</time>
<name>1308</name>
</trkpt>
<trkpt lat="51.769988" lon="19.496807">
<ele>281.0</ele>
<speed>11.2</speed>
<course>311.2</course>
<desc>Speed 11.2 km/h Distance 4.58 km</desc>
<time>2011-02-13T12:32:18.02</time>
<name>1309</name>
</trkpt>
<trkpt lat="51.770010" lon="19.496767">
<ele>279.5</ele>
<speed>13.3</speed>
<course>295.9</course>
<desc>Speed 13.3 km/h Distance 4.59 km</desc>
<time>2011-02-13T12:32:19.02</time>
<name>1310</name>
</trkpt>
<trkpt lat="51.770025" lon="19.496717">
<ele>279.5</ele>
<speed>12.7</speed>
<course>288.4</course>
<desc>Speed 12.7 km/h Distance 4.59 km</desc>
<time>2011-02-13T12:32:20.02</time>
<name>1311</name>
</trkpt>
<trkpt lat="51.770037" lon="19.496660">
<ele>280.0</ele>
<speed>15.8</speed>
<course>285.5</course>
<desc>Speed 15.8 km/h Distance 4.59 km</desc>
<time>2011-02-13T12:32:21.03</time>
<name>1312</name>
</trkpt>
<trkpt lat="51.770047" lon="19.496602">
<ele>279.5</ele>
<speed>15.5</speed>
<course>290.7</course>
<desc>Speed 15.5 km/h Distance 4.60 km</desc>
<time>2011-02-13T12:32:22.02</time>
<name>1313</name>
</trkpt>
<trkpt lat="51.770058" lon="19.496552">
<ele>280.0</ele>
<speed>14.4</speed>
<course>288.5</course>
<desc>Speed 14.4 km/h Distance 4.60 km</desc>
<time>2011-02-13T12:32:23.02</time>
<name>1314</name>
</trkpt>
<trkpt lat="51.770068" lon="19.496503">
<ele>280.5</ele>
<speed>13.9</speed>
<course>304.4</course>
<desc>Speed 13.9 km/h Distance 4.61 km</desc>
<time>2011-02-13T12:32:24.02</time>
<name>1315</name>
</trkpt>
<trkpt lat="51.770092" lon="19.496448">
<ele>280.0</ele>
<speed>17.0</speed>
<course>296.4</course>
<desc>Speed 17.0 km/h Distance 4.61 km</desc>
<time>2011-02-13T12:32:25.02</time>
<name>1316</name>
</trkpt>
<trkpt lat="51.770105" lon="19.496405">
<ele>279.5</ele>
<speed>13.1</speed>
<course>287.9</course>
<desc>Speed 13.1 km/h Distance 4.61 km</desc>
<time>2011-02-13T12:32:26.02</time>
<name>1317</name>
</trkpt>
<trkpt lat="51.770113" lon="19.496363">
<ele>279.0</ele>
<speed>12.3</speed>
<course>284.5</course>
<desc>Speed 12.3 km/h Distance 4.62 km</desc>
<time>2011-02-13T12:32:27.02</time>
<name>1318</name>
</trkpt>
<trkpt lat="51.770120" lon="19.496322">
<ele>279.5</ele>
<speed>12.7</speed>
<course>306.0</course>
<desc>Speed 12.7 km/h Distance 4.62 km</desc>
<time>2011-02-13T12:32:28.02</time>
<name>1319</name>
</trkpt>
<trkpt lat="51.770135" lon="19.496288">
<ele>277.5</ele>
<speed>10.6</speed>
<course>276.6</course>
<desc>Speed 10.6 km/h Distance 4.62 km</desc>
<time>2011-02-13T12:32:29.02</time>
<name>1320</name>
</trkpt>
<trkpt lat="51.770138" lon="19.496242">
<ele>277.0</ele>
<speed>12.1</speed>
<course>266.8</course>
<desc>Speed 12.1 km/h Distance 4.63 km</desc>
<time>2011-02-13T12:32:30.02</time>
<name>1321</name>
</trkpt>
<trkpt lat="51.770137" lon="19.496193">
<ele>278.5</ele>
<speed>13.6</speed>
<course>267.6</course>
<desc>Speed 13.6 km/h Distance 4.63 km</desc>
<time>2011-02-13T12:32:31.02</time>
<name>1322</name>
</trkpt>
<trkpt lat="51.770135" lon="19.496130">
<ele>279.5</ele>
<speed>17.3</speed>
<course>270.0</course>
<desc>Speed 17.3 km/h Distance 4.63 km</desc>
<time>2011-02-13T12:32:32.02</time>
<name>1323</name>
</trkpt>
<trkpt lat="51.770135" lon="19.496045">
<ele>278.0</ele>
<speed>12.9</speed>
<course>287.1</course>
<desc>Speed 12.9 km/h Distance 4.64 km</desc>
<time>2011-02-13T12:32:34.02</time>
<name>1324</name>
</trkpt>
<trkpt lat="51.770142" lon="19.496010">
<ele>276.5</ele>
<speed>10.0</speed>
<course>263.2</course>
<desc>Speed 10.0 km/h Distance 4.64 km</desc>
<time>2011-02-13T12:32:35.02</time>
<name>1325</name>
</trkpt>
<trkpt lat="51.770138" lon="19.495965">
<ele>276.5</ele>
<speed>12.4</speed>
<course>288.6</course>
<desc>Speed 12.4 km/h Distance 4.64 km</desc>
<time>2011-02-13T12:32:36.02</time>
<name>1326</name>
</trkpt>
<trkpt lat="51.770147" lon="19.495925">
<ele>275.0</ele>
<speed>10.8</speed>
<course>263.6</course>
<desc>Speed 10.8 km/h Distance 4.65 km</desc>
<time>2011-02-13T12:32:37.02</time>
<name>1327</name>
</trkpt>
<trkpt lat="51.770143" lon="19.495877">
<ele>275.0</ele>
<speed>12.7</speed>
<course>262.0</course>
<desc>Speed 12.7 km/h Distance 4.65 km</desc>
<time>2011-02-13T12:32:38.02</time>
<name>1328</name>
</trkpt>
<trkpt lat="51.770140" lon="19.495838">
<ele>275.0</ele>
<speed>10.3</speed>
<course>273.9</course>
<desc>Speed 10.3 km/h Distance 4.65 km</desc>
<time>2011-02-13T12:32:39.02</time>
<name>1329</name>
</trkpt>
<trkpt lat="51.770142" lon="19.495798">
<ele>274.0</ele>
<speed>10.4</speed>
<course>256.0</course>
<desc>Speed 10.4 km/h Distance 4.66 km</desc>
<time>2011-02-13T12:32:40.01</time>
<name>1330</name>
</trkpt>
<trkpt lat="51.770135" lon="19.495755">
<ele>274.0</ele>
<speed>11.2</speed>
<course>254.1</course>
<desc>Speed 11.2 km/h Distance 4.66 km</desc>
<time>2011-02-13T12:32:41.02</time>
<name>1331</name>
</trkpt>
<trkpt lat="51.770125" lon="19.495698">
<ele>275.0</ele>
<speed>14.7</speed>
<course>261.4</course>
<desc>Speed 14.7 km/h Distance 4.66 km</desc>
<time>2011-02-13T12:32:42.02</time>
<name>1332</name>
</trkpt>
<trkpt lat="51.770120" lon="19.495645">
<ele>275.0</ele>
<speed>14.1</speed>
<course>252.6</course>
<desc>Speed 14.1 km/h Distance 4.67 km</desc>
<time>2011-02-13T12:32:43.03</time>
<name>1333</name>
</trkpt>
<trkpt lat="51.770110" lon="19.495593">
<ele>276.5</ele>
<speed>14.1</speed>
<course>263.4</course>
<desc>Speed 14.1 km/h Distance 4.67 km</desc>
<time>2011-02-13T12:32:44.02</time>
<name>1334</name>
</trkpt>
<trkpt lat="51.770107" lon="19.495547">
<ele>276.0</ele>
<speed>13.1</speed>
<course>265.6</course>
<desc>Speed 13.1 km/h Distance 4.67 km</desc>
<time>2011-02-13T12:32:45.02</time>
<name>1335</name>
</trkpt>
<trkpt lat="51.770105" lon="19.495512">
<ele>275.0</ele>
<speed>10.3</speed>
<course>253.1</course>
<desc>Speed 10.3 km/h Distance 4.68 km</desc>
<time>2011-02-13T12:32:46.02</time>
<name>1336</name>
</trkpt>
<trkpt lat="51.770095" lon="19.495458">
<ele>276.0</ele>
<speed>14.4</speed>
<course>262.6</course>
<desc>Speed 14.4 km/h Distance 4.68 km</desc>
<time>2011-02-13T12:32:47.02</time>
<name>1337</name>
</trkpt>
<trkpt lat="51.770092" lon="19.495417">
<ele>276.0</ele>
<speed>10.9</speed>
<course>264.0</course>
<desc>Speed 10.9 km/h Distance 4.68 km</desc>
<time>2011-02-13T12:32:48.01</time>
<name>1338</name>
</trkpt>
<trkpt lat="51.770088" lon="19.495365">
<ele>276.5</ele>
<speed>14.3</speed>
<course>273.3</course>
<desc>Speed 14.3 km/h Distance 4.69 km</desc>
<time>2011-02-13T12:32:49.02</time>
<name>1339</name>
</trkpt>
<trkpt lat="51.770090" lon="19.495318">
<ele>276.0</ele>
<speed>13.3</speed>
<course>284.3</course>
<desc>Speed 13.3 km/h Distance 4.69 km</desc>
<time>2011-02-13T12:32:50.02</time>
<name>1340</name>
</trkpt>
<trkpt lat="51.770095" lon="19.495287">
<ele>275.0</ele>
<speed>3.5</speed>
<course>257.1</course>
<desc>Speed 3.5 km/h Distance 4.69 km</desc>
<time>2011-02-13T12:32:52.02</time>
<name>1341</name>
</trkpt>
<trkpt lat="51.770093" lon="19.495275">
<ele>275.5</ele>
<speed>2.7</speed>
<course>245.1</course>
<desc>Speed 2.7 km/h Distance 4.69 km</desc>
<time>2011-02-13T12:32:53.03</time>
<name>1342</name>
</trkpt>
<trkpt lat="51.770090" lon="19.495263">
<ele>276.0</ele>
<speed>3.2</speed>
<course>248.4</course>
<desc>Speed 3.2 km/h Distance 4.69 km</desc>
<time>2011-02-13T12:32:54.02</time>
<name>1343</name>
</trkpt>
<trkpt lat="51.770088" lon="19.495257">
<ele>275.5</ele>
<speed>2.6</speed>
<course>229.4</course>
<desc>Speed 2.6 km/h Distance 4.69 km</desc>
<time>2011-02-13T12:32:55.03</time>
<name>1344</name>
</trkpt>
<trkpt lat="51.770087" lon="19.495253">
<ele>275.5</ele>
<speed>2.1</speed>
<course>317.5</course>
<desc>Speed 2.1 km/h Distance 4.69 km</desc>
<time>2011-02-13T12:32:56.02</time>
<name>1345</name>
</trkpt>
<trkpt lat="51.770090" lon="19.495248">
<ele>275.0</ele>
<speed>2.3</speed>
<course>235.3</course>
<desc>Speed 2.3 km/h Distance 4.70 km</desc>
<time>2011-02-13T12:32:57.02</time>
<name>1346</name>
</trkpt>
<trkpt lat="51.770085" lon="19.495237">
<ele>275.0</ele>
<speed>3.5</speed>
<course>270.0</course>
<desc>Speed 3.5 km/h Distance 4.70 km</desc>
<time>2011-02-13T12:32:58.02</time>
<name>1347</name>
</trkpt>
<trkpt lat="51.770085" lon="19.495232">
<ele>274.0</ele>
<speed>1.9</speed>
<course>291.6</course>
<desc>Speed 1.9 km/h Distance 4.70 km</desc>
<time>2011-02-13T12:32:59.02</time>
<name>1348</name>
</trkpt>
<trkpt lat="51.770087" lon="19.495225">
<ele>273.5</ele>
<speed>1.5</speed>
<course>347.4</course>
<desc>Speed 1.5 km/h Distance 4.70 km</desc>
<time>2011-02-13T12:33:00.02</time>
<name>1349</name>
</trkpt>
<trkpt lat="51.770092" lon="19.495223">
<ele>271.5</ele>
<speed>0.9</speed>
<course>239.5</course>
<desc>Speed 0.9 km/h Distance 4.70 km</desc>
<time>2011-02-13T12:33:01.02</time>
<name>1350</name>
</trkpt>
<trkpt lat="51.770085" lon="19.495205">
<ele>272.5</ele>
<speed>5.4</speed>
<course>254.9</course>
<desc>Speed 5.4 km/h Distance 4.70 km</desc>
<time>2011-02-13T12:33:02.02</time>
<name>1351</name>
</trkpt>
<trkpt lat="51.770083" lon="19.495195">
<ele>272.5</ele>
<speed>2.5</speed>
<course>248.4</course>
<desc>Speed 2.5 km/h Distance 4.70 km</desc>
<time>2011-02-13T12:33:03.01</time>
<name>1352</name>
</trkpt>
<trkpt lat="51.770082" lon="19.495188">
<ele>272.0</ele>
<speed>3.1</speed>
<course>298.3</course>
<desc>Speed 3.1 km/h Distance 4.70 km</desc>
<time>2011-02-13T12:33:04.02</time>
<name>1353</name>
</trkpt>
<trkpt lat="51.770083" lon="19.495183">
<ele>272.0</ele>
<speed>2.4</speed>
<course>23.0</course>
<desc>Speed 2.4 km/h Distance 4.70 km</desc>
<time>2011-02-13T12:33:05.02</time>
<name>1354</name>
</trkpt>
<trkpt lat="51.770087" lon="19.495185">
<ele>271.5</ele>
<speed>0.6</speed>
<course>12.6</course>
<desc>Speed 0.6 km/h Distance 4.70 km</desc>
<time>2011-02-13T12:33:06.02</time>
<name>1355</name>
</trkpt>
<trkpt lat="51.770090" lon="19.495187">
<ele>270.5</ele>
<speed>1.3</speed>
<course>347.4</course>
<desc>Speed 1.3 km/h Distance 4.70 km</desc>
<time>2011-02-13T12:33:07.02</time>
<name>1356</name>
</trkpt>
<trkpt lat="51.770093" lon="19.495185">
<ele>270.0</ele>
<speed>2.1</speed>
<course>12.6</course>
<desc>Speed 2.1 km/h Distance 4.70 km</desc>
<time>2011-02-13T12:33:08.02</time>
<name>1357</name>
</trkpt>
<trkpt lat="51.770098" lon="19.495187">
<ele>269.5</ele>
<speed>1.0</speed>
<course>341.2</course>
<desc>Speed 1.0 km/h Distance 4.70 km</desc>
<time>2011-02-13T12:33:09.02</time>
<name>1358</name>
</trkpt>
<trkpt lat="51.770102" lon="19.495185">
<ele>269.0</ele>
<speed>1.5</speed>
<course>310.6</course>
<desc>Speed 1.5 km/h Distance 4.70 km</desc>
<time>2011-02-13T12:33:10.02</time>
<name>1359</name>
</trkpt>
<trkpt lat="51.770103" lon="19.495182">
<ele>268.5</ele>
<speed>0.9</speed>
<course>252.0</course>
<desc>Speed 0.9 km/h Distance 4.70 km</desc>
<time>2011-02-13T12:33:11.02</time>
<name>1360</name>
</trkpt>
<trkpt lat="51.770102" lon="19.495173">
<ele>269.0</ele>
<speed>2.6</speed>
<course>270.0</course>
<desc>Speed 2.6 km/h Distance 4.70 km</desc>
<time>2011-02-13T12:33:12.02</time>
<name>1361</name>
</trkpt>
<trkpt lat="51.770102" lon="19.495168">
<ele>269.0</ele>
<speed>1.8</speed>
<course>304.7</course>
<desc>Speed 1.8 km/h Distance 4.70 km</desc>
<time>2011-02-13T12:33:13.02</time>
<name>1362</name>
</trkpt>
<trkpt lat="51.770107" lon="19.495157">
<ele>268.5</ele>
<speed>2.8</speed>
<course>295.9</course>
<desc>Speed 2.8 km/h Distance 4.71 km</desc>
<time>2011-02-13T12:33:14.02</time>
<name>1363</name>
</trkpt>
<trkpt lat="51.770112" lon="19.495140">
<ele>269.0</ele>
<speed>4.1</speed>
<course>323.6</course>
<desc>Speed 4.1 km/h Distance 4.71 km</desc>
<time>2011-02-13T12:33:15.02</time>
<name>1364</name>
</trkpt>
<trkpt lat="51.770120" lon="19.495130">
<ele>269.0</ele>
<speed>3.7</speed>
<course>339.9</course>
<desc>Speed 3.7 km/h Distance 4.71 km</desc>
<time>2011-02-13T12:33:16.02</time>
<name>1365</name>
</trkpt>
<trkpt lat="51.770128" lon="19.495125">
<ele>269.0</ele>
<speed>2.9</speed>
<course>335.2</course>
<desc>Speed 2.9 km/h Distance 4.71 km</desc>
<time>2011-02-13T12:33:17.02</time>
<name>1366</name>
</trkpt>
<trkpt lat="51.770135" lon="19.495120">
<ele>269.0</ele>
<speed>2.8</speed>
<course>328.2</course>
<desc>Speed 2.8 km/h Distance 4.71 km</desc>
<time>2011-02-13T12:33:18.02</time>
<name>1367</name>
</trkpt>
<trkpt lat="51.770143" lon="19.495112">
<ele>269.0</ele>
<speed>3.4</speed>
<course>335.2</course>
<desc>Speed 3.4 km/h Distance 4.71 km</desc>
<time>2011-02-13T12:33:19.02</time>
<name>1368</name>
</trkpt>
<trkpt lat="51.770157" lon="19.495102">
<ele>267.5</ele>
<speed>5.6</speed>
<course>276.2</course>
<desc>Speed 5.6 km/h Distance 4.71 km</desc>
<time>2011-02-13T12:33:20.02</time>
<name>1369</name>
</trkpt>
<trkpt lat="51.770158" lon="19.495077">
<ele>267.5</ele>
<speed>5.2</speed>
<course>270.0</course>
<desc>Speed 5.2 km/h Distance 4.71 km</desc>
<time>2011-02-13T12:33:21.02</time>
<name>1370</name>
</trkpt>
<trkpt lat="51.770158" lon="19.495058">
<ele>268.0</ele>
<speed>4.6</speed>
<course>270.0</course>
<desc>Speed 4.6 km/h Distance 4.72 km</desc>
<time>2011-02-13T12:33:22.02</time>
<name>1371</name>
</trkpt>
<trkpt lat="51.770158" lon="19.495047">
<ele>267.0</ele>
<speed>2.9</speed>
<course>270.0</course>
<desc>Speed 2.9 km/h Distance 4.72 km</desc>
<time>2011-02-13T12:33:23.02</time>
<name>1372</name>
</trkpt>
<trkpt lat="51.770158" lon="19.495023">
<ele>268.0</ele>
<speed>4.1</speed>
<course>252.1</course>
<desc>Speed 4.1 km/h Distance 4.72 km</desc>
<time>2011-02-13T12:33:24.02</time>
<name>1373</name>
</trkpt>
<trkpt lat="51.770155" lon="19.495007">
<ele>268.5</ele>
<speed>3.6</speed>
<course>270.0</course>
<desc>Speed 3.6 km/h Distance 4.72 km</desc>
<time>2011-02-13T12:33:25.88</time>
<name>1374</name>
</trkpt>
<trkpt lat="51.770155" lon="19.494977">
<ele>268.0</ele>
<speed>2.6</speed>
<course>259.9</course>
<desc>Speed 2.6 km/h Distance 4.72 km</desc>
<time>2011-02-13T12:33:27.03</time>
<name>1375</name>
</trkpt>
<trkpt lat="51.770153" lon="19.494962">
<ele>268.5</ele>
<speed>3.7</speed>
<course>270.0</course>
<desc>Speed 3.7 km/h Distance 4.72 km</desc>
<time>2011-02-13T12:33:28.01</time>
<name>1376</name>
</trkpt>
<trkpt lat="51.770153" lon="19.494947">
<ele>269.0</ele>
<speed>3.3</speed>
<course>270.0</course>
<desc>Speed 3.3 km/h Distance 4.72 km</desc>
<time>2011-02-13T12:33:29.84</time>
<name>1377</name>
</trkpt>
<trkpt lat="51.770153" lon="19.494928">
<ele>267.5</ele>
<speed>2.3</speed>
<course>250.3</course>
<desc>Speed 2.3 km/h Distance 4.72 km</desc>
<time>2011-02-13T12:33:31.27</time>
<name>1378</name>
</trkpt>
<trkpt lat="51.770150" lon="19.494913">
<ele>267.5</ele>
<speed>3.3</speed>
<course>252.1</course>
<desc>Speed 3.3 km/h Distance 4.73 km</desc>
<time>2011-02-13T12:33:32.19</time>
<name>1379</name>
</trkpt>
<trkpt lat="51.770147" lon="19.494897">
<ele>268.0</ele>
<speed>3.9</speed>
<course>252.1</course>
<desc>Speed 3.9 km/h Distance 4.73 km</desc>
<time>2011-02-13T12:33:33.01</time>
<name>1380</name>
</trkpt>
</trkseg>
</trk>
</gpx>
